GFSNGP_850_thetae_000.txt.gz
Theta_e
314 315 316 317 317 317 316 314 313 313 313 313 312 311 313 313 312 312 312 311 310 309 308 309 306 305 305 307 305 302 301 301 297 295 295 295 296 295 296 295 293 292 292 291
315 316 315 316 315 314 313 313 312 312 312 312 313 313 312 312 311 311 311 311 308 308 309 308 306 306 306 304 301 300 301 300 298 296 296 296 297 296 294 293 292 292 292 290
316 311 312 315 312 312 312 311 310 311 310 312 312 312 312 311 311 311 311 309 309 309 309 306 305 305 303 300 299 299 299 299 298 297 296 295 294 293 293 292 292 291 289 288
311 311 317 314 311 311 311 311 311 313 312 312 312 311 311 311 310 311 308 308 308 309 308 306 304 303 300 298 298 297 297 297 297 297 296 293 292 292 292 291 289 288 287 286
310 314 313 313 312 313 312 312 312 312 313 313 313 312 311 310 310 309 307 307 308 307 305 302 302 300 299 299 297 298 295 293 292 293 292 292 292 291 289 288 287 286 286 285
310 312 315 309 309 313 313 312 313 313 312 312 312 312 311 310 306 304 305 307 306 305 303 300 300 299 299 296 294 293 292 291 291 291 290 289 288 287 287 286 286 285 285 285
299 305 306 307 310 313 307 310 312 311 311 312 311 311 310 307 303 304 306 306 304 302 300 299 299 298 294 292 292 292 293 292 290 288 287 287 287 286 286 285 285 285 284 284
306 310 313 311 311 311 310 311 310 310 311 311 310 307 306 303 303 304 303 302 300 299 299 298 297 294 293 293 293 292 290 289 287 287 287 286 286 286 285 285 284 284 283 282
307 307 309 310 311 311 311 310 310 311 311 310 306 304 304 303 302 302 300 298 297 298 297 296 295 294 293 293 292 290 289 287 287 286 286 286 285 284 284 284 283 282 281 281
308 310 310 310 311 311 310 311 310 309 306 305 303 302 302 302 301 300 298 297 296 297 297 295 295 293 293 292 290 288 287 286 286 285 286 285 284 283 283 282 281 281 280 280
310 310 310 310 310 310 310 309 306 304 304 302 300 300 302 302 299 296 297 297 297 297 296 293 293 292 292 290 287 287 286 286 286 285 285 284 284 282 282 281 281 281 280 280
312 311 310 310 310 309 307 305 302 301 301 300 300 301 302 299 298 297 297 297 296 294 293 292 292 291 290 288 287 287 287 286 286 285 285 284 283 282 282 281 280 280 279 280
311 311 311 310 309 306 303 303 302 301 300 300 301 301 300 299 298 297 298 296 294 293 293 292 291 291 288 287 287 287 287 287 286 286 285 284 283 282 281 280 280 279 279 279
310 310 309 307 303 301 300 300 300 299 299 300 301 300 300 298 295 295 296 294 294 293 293 289 290 290 289 288 288 288 287 286 286 285 284 283 282 281 280 280 279 278 279 279
309 306 305 302 300 299 297 298 299 299 298 297 297 298 298 296 294 294 294 293 293 292 290 288 289 288 288 288 289 288 287 286 285 284 283 282 282 281 280 279 278 278 278 279
306 303 302 300 299 298 298 299 299 298 297 297 297 296 297 297 294 292 290 289 289 288 288 288 287 287 288 288 289 288 287 285 284 283 282 282 281 280 279 279 278 277 277 278
302 301 299 297 296 295 295 296 297 297 297 297 296 296 297 296 291 289 289 288 288 288 287 287 288 290 290 289 288 288 286 285 283 282 281 281 280 280 279 278 277 277 277 277
298 297 296 295 293 293 294 294 295 296 297 296 295 295 295 291 289 289 288 288 288 288 289 289 287 288 288 287 286 286 285 284 283 282 281 280 280 279 278 278 277 277 276 276
298 298 297 296 294 293 294 295 295 295 295 294 293 294 292 288 290 289 288 288 288 287 286 285 286 286 285 285 286 285 285 284 283 281 280 280 279 279 278 278 277 277 276 276
298 297 297 296 293 294 295 295 294 294 294 293 292 292 289 290 289 289 288 286 286 286 285 286 285 285 284 285 286 285 284 283 281 280 280 280 279 278 278 277 277 276 276 275
297 296 296 294 293 293 295 295 295 294 292 293 292 290 290 290 289 288 287 287 286 286 285 286 285 285 284 285 285 284 283 282 281 280 280 279 279 278 277 277 276 276 275 275
295 295 295 294 293 293 294 293 295 295 293 292 291 290 290 289 289 288 287 286 286 285 285 285 285 285 285 286 285 283 283 282 280 280 280 280 279 278 277 277 276 275 275 274
295 294 294 294 294 294 294 294 295 293 292 291 290 290 289 289 288 287 287 286 285 285 284 285 284 285 286 286 285 283 282 282 281 281 280 280 279 278 277 276 276 275 275 274
293 293 294 294 294 294 293 293 293 292 291 291 290 289 290 290 288 287 285 285 284 284 284 284 284 283 284 285 284 282 282 282 282 281 280 280 280 279 278 277 276 276 274 273
293 293 294 294 294 294 294 293 293 292 291 290 290 290 290 290 287 285 285 285 285 284 284 284 284 283 283 282 283 282 282 283 283 282 281 281 280 279 278 277 276 275 274 273
294 294 294 294 293 293 293 293 293 292 291 290 290 290 290 289 289 286 285 285 284 284 284 284 284 283 283 283 282 282 282 283 284 283 282 281 280 280 279 277 277 276 274 274
293 293 293 292 292 293 293 293 293 291 291 291 291 290 290 289 289 286 285 284 285 284 284 284 283 283 283 283 283 283 282 283 283 283 282 282 281 280 279 278 277 276 275 274

GFSNGP_850_thetae_003.txt.gz
Theta_e
312 313 314 315 316 316 315 313 315 314 312 311 310 311 312 312 311 311 310 311 310 308 307 308 308 306 305 304 303 301 299 298 299 295 293 294 294 294 294 295 294 293 292 292
313 313 314 315 314 313 313 313 311 311 310 309 312 312 312 312 311 310 309 310 309 306 307 308 307 306 305 302 301 298 297 297 298 297 295 295 295 295 294 293 293 292 291 290
309 309 308 310 310 312 311 310 310 310 309 311 311 311 312 311 311 310 309 309 306 305 306 306 306 303 301 300 298 297 297 296 296 296 295 294 293 292 291 291 291 289 288 288
305 311 313 311 310 310 310 310 309 309 310 311 312 312 312 311 310 309 308 304 302 303 303 303 303 301 299 299 298 297 297 294 292 292 292 292 292 292 290 289 288 287 287 286
314 313 310 312 311 311 310 309 310 311 311 312 310 311 311 310 309 307 303 302 302 302 304 303 300 299 298 297 296 294 292 292 292 291 290 289 288 288 287 287 286 286 285 285
308 312 315 309 308 310 312 312 310 312 311 310 309 310 310 308 305 303 302 302 303 303 301 298 298 298 298 296 293 293 292 292 291 289 288 287 286 286 286 286 285 285 285 284
308 309 306 306 308 310 312 311 311 311 310 309 308 310 308 306 303 301 300 302 302 299 297 298 298 297 295 293 292 292 293 290 289 287 286 286 286 286 286 285 284 284 284 283
306 308 310 310 311 311 311 311 311 310 310 310 310 307 303 300 300 300 302 300 297 296 297 297 296 295 294 293 293 292 290 288 286 286 286 285 285 285 284 284 283 283 282 282
309 308 308 310 310 310 310 310 309 310 309 306 305 302 300 299 300 302 300 296 296 296 296 296 296 294 294 293 291 290 287 286 286 286 285 285 284 284 284 283 282 281 281 281
308 310 310 311 311 311 310 310 309 305 304 302 299 299 298 298 300 301 298 296 296 296 296 295 295 293 292 291 290 287 287 286 286 286 285 284 284 284 283 282 281 281 280 280
311 311 311 311 310 310 309 309 306 304 302 300 298 298 299 300 302 300 298 297 297 297 295 292 292 291 291 290 288 287 287 287 287 286 285 285 284 283 282 281 280 280 279 279
312 312 310 311 310 307 304 302 301 300 299 298 299 300 300 301 300 299 299 296 296 294 293 292 292 291 291 290 288 287 287 287 287 286 286 285 284 283 281 280 280 279 278 278
311 311 310 309 306 302 302 299 299 298 299 298 298 298 299 298 298 298 297 296 295 294 293 292 291 289 290 289 288 287 288 288 287 286 285 284 283 282 281 280 279 278 278 278
310 309 309 306 305 300 298 296 296 296 297 298 297 296 296 296 296 297 295 294 294 292 292 292 290 288 289 289 288 288 288 288 287 285 284 283 282 281 280 279 278 278 277 277
307 307 307 305 300 298 296 295 295 297 298 297 296 296 296 296 296 297 295 293 290 290 289 289 288 287 287 287 287 288 288 287 286 284 283 282 281 281 280 279 278 277 277 277
305 303 301 300 299 295 293 293 293 294 294 295 296 295 294 295 294 293 292 289 290 289 289 288 287 287 288 289 289 288 287 286 285 283 282 281 281 280 279 278 277 277 277 276
303 301 298 295 297 296 295 294 293 293 294 294 295 293 292 293 293 292 288 290 289 288 287 288 288 288 287 287 286 286 286 285 283 282 282 281 280 279 278 278 277 276 276 276
298 298 298 297 296 295 294 292 293 294 294 293 293 292 292 292 292 288 290 289 288 288 288 287 285 285 285 285 285 285 285 284 283 282 281 280 279 279 278 278 277 276 276 275
298 297 297 297 296 295 293 292 294 294 294 294 293 292 291 291 289 290 289 288 289 288 286 285 285 285 284 284 284 285 284 284 282 282 281 280 279 278 277 277 277 276 275 275
295 293 294 295 295 295 293 293 293 294 293 294 294 292 291 291 289 290 288 288 287 286 285 285 285 284 285 284 285 284 284 282 281 281 280 280 279 278 277 277 276 275 275 274
292 293 294 294 294 294 294 293 294 294 293 294 293 292 291 290 290 289 289 287 287 286 285 285 284 284 283 284 285 285 283 282 281 281 280 280 279 278 277 276 276 275 275 274
293 293 292 292 292 293 293 293 293 293 293 292 291 291 291 290 289 289 289 288 286 285 284 284 284 283 284 285 285 283 282 282 281 281 281 280 280 279 278 277 276 276 275 274
292 292 293 293 293 293 293 293 293 293 293 292 292 291 290 289 289 288 288 287 285 285 284 283 283 283 282 284 285 282 282 282 281 281 281 280 280 279 278 277 277 276 275 274
292 292 293 293 293 293 293 293 292 293 293 293 292 290 290 289 290 289 288 286 285 284 284 283 283 283 283 282 282 282 282 281 281 283 282 281 280 279 279 277 277 276 274 274
292 293 293 293 293 292 292 292 292 293 293 293 291 290 289 290 290 289 286 285 284 284 283 283 283 283 283 282 282 281 281 281 283 284 283 282 281 280 279 278 277 276 275 274
293 292 291 292 292 292 292 291 291 292 292 292 290 290 289 289 289 288 288 286 284 283 283 283 283 283 283 283 283 283 282 282 283 283 282 282 282 281 280 279 277 277 275 274
292 292 291 291 291 290 291 291 291 291 291 291 290 290 290 290 289 288 288 285 283 283 283 282 282 282 282 283 283 283 283 282 282 282 282 282 281 281 281 280 279 277 276 275

GFSNGP_850_thetae_006.txt.gz
Theta_e
311 311 311 313 314 313 312 312 315 314 312 312 309 307 312 312 312 312 311 310 309 309 306 303 304 303 301 303 301 299 298 297 296 296 296 294 293 293 293 294 294 294 293 292
311 311 311 312 312 312 312 312 311 312 312 310 309 312 312 311 311 311 310 308 306 302 302 302 300 300 302 301 298 298 298 297 296 295 295 295 294 293 293 292 292 291 291 290
308 308 307 307 308 310 311 310 310 310 309 308 310 310 310 310 311 310 308 305 305 303 300 300 301 302 300 298 297 297 297 295 292 292 292 291 291 291 291 290 289 288 288 287
306 310 314 310 310 309 309 308 308 307 306 309 311 310 309 310 310 308 306 303 300 300 302 302 302 299 298 298 297 296 295 294 292 292 291 290 289 288 287 287 287 286 286 285
313 313 310 312 310 311 309 308 308 308 310 311 310 309 309 309 306 303 302 299 300 301 303 301 297 297 298 297 295 293 292 292 291 290 289 288 286 286 286 286 286 285 285 284
308 312 314 309 307 308 310 309 310 311 311 310 309 308 309 304 303 300 299 299 301 302 298 296 296 298 297 295 293 292 292 292 290 289 287 286 286 286 285 285 285 284 284 283
312 311 308 306 307 309 312 310 310 310 310 309 306 306 302 300 299 298 299 301 301 297 296 295 297 296 295 294 293 292 292 290 288 286 286 285 285 285 284 284 284 283 282 282
305 308 308 307 310 311 310 311 310 310 308 308 306 303 301 299 299 298 299 301 300 296 295 296 296 296 294 293 292 291 290 288 286 286 286 285 285 284 284 284 284 282 282 282
310 307 307 309 311 311 310 310 309 308 306 305 302 301 300 298 299 300 300 301 299 298 295 296 295 293 292 292 292 290 289 287 286 287 286 286 285 285 284 284 283 282 281 280
309 309 311 312 311 310 310 309 307 305 304 302 298 298 299 299 300 299 301 300 299 298 296 294 292 292 292 292 291 290 287 287 287 287 287 286 285 285 284 283 281 280 279 279
309 311 311 311 310 309 307 306 306 302 300 299 299 299 298 299 297 298 299 298 298 297 295 293 292 293 292 291 290 288 287 287 287 287 287 286 285 285 283 282 281 280 279 278
311 311 311 311 310 308 306 304 301 298 298 297 297 298 298 297 296 296 296 296 297 296 295 294 294 292 291 290 290 289 288 287 287 287 287 286 284 284 282 281 280 279 278 277
311 311 309 309 307 304 302 297 298 297 296 297 297 298 297 296 295 295 295 296 295 294 294 292 292 291 290 289 289 288 287 287 288 287 286 285 283 282 281 281 279 278 277 277
308 307 308 306 303 298 298 296 294 295 294 293 293 294 294 295 295 294 294 294 294 293 290 290 290 288 288 287 287 287 287 287 287 287 285 283 283 282 280 279 278 278 277 277
306 306 306 302 299 296 296 296 294 293 292 292 293 294 294 294 292 291 292 292 293 289 289 290 289 288 287 287 288 288 287 287 286 285 284 283 282 280 279 278 278 277 277 276
304 302 300 297 297 297 297 295 294 292 292 293 293 293 292 292 291 291 292 292 288 289 290 288 287 288 287 286 286 285 285 286 285 284 283 282 281 280 279 278 278 277 276 276
301 298 298 297 296 296 296 295 294 293 292 293 293 294 294 293 292 290 291 288 289 290 288 287 288 286 285 285 285 285 285 285 285 283 283 282 280 280 279 278 277 277 276 275
297 296 295 295 295 295 295 295 294 293 293 293 294 294 293 293 292 291 290 289 290 288 288 288 286 285 284 284 283 283 285 285 284 283 283 281 280 279 278 277 277 276 275 275
295 293 292 292 293 294 294 295 294 294 293 293 293 294 293 293 292 290 289 289 289 288 287 286 285 284 284 283 284 284 284 283 283 282 282 281 280 279 278 277 277 276 275 274
291 292 292 293 293 292 292 292 292 293 292 293 293 293 292 291 290 290 289 289 288 287 286 285 284 283 283 283 284 284 282 282 281 281 281 281 280 279 278 277 276 276 275 274
292 293 292 291 292 292 292 293 293 293 293 293 293 293 291 291 291 289 289 289 288 287 286 285 284 283 283 282 283 283 282 282 282 281 281 281 280 280 279 278 277 276 275 274
293 292 292 292 292 292 292 293 293 293 293 292 293 292 292 291 290 289 289 289 288 286 285 284 283 283 282 281 283 283 282 282 281 281 281 281 281 280 279 278 277 276 275 274
292 292 292 292 292 292 292 292 292 292 292 292 293 292 292 291 289 289 289 289 288 285 284 283 283 283 282 282 281 282 282 281 281 280 282 282 281 281 279 279 277 277 275 274
292 292 292 292 292 292 291 291 291 291 291 292 292 292 291 290 289 289 290 288 287 285 284 283 283 282 283 282 281 281 281 281 281 281 283 283 282 281 281 279 278 277 276 274
292 292 292 291 291 291 290 290 290 291 291 290 291 291 291 289 289 289 289 288 287 285 284 283 283 282 282 282 282 282 283 281 281 282 282 282 282 282 281 280 279 278 276 275
292 291 291 291 291 290 290 290 290 290 290 290 290 290 290 289 289 288 288 287 287 285 283 283 282 282 282 282 282 282 282 282 282 282 282 282 281 281 281 281 280 279 277 276
292 291 291 291 291 290 290 290 290 290 290 290 290 290 290 289 289 289 289 288 286 284 283 282 282 281 281 281 281 282 282 282 282 282 281 281 281 281 281 280 280 279 278 277

GFSNGP_850_thetae_009.txt.gz
Theta_e
313 313 313 314 314 314 315 316 316 316 315 315 313 312 310 311 310 310 310 310 308 306 305 302 300 300 301 302 300 298 296 297 296 296 295 295 293 293 292 291 291 291 290 290
313 311 311 312 312 312 313 314 314 315 315 313 311 310 311 310 310 309 308 307 304 300 300 299 301 302 301 298 297 297 296 296 295 294 292 291 290 290 290 289 288 288 288 288
312 309 310 312 309 311 312 312 312 313 312 309 310 311 311 310 308 307 303 303 302 299 298 300 302 300 296 296 298 297 294 294 292 291 291 290 289 289 287 286 286 286 286 286
314 311 315 313 310 310 311 311 310 309 309 309 310 310 309 306 305 303 303 301 299 298 300 302 298 296 295 297 296 295 293 292 292 292 290 289 287 286 286 285 285 285 285 284
313 314 313 313 312 310 311 311 309 311 310 310 311 310 307 304 303 303 301 299 298 300 301 297 295 295 296 296 295 293 292 292 292 290 288 286 286 285 285 285 285 284 284 283
311 315 316 312 308 308 309 313 310 310 311 311 310 310 309 304 304 300 298 298 299 301 299 297 295 295 296 295 295 293 292 292 291 288 286 286 286 285 285 285 284 284 284 283
312 313 313 309 308 308 314 314 311 310 310 309 307 304 304 302 301 298 299 299 300 300 299 298 296 295 294 295 294 294 291 291 290 287 286 286 286 286 285 285 284 284 283 282
307 310 311 307 309 312 312 311 309 309 307 304 304 302 300 299 299 299 298 298 300 300 299 298 297 294 292 291 291 291 291 290 288 287 286 287 287 286 285 285 284 283 282 281
310 311 307 308 309 310 310 309 308 307 306 304 302 299 299 299 298 298 296 296 297 299 297 297 297 293 291 290 291 292 291 290 287 287 287 287 287 286 285 284 283 281 281 280
310 311 310 311 311 310 309 307 306 305 302 300 299 299 297 296 297 297 296 295 295 295 296 296 296 293 292 292 292 291 290 289 287 287 287 287 286 285 284 282 281 280 280 279
309 311 310 310 311 311 308 306 303 298 298 298 297 296 296 297 297 296 295 295 294 294 296 296 295 294 293 292 292 290 289 288 288 287 287 287 286 284 283 282 281 279 278 278
312 311 310 310 307 307 305 299 298 298 295 294 294 294 295 296 295 294 294 294 292 292 294 293 293 292 290 290 289 289 289 288 287 287 287 286 284 283 282 281 280 278 278 277
311 309 306 307 307 300 298 298 296 295 295 293 293 293 293 293 293 293 293 291 291 291 291 292 290 289 290 288 287 287 287 287 287 287 286 285 283 283 282 281 279 278 277 277
307 307 306 304 301 298 296 295 296 296 297 294 292 292 292 293 293 292 292 292 291 291 291 289 289 289 288 287 287 287 287 286 286 286 285 284 283 282 280 279 278 278 277 276
305 306 305 299 297 296 297 297 296 295 294 294 293 292 292 293 293 293 293 291 290 291 288 289 289 288 287 287 285 285 284 285 285 285 284 283 283 281 280 279 278 277 277 276
300 300 298 297 298 296 295 295 294 295 294 294 293 293 292 293 293 293 293 292 291 289 289 289 288 287 286 285 284 284 283 285 285 284 284 283 282 281 280 278 277 277 276 275
298 297 295 295 294 293 293 294 295 295 295 295 294 293 292 292 293 293 292 291 290 288 289 288 288 287 285 284 283 283 283 284 284 284 283 282 281 281 280 278 277 277 275 275
293 292 292 292 292 292 292 292 292 292 292 292 292 292 292 293 292 292 290 289 289 289 289 288 287 286 284 283 282 282 283 283 283 283 282 281 281 280 280 278 277 276 275 275
291 291 291 292 292 292 291 291 292 292 292 292 292 293 292 292 292 291 291 290 288 289 288 287 286 284 283 282 282 283 283 282 282 281 281 281 281 280 280 279 277 276 275 275
291 291 292 292 291 291 291 291 292 292 292 292 293 292 292 292 292 291 290 289 289 288 288 286 285 284 282 282 282 283 282 282 282 281 281 281 281 281 280 279 278 277 276 275
292 292 292 292 291 291 291 292 291 292 292 292 292 292 292 292 291 291 290 289 289 288 287 285 283 283 282 282 281 282 282 282 281 281 281 281 281 281 281 280 279 278 276 275
292 292 292 292 292 292 291 291 291 291 291 291 291 291 291 292 291 291 290 289 289 288 286 284 283 283 282 282 282 281 281 281 281 281 281 281 282 282 281 280 279 278 277 275
292 292 292 292 292 291 291 291 291 290 290 290 290 289 290 291 291 290 289 289 289 288 286 285 284 282 282 282 282 281 281 281 281 281 281 282 282 282 282 281 280 278 277 276
292 292 292 291 291 291 291 291 290 290 289 290 289 289 289 290 291 290 289 289 287 287 286 285 284 282 282 283 282 281 281 282 282 281 282 282 282 282 282 281 280 280 278 277
293 292 292 291 291 290 291 290 289 290 290 290 289 289 289 289 290 289 289 289 288 287 286 285 283 282 282 282 282 282 282 282 282 282 282 281 281 281 281 281 280 280 279 278
292 291 291 291 291 290 290 290 289 289 289 289 289 289 289 289 289 288 288 287 287 287 286 284 283 282 282 281 281 282 282 282 282 282 282 281 281 281 281 281 280 280 279 279
291 291 291 291 290 289 289 289 289 290 290 290 289 289 289 289 289 289 288 288 288 287 285 283 283 282 281 281 281 281 282 282 282 282 282 282 281 281 281 281 280 280 279 279

GFSNGP_850_thetae_015.txt.gz
Theta_e
318 316 315 316 316 316 316 316 318 318 318 317 317 316 315 315 314 313 313 312 310 308 306 304 303 302 303 302 300 300 299 299 298 297 296 295 295 293 292 291 290 290 290 289
317 316 315 316 315 315 316 316 317 317 317 316 315 315 315 313 313 312 311 309 307 304 303 302 302 302 302 301 300 299 298 297 297 296 295 295 293 292 290 290 289 289 289 289
320 318 317 320 318 315 316 316 316 317 316 315 315 314 313 312 313 311 308 306 306 303 303 302 301 302 302 300 299 298 297 297 296 296 295 293 292 290 290 289 289 289 289 289
321 317 323 318 316 316 315 315 315 316 315 315 314 313 312 311 310 307 306 305 304 303 302 301 300 301 301 300 299 298 298 297 296 295 294 293 292 290 290 289 289 289 288 288
320 318 316 316 315 315 315 316 315 316 315 314 313 312 311 308 306 306 305 304 302 301 300 299 300 300 300 300 299 298 297 296 295 295 294 292 291 290 289 289 289 288 288 287
317 318 319 317 315 313 314 317 315 315 313 312 311 313 311 308 306 305 303 301 300 300 299 299 298 298 298 297 297 297 297 295 294 294 293 292 290 290 289 289 288 288 287 286
317 318 316 315 314 313 316 318 314 313 312 310 309 308 306 306 304 302 301 300 300 299 299 298 297 296 296 296 296 296 296 295 295 294 293 291 290 290 289 289 288 287 286 285
316 317 316 313 313 316 315 314 313 310 308 307 308 306 305 303 301 300 300 300 299 298 297 297 295 295 295 295 295 296 296 295 294 293 292 290 290 289 289 288 288 286 285 284
317 317 314 313 313 314 314 313 311 308 308 307 305 304 302 300 300 299 299 298 297 296 296 295 294 294 293 294 294 294 293 292 293 292 291 290 290 289 288 287 286 285 284 284
316 314 313 313 313 313 312 310 308 306 306 303 303 301 299 299 299 298 297 296 295 295 295 294 294 293 293 293 292 292 292 292 291 291 290 289 289 288 287 286 285 284 283 282
317 315 313 313 312 311 310 308 307 305 303 302 300 299 299 298 297 296 295 295 295 295 294 294 294 293 292 292 291 290 290 289 289 290 289 289 288 287 286 285 284 282 281 279
317 314 314 313 311 309 309 307 304 303 301 300 300 298 297 296 295 295 295 294 294 294 294 294 293 292 291 291 289 288 288 289 289 289 288 287 287 286 285 284 283 282 281 280
314 313 311 309 308 308 306 304 301 300 300 299 297 296 296 296 295 295 295 294 294 294 294 293 292 290 290 289 288 287 286 286 286 287 286 286 286 285 284 284 283 282 281 280
309 309 307 307 306 304 302 301 300 299 297 296 296 296 295 295 294 294 294 294 293 293 293 292 291 290 289 288 287 286 285 285 286 286 286 285 284 284 283 283 283 283 281 280
306 306 308 306 303 302 301 298 297 296 296 295 294 294 294 293 294 293 293 293 292 291 291 291 290 290 288 287 286 285 284 285 285 285 285 284 283 283 283 283 283 282 281 281
305 304 303 301 300 298 296 296 296 295 294 293 293 293 293 293 293 293 293 292 291 291 291 290 289 288 287 286 286 286 286 285 284 284 284 284 284 283 283 282 282 282 281 280
303 301 299 297 296 296 296 295 294 293 293 293 293 291 291 292 292 292 291 291 291 291 291 289 289 287 287 285 285 285 285 285 284 283 284 283 283 283 282 282 282 281 281 279
298 296 295 295 295 295 295 294 294 293 293 292 291 291 291 291 291 291 290 290 291 290 290 289 288 288 287 285 284 284 283 284 284 284 284 283 283 283 282 282 281 281 280 280
295 295 295 295 295 295 294 293 293 292 291 291 291 291 291 290 290 290 289 290 291 290 290 289 288 288 286 284 283 283 283 283 284 284 284 283 283 283 282 282 281 280 280 279
294 294 294 294 293 292 291 291 292 291 291 291 291 290 290 290 289 289 289 289 291 291 290 289 288 287 285 283 283 283 283 283 283 283 283 283 283 283 282 282 281 281 280 280
291 291 291 291 292 292 291 292 291 291 290 290 291 290 290 290 290 289 289 290 290 290 289 289 288 286 286 285 284 283 283 283 283 283 284 283 283 283 283 282 282 281 280 280
292 292 291 291 292 292 292 291 291 291 290 290 290 290 289 290 290 289 289 290 289 289 289 289 288 286 285 285 284 284 283 283 283 283 283 283 283 282 283 282 282 281 280 280
290 291 291 291 292 292 291 291 291 290 290 290 290 289 289 289 289 290 289 289 289 289 289 288 287 286 286 285 284 284 284 283 283 283 283 283 283 282 282 282 281 281 280 279
291 292 291 292 292 292 291 292 292 291 290 289 289 290 288 288 289 289 289 288 289 288 288 288 287 287 286 285 284 284 283 283 283 283 283 283 283 282 281 282 281 281 280 280
291 291 291 292 293 292 293 293 292 292 291 290 289 289 288 288 288 289 288 288 288 288 288 288 287 287 286 285 284 283 283 283 282 283 282 282 282 283 282 281 281 281 281 280
292 293 293 293 293 292 293 293 292 291 290 289 289 289 288 288 288 288 288 288 288 288 288 288 288 287 287 285 284 283 282 282 282 282 282 282 282 282 282 282 282 281 281 280
293 293 293 293 293 293 293 292 291 290 289 288 289 288 288 288 287 287 288 289 288 288 288 288 288 287 286 285 284 283 282 282 281 281 282 282 282 282 282 282 282 281 281 280

GFSNGP_850_thetae_018.txt.gz
Theta_e
318 316 316 316 316 316 316 317 318 318 317 317 317 317 316 315 314 314 313 313 311 309 307 305 304 303 303 302 303 301 300 299 298 298 297 297 296 295 294 292 290 290 290 290
319 317 316 315 315 315 316 316 316 317 317 317 316 315 315 314 313 314 312 310 308 307 306 304 304 303 302 301 302 302 300 300 299 298 297 296 295 294 293 291 290 290 289 289
322 317 317 323 320 316 316 316 316 318 317 316 316 315 314 313 313 312 309 307 307 305 305 303 301 300 300 300 300 301 301 300 299 298 297 296 295 293 292 291 290 289 289 289
321 318 321 317 315 316 316 316 315 315 317 316 314 313 312 311 309 308 307 306 305 304 302 301 300 300 299 298 298 298 298 298 298 297 296 296 295 293 291 290 290 289 289 288
321 319 316 316 317 316 315 316 315 317 316 314 312 311 311 310 308 307 306 305 303 301 300 300 300 299 298 297 296 296 297 297 297 297 295 295 294 293 290 290 289 289 289 288
316 319 318 318 316 315 314 317 316 315 315 312 311 312 311 307 306 305 303 301 300 300 300 299 298 297 296 295 295 295 296 296 296 296 295 294 294 291 290 290 289 289 288 288
318 317 317 315 315 314 315 318 315 314 313 311 310 309 306 306 305 302 300 300 300 299 298 297 297 296 295 294 294 294 294 295 294 293 293 293 291 290 290 290 289 288 288 286
317 317 317 314 314 315 316 314 315 313 310 309 309 307 305 303 301 300 300 299 298 297 296 296 295 295 294 294 294 294 293 292 292 292 293 292 291 290 290 289 288 287 286 284
318 318 315 315 314 314 314 314 312 310 309 308 307 304 303 300 300 299 298 297 296 296 295 295 295 295 294 294 293 292 291 291 291 291 291 291 290 289 288 288 287 286 284 283
319 316 314 315 314 313 312 311 309 308 307 307 304 303 300 300 299 297 297 296 295 295 295 295 295 294 294 293 292 291 290 290 290 290 290 290 289 288 288 287 286 285 283 282
317 316 315 315 314 312 310 309 307 307 305 303 302 301 300 298 297 297 296 296 295 295 294 294 294 294 293 292 291 290 289 289 289 290 289 289 288 288 287 286 285 284 283 282
318 315 315 315 312 310 309 308 307 304 302 301 301 298 297 297 296 296 295 295 294 294 294 294 294 293 292 291 290 288 288 287 287 287 287 287 287 286 285 284 284 283 283 282
314 314 313 311 310 309 307 306 303 302 301 298 297 297 296 295 294 294 294 294 294 294 294 293 292 292 291 291 289 288 287 286 285 286 286 286 285 285 284 284 283 283 283 282
312 311 310 309 308 306 304 303 301 299 297 297 296 295 294 294 294 294 294 294 294 294 293 291 292 291 291 290 288 287 286 285 285 286 285 285 285 284 283 283 283 283 283 282
309 309 309 308 307 304 302 300 297 297 296 295 294 294 294 293 293 293 293 292 293 292 291 291 290 290 289 289 288 287 286 286 285 285 285 285 284 284 283 283 283 282 282 281
308 307 308 305 302 300 298 297 297 296 295 294 294 293 292 291 291 291 291 291 290 290 290 290 290 290 288 287 287 286 286 286 285 284 284 284 284 283 283 283 282 282 282 281
306 304 301 299 298 297 297 296 295 294 293 293 292 291 291 291 291 290 290 290 289 289 290 290 290 289 287 287 287 286 286 285 284 284 284 284 283 283 283 282 282 282 282 281
304 301 297 297 296 296 296 295 293 293 292 291 291 290 291 291 290 290 290 290 289 289 290 291 290 289 288 288 286 285 284 283 283 284 284 284 283 283 282 283 282 282 282 281
297 296 296 296 296 295 294 292 292 291 291 291 290 290 290 290 290 290 290 290 289 289 290 290 290 289 288 287 283 283 283 283 283 283 283 284 284 283 283 283 283 282 281 281
295 295 295 294 292 291 291 291 291 291 291 291 291 290 290 290 290 289 290 290 290 290 290 290 290 289 288 286 284 283 283 283 283 283 284 284 284 283 283 283 283 282 282 281
292 292 291 291 291 291 291 291 291 291 291 291 290 290 290 290 289 289 289 289 289 290 290 289 289 289 288 286 286 285 284 284 283 283 284 284 284 284 283 283 283 282 282 281
293 292 291 290 291 291 291 291 291 291 291 291 291 290 289 290 289 289 289 289 290 289 289 289 289 288 287 286 286 285 284 284 284 283 283 284 284 284 283 282 282 282 282 281
291 291 291 291 291 291 291 292 291 291 291 291 291 290 289 289 289 288 288 289 289 288 288 288 288 288 287 286 286 285 284 284 283 283 283 283 283 283 283 282 282 281 281 280
291 291 291 292 291 291 291 292 292 293 292 292 291 290 290 290 289 288 288 288 288 288 288 288 288 288 287 287 286 286 284 284 283 283 283 283 283 283 283 283 282 281 281 280
291 291 291 292 293 293 293 293 293 293 293 292 290 290 290 289 289 288 287 287 287 288 288 288 288 288 287 287 287 286 285 284 283 282 282 282 282 282 283 283 283 282 281 280
292 293 293 293 293 293 293 293 292 292 293 291 291 290 289 288 288 288 288 287 287 287 288 288 287 288 288 287 287 286 285 284 283 282 282 282 281 281 282 282 282 282 282 281
292 292 293 293 293 292 292 292 293 292 292 291 290 289 288 287 287 287 288 287 287 287 287 288 288 288 288 287 287 286 285 284 283 282 282 281 282 282 281 281 281 281 281 281

GFSNGP_850_thetae_021.txt.gz
Theta_e
317 315 315 314 314 313 314 313 313 312 316 316 314 313 314 314 313 313 312 311 309 307 306 305 304 303 302 301 300 300 301 301 301 300 300 298 297 298 296 294 293 290 290 290
315 316 314 314 313 314 314 315 315 314 316 315 314 313 311 313 312 311 309 308 307 306 305 304 302 301 301 300 299 298 297 296 297 299 299 298 297 296 295 293 291 290 290 289
315 314 313 312 315 315 315 315 315 314 315 313 311 311 312 310 310 308 307 306 304 304 303 302 301 300 299 298 298 296 296 295 297 296 296 296 296 296 294 292 290 290 289 289
308 306 305 316 314 314 314 314 313 314 313 311 311 311 310 309 308 308 307 305 304 303 300 300 299 299 298 297 296 295 294 294 295 294 295 294 294 295 293 292 290 290 289 289
308 311 311 315 316 314 314 313 315 314 313 311 310 310 308 308 306 304 303 302 300 300 299 298 297 297 296 295 295 294 294 294 294 293 292 292 293 294 293 289 290 290 289 288
309 306 305 311 314 314 314 310 315 314 311 310 310 304 306 307 305 305 301 300 299 298 297 296 296 295 295 295 294 294 294 293 293 291 291 292 292 290 290 290 289 289 288 288
304 302 308 312 314 314 311 309 315 313 312 310 308 308 308 306 304 301 300 299 297 296 296 295 295 295 295 294 294 294 294 293 291 290 291 292 292 291 290 290 289 288 288 286
309 311 309 313 313 310 310 314 314 312 310 308 307 306 305 302 301 300 299 297 296 296 295 295 295 295 295 294 294 294 293 291 290 290 290 291 291 290 289 288 288 288 287 285
309 308 310 314 314 314 314 314 311 310 308 307 306 306 302 301 300 298 297 296 296 296 295 295 294 294 294 294 293 293 291 290 289 289 289 290 290 289 288 288 287 287 285 284
312 314 315 314 314 314 314 313 310 308 305 305 306 303 301 299 297 297 296 296 295 294 294 294 294 294 293 293 292 291 290 289 288 289 289 289 289 288 287 287 287 285 284 283
310 313 314 314 314 312 310 310 309 306 306 303 302 300 297 297 296 295 295 294 294 294 294 294 294 294 293 292 291 291 290 289 287 287 287 287 287 286 287 286 285 284 283 283
308 314 314 312 312 311 310 310 306 306 302 301 298 297 296 296 295 294 294 293 293 293 293 294 294 293 292 291 291 291 290 288 286 285 285 286 286 285 285 284 283 283 283 282
314 314 314 313 311 309 308 306 304 302 301 297 297 296 295 294 294 293 292 291 292 292 292 292 292 290 291 291 290 290 288 288 286 285 285 285 285 284 283 283 283 283 283 282
312 312 310 309 308 306 306 303 302 298 297 296 296 295 294 293 292 291 291 291 291 290 291 290 291 290 290 290 289 289 288 286 286 285 284 284 284 284 283 283 283 282 282 282
311 311 310 308 307 304 303 299 297 297 296 296 294 293 292 291 290 290 290 290 290 290 290 289 290 290 289 290 287 287 287 286 286 285 284 284 284 283 283 283 282 282 282 282
309 308 306 305 306 299 298 297 297 296 295 294 291 291 291 290 290 290 290 290 290 290 290 289 289 290 289 289 287 287 286 286 285 285 284 283 283 283 283 283 282 282 282 281
308 308 306 299 298 297 297 297 296 295 292 291 291 291 290 290 290 290 290 290 290 290 289 289 289 290 289 288 287 287 286 285 285 284 284 284 283 283 283 282 282 282 282 281
305 302 299 298 297 296 296 296 294 291 290 291 291 291 290 290 290 290 290 290 289 290 289 289 289 289 289 289 288 287 284 284 284 283 283 283 283 283 283 282 283 282 282 281
298 297 296 296 296 295 293 291 291 291 290 291 291 291 290 290 290 290 290 289 288 289 289 289 290 289 289 288 287 286 284 283 282 283 283 283 283 283 283 283 283 282 282 282
296 295 295 293 292 291 290 290 291 290 291 291 291 290 290 290 290 288 288 288 288 288 289 289 289 290 289 288 287 286 285 284 283 283 283 283 283 283 284 283 283 282 282 282
294 294 293 291 290 290 291 291 290 291 291 290 290 291 291 291 290 289 288 288 288 288 289 289 287 288 288 288 287 286 285 285 285 284 283 283 283 283 283 283 283 282 282 282
294 292 291 291 291 291 291 291 290 291 291 291 291 291 291 291 290 289 289 289 288 288 288 288 287 287 287 287 286 286 285 285 285 284 283 283 283 283 283 283 282 282 281 281
293 292 291 291 291 291 291 291 291 292 291 292 292 292 291 291 290 290 289 289 288 287 287 287 287 287 287 287 287 286 286 286 285 284 283 283 283 283 283 283 283 282 281 281
292 291 291 291 291 291 292 292 292 293 293 293 292 292 291 291 290 289 289 288 288 287 287 287 287 287 287 287 288 287 287 287 286 285 284 283 283 283 283 282 283 283 282 282
291 291 291 291 292 292 292 292 292 292 293 293 292 292 292 290 289 288 288 287 288 287 287 287 287 287 287 287 287 287 287 287 286 285 284 283 282 282 282 282 282 282 282 282
291 291 292 292 292 292 291 291 292 292 292 292 292 292 292 290 288 287 287 287 287 287 286 287 287 287 287 287 288 288 287 287 286 285 284 284 283 282 281 281 281 281 282 282
292 292 291 291 291 291 291 291 291 291 291 292 292 291 289 288 287 286 286 286 286 286 286 286 287 287 287 287 287 287 287 287 286 285 284 283 283 282 281 281 281 281 280 280

GFSNGP_850_thetae_024.txt.gz
Theta_e
315 313 314 313 313 312 312 312 312 311 313 314 312 312 313 313 312 312 310 310 307 304 304 304 303 301 301 300 300 299 298 297 296 295 295 294 295 295 294 294 295 293 290 290
313 315 313 312 311 312 313 313 313 314 315 313 312 311 312 312 311 309 308 306 303 303 303 301 303 300 300 299 298 297 297 295 294 294 293 293 293 292 292 294 295 290 290 289
309 311 310 309 313 315 314 312 313 312 312 311 310 310 310 309 309 308 307 304 303 302 300 300 299 299 298 297 296 295 295 294 294 294 293 293 291 291 293 293 291 290 289 289
304 302 302 311 312 313 312 313 312 312 310 310 310 310 309 308 308 305 303 302 300 300 299 298 297 296 295 295 295 294 294 294 294 293 293 291 291 291 293 292 290 289 289 289
303 308 306 312 314 313 312 312 313 311 310 310 310 308 307 308 305 304 303 300 299 298 297 296 295 295 295 295 294 294 294 294 294 293 291 290 291 290 290 289 289 289 289 288
307 301 302 306 313 314 312 311 314 313 310 310 308 302 304 306 305 303 300 299 298 297 296 296 295 295 294 295 294 294 294 293 293 291 290 291 291 291 291 290 289 289 288 287
296 299 305 306 313 313 311 309 314 313 312 309 306 308 307 306 304 300 299 298 297 296 296 295 295 295 294 294 294 293 293 292 290 290 289 290 290 290 289 289 288 287 287 286
302 300 307 309 312 310 309 314 314 313 311 309 307 307 306 301 300 299 297 297 296 296 295 295 294 294 294 294 293 293 292 291 290 289 289 289 289 289 288 288 287 287 286 284
309 309 308 312 313 313 313 314 314 313 310 308 306 305 302 300 298 297 297 296 295 295 294 294 294 293 293 293 293 292 291 290 290 289 288 289 289 289 288 287 286 286 285 284
310 311 311 313 313 313 313 313 312 311 308 306 306 302 299 298 297 297 296 295 294 293 293 292 293 293 293 293 292 291 291 290 290 288 287 287 287 287 286 286 285 284 284 283
308 311 313 313 313 313 313 312 310 308 306 305 301 299 298 297 296 295 294 293 292 291 291 291 291 291 291 291 291 291 291 290 289 287 285 285 286 285 285 285 284 283 283 282
308 312 312 312 312 312 311 310 309 306 303 299 299 298 297 296 295 294 293 291 290 290 290 290 290 290 290 290 290 290 289 289 288 286 285 285 285 284 284 284 283 283 283 282
314 314 314 313 311 311 310 307 306 302 301 299 297 296 296 294 293 292 290 290 290 290 290 290 290 289 290 289 289 289 289 288 287 286 285 285 284 283 283 283 283 282 282 282
312 313 311 311 310 308 306 305 301 299 297 297 296 295 293 292 291 290 290 290 290 290 290 290 289 289 289 289 289 289 287 287 286 286 284 283 283 283 283 282 282 282 282 281
312 312 312 310 307 306 306 300 298 297 296 296 295 292 291 290 290 290 290 290 290 290 290 290 289 288 289 289 289 287 287 286 286 286 285 284 283 283 283 282 282 282 282 281
310 310 309 307 304 301 298 297 297 297 296 294 291 290 290 290 290 290 290 290 290 289 289 290 289 289 289 289 289 288 287 286 286 285 284 284 283 283 283 282 282 282 282 282
309 307 306 305 298 298 297 297 298 296 294 291 290 290 290 290 290 290 290 290 290 289 289 289 289 289 289 288 288 287 287 287 284 284 284 284 283 283 283 282 282 282 282 282
308 306 300 298 297 297 299 297 294 292 291 290 290 290 291 290 290 290 290 290 289 288 287 288 288 288 289 289 288 288 287 286 284 282 282 282 282 283 283 283 282 282 282 282
299 298 298 299 299 296 294 292 291 290 290 290 291 290 290 290 290 290 290 289 287 287 288 288 288 288 287 288 288 288 287 285 284 283 282 282 282 283 283 283 283 282 282 282
298 299 297 294 293 291 291 290 290 290 290 291 291 290 290 290 290 290 290 289 289 288 288 288 288 288 287 287 287 287 287 286 285 284 284 283 283 283 283 283 284 283 283 282
294 295 293 292 291 290 290 290 290 290 290 291 291 290 291 290 291 290 290 290 290 289 288 287 287 287 287 287 287 287 286 286 285 285 284 284 283 282 283 283 283 283 283 282
294 293 292 291 291 291 291 291 291 291 291 292 291 291 291 291 291 291 290 290 289 289 288 287 287 286 286 287 287 287 286 286 286 285 285 285 284 283 282 282 282 282 282 282
292 291 291 291 291 291 291 291 291 292 292 292 293 292 292 292 292 291 291 290 289 288 288 288 287 286 286 287 287 288 287 287 287 287 286 285 284 283 283 282 282 282 282 282
291 291 291 291 291 291 291 291 291 291 291 291 292 292 293 293 292 292 290 289 288 287 287 287 287 286 286 286 287 287 287 287 287 287 287 286 285 284 283 283 282 282 282 283
291 291 291 291 291 291 291 291 291 291 290 290 291 292 292 292 291 291 289 288 287 286 286 286 286 286 286 287 287 287 287 287 287 287 287 287 286 285 283 282 282 282 281 281
292 292 292 291 291 291 291 291 290 290 291 290 290 289 289 290 290 289 287 286 286 286 285 285 284 285 285 285 285 286 286 286 287 287 287 287 286 285 284 283 282 281 281 281
293 293 292 292 292 292 292 291 291 290 290 291 290 289 289 290 289 287 286 286 286 284 284 284 284 284 283 284 285 285 286 285 286 286 287 286 286 285 283 283 282 281 281 281

GFSNGP_850_thetae_027.txt.gz
Theta_e
312 312 312 312 312 311 312 311 311 310 311 311 311 310 311 311 311 310 310 309 306 303 302 302 302 302 301 300 299 298 297 295 295 294 294 293 293 293 291 291 293 293 293 291
313 312 311 312 310 309 309 310 311 312 313 311 312 312 312 311 310 310 309 306 303 303 303 302 300 300 299 298 296 296 295 294 294 293 293 293 293 291 291 291 292 292 291 289
305 308 307 305 308 311 312 311 311 312 311 310 309 310 311 311 310 309 308 304 302 301 300 299 298 297 296 295 295 295 294 294 293 294 293 293 291 290 291 292 291 290 289 289
302 301 302 308 309 311 311 312 312 311 310 310 310 310 310 310 309 308 304 302 300 299 298 297 296 296 295 295 294 294 294 294 293 293 292 291 290 290 290 290 289 289 289 288
302 305 305 309 312 311 311 310 310 310 308 310 309 309 308 309 307 304 303 301 299 298 297 296 296 296 295 294 294 294 294 293 293 292 291 290 290 291 290 290 290 289 289 288
304 300 300 305 311 312 311 310 312 311 309 308 308 303 304 308 305 304 300 299 298 297 296 296 296 295 294 294 294 293 293 293 292 290 290 289 289 290 290 290 289 289 288 287
295 298 304 304 311 312 310 306 313 313 311 309 306 308 308 306 305 302 299 298 297 296 296 295 295 294 294 293 293 293 293 292 290 290 290 289 289 289 289 289 289 287 287 286
304 302 309 307 310 310 309 310 314 314 313 311 310 308 307 305 300 299 297 297 296 296 295 293 293 292 292 292 292 292 292 291 290 290 289 288 288 289 288 288 287 287 285 284
307 308 307 309 311 313 312 312 314 314 313 312 309 307 305 300 300 298 297 296 295 294 293 292 291 291 291 291 291 291 291 291 290 290 289 287 287 288 287 287 286 285 284 283
308 309 309 310 311 312 312 312 313 313 312 309 307 304 303 301 297 296 296 295 293 292 291 290 290 290 290 290 290 290 291 290 290 289 288 286 285 286 286 285 285 284 283 283
306 308 312 313 312 313 313 313 312 311 309 307 306 304 299 297 296 295 294 293 291 290 290 290 290 290 290 289 290 289 289 289 289 288 287 285 285 285 284 284 284 283 283 282
308 311 312 312 313 313 313 312 310 309 307 306 305 299 297 296 295 294 292 291 290 290 290 290 290 290 289 289 289 289 288 288 288 288 286 285 285 284 284 283 283 283 282 282
312 313 312 313 313 312 312 310 309 307 306 300 297 297 296 295 293 291 290 290 290 290 290 289 290 289 289 289 289 288 288 287 287 286 286 285 284 283 283 282 282 282 282 282
312 313 312 312 312 311 310 309 306 302 300 297 296 296 294 291 290 290 290 290 290 290 289 289 289 289 289 288 288 288 288 287 286 286 285 285 283 283 282 282 282 282 282 281
313 312 312 312 310 310 308 304 298 299 298 296 295 293 291 290 290 290 290 290 290 289 289 289 289 289 289 288 288 288 287 286 286 285 285 285 284 283 282 282 282 282 282 281
311 311 311 311 309 307 302 299 299 297 295 295 292 291 290 290 290 290 290 290 290 290 290 289 289 288 289 288 288 288 288 287 286 285 285 284 284 283 283 282 282 282 281 282
310 308 307 301 299 299 298 298 296 296 297 292 291 290 290 290 290 290 290 290 290 290 289 288 288 287 288 288 287 287 287 287 286 284 283 282 282 282 283 283 283 282 282 282
308 307 302 301 299 297 296 296 297 295 291 290 290 290 290 290 290 290 290 290 290 290 289 288 288 287 288 288 287 287 287 287 287 284 283 282 282 282 282 282 282 283 282 282
301 300 299 297 296 297 298 294 291 290 290 290 290 290 290 290 290 290 290 290 290 290 289 289 288 287 287 287 287 286 287 287 286 285 284 284 283 282 282 282 283 282 282 282
299 299 298 298 295 291 290 290 290 290 290 290 290 290 290 290 290 290 290 290 290 290 290 289 288 287 286 286 286 286 286 286 286 286 285 285 284 283 283 282 282 283 283 283
294 295 294 292 291 291 290 290 290 290 290 290 291 291 291 291 291 291 291 291 291 290 290 289 288 288 287 286 286 286 286 286 286 286 285 285 285 285 284 283 282 282 282 282
293 292 291 291 291 290 290 291 291 291 291 291 291 292 292 292 292 292 292 292 292 291 290 289 288 287 287 286 286 286 286 286 286 286 286 286 286 286 285 285 283 282 282 282
292 291 291 291 291 291 290 290 291 291 291 291 291 291 291 291 291 292 292 292 292 290 289 288 287 286 286 287 286 286 286 286 287 287 287 287 287 287 286 286 284 283 282 282
292 291 291 291 291 291 291 290 290 290 290 290 290 290 290 290 290 289 289 291 291 289 287 286 286 286 286 285 285 285 286 286 286 286 287 287 287 287 287 286 285 284 283 282
292 292 292 292 291 291 291 291 291 291 291 291 291 290 290 290 290 289 290 290 289 287 286 286 285 283 283 283 284 285 284 284 285 285 285 286 286 286 286 286 285 284 283 282
293 293 293 293 293 293 292 292 292 291 291 291 291 291 290 289 289 289 289 289 288 286 286 285 284 284 284 284 284 283 283 283 283 284 284 285 285 286 286 286 285 284 283 281
291 291 291 291 291 291 290 290 289 289 288 288 289 289 289 288 288 288 288 287 286 286 285 284 284 283 283 283 283 283 283 283 284 283 284 285 285 285 286 285 284 283 282 281

GFSNGP_850_thetae_030.txt.gz
Theta_e
312 311 311 311 310 312 312 310 311 310 309 308 310 309 311 311 311 310 310 310 309 306 303 303 302 301 300 299 298 296 295 294 294 294 293 293 293 291 290 290 291 291 291 291
314 311 309 312 310 308 309 309 309 310 309 307 311 312 310 310 310 310 310 309 306 303 303 303 300 299 299 297 296 295 294 294 294 293 293 292 291 290 290 290 290 290 290 289
308 306 305 305 308 308 308 309 308 310 309 309 309 310 310 310 310 310 310 309 305 303 301 300 299 297 296 296 295 294 294 294 293 293 292 291 290 290 290 290 290 289 289 289
302 301 303 307 308 308 309 309 308 310 309 309 310 310 311 312 311 310 309 306 303 301 300 298 297 296 295 295 294 294 293 293 293 292 291 290 290 289 290 290 289 289 289 288
301 303 304 308 309 310 310 310 309 309 308 309 309 309 309 310 310 309 307 303 302 299 297 296 296 295 295 294 293 293 293 292 292 291 290 290 290 289 289 290 290 290 289 288
299 301 300 305 307 311 310 310 309 310 308 308 308 305 307 310 309 308 305 303 300 298 297 296 296 295 293 292 292 292 292 291 291 291 290 290 289 288 289 289 289 289 288 287
296 298 303 303 309 310 310 308 310 312 311 308 306 310 311 311 309 306 304 299 298 297 296 296 294 292 291 291 291 291 291 290 290 290 290 290 289 288 289 289 288 288 287 286
302 299 308 306 310 310 310 309 312 313 313 312 312 310 309 308 305 304 299 299 297 296 295 294 292 291 290 290 290 290 290 289 290 290 290 289 288 288 288 288 287 287 286 285
306 307 307 308 310 312 311 310 312 312 313 312 311 309 307 306 301 299 300 296 296 295 293 291 290 290 290 290 289 289 289 289 290 289 289 288 287 286 286 286 286 285 285 283
307 308 307 309 310 311 311 312 312 312 313 312 311 308 304 298 302 300 296 295 295 293 291 290 290 290 289 289 289 289 289 288 288 288 288 288 286 285 285 285 284 284 283 283
305 307 309 311 312 312 311 311 312 312 313 312 310 306 302 305 298 296 295 294 292 290 290 290 289 289 289 289 289 289 289 288 288 288 288 287 286 285 284 284 283 283 283 282
306 309 310 310 312 313 313 313 312 312 311 308 306 306 304 296 296 295 293 291 290 290 290 290 289 289 289 289 289 289 288 288 287 287 288 287 285 284 284 283 282 282 282 282
310 310 312 312 312 313 313 312 311 310 308 306 303 300 297 297 295 292 291 290 290 290 290 289 289 289 289 289 289 288 288 288 287 287 286 286 285 284 283 282 282 282 282 282
312 311 312 312 312 312 311 310 308 306 301 300 298 296 295 293 291 290 290 290 290 290 289 289 289 289 289 289 288 288 288 287 287 287 286 285 285 285 283 282 282 282 282 282
312 311 311 311 311 310 309 308 302 297 298 297 296 294 295 292 290 290 290 290 290 290 290 290 290 289 289 288 288 288 288 287 288 287 286 285 285 284 284 283 282 282 282 281
310 310 310 310 308 304 301 296 299 298 295 293 297 296 291 290 290 290 290 289 290 290 290 290 289 289 288 288 287 287 287 287 287 287 286 285 284 284 284 283 283 283 282 282
308 304 303 300 298 297 299 298 295 294 297 295 292 290 290 290 290 290 289 290 290 290 290 290 289 289 288 287 287 287 287 286 287 288 286 285 283 283 282 282 282 283 283 283
303 300 299 298 298 296 296 297 298 295 293 291 290 290 290 290 290 289 290 290 290 290 290 290 290 289 288 287 287 286 286 286 286 287 287 286 284 283 282 282 282 282 282 282
299 299 298 298 297 295 295 294 293 291 290 290 290 290 290 290 290 290 290 290 290 290 290 291 290 290 289 287 286 286 285 285 286 286 286 286 285 284 283 283 282 282 282 282
298 295 293 292 291 291 290 290 290 290 290 290 290 290 290 291 291 290 290 290 291 291 291 291 291 290 289 287 287 287 286 285 285 286 286 285 285 285 285 284 284 284 283 282
295 293 292 291 291 291 290 290 290 290 290 290 290 291 291 291 291 291 291 291 291 292 292 292 291 290 289 287 287 287 287 286 285 286 286 287 286 286 286 286 286 285 284 283
292 292 291 291 290 290 290 290 290 291 291 291 291 290 290 290 290 290 290 290 290 291 291 291 290 289 288 287 286 285 286 286 286 286 286 286 286 286 286 286 286 286 286 285
292 291 291 291 291 291 290 291 291 291 290 290 290 290 290 290 290 290 290 290 289 289 290 289 289 287 286 285 285 285 285 285 284 285 285 285 285 286 286 286 286 286 286 286
292 292 292 292 291 291 291 291 291 291 291 291 291 291 291 291 291 290 290 290 288 289 289 289 287 286 285 283 283 283 283 283 283 284 283 284 284 284 285 285 286 286 286 285
292 292 292 292 292 292 292 292 291 291 291 290 289 289 288 289 289 289 289 289 288 288 288 287 286 285 285 284 283 283 283 283 283 283 283 284 284 283 284 285 285 285 285 285
292 291 291 290 289 288 287 286 285 285 285 285 285 285 286 286 287 288 288 287 287 287 287 286 285 285 284 283 282 282 282 282 283 283 283 283 283 283 284 285 285 285 285 284
288 287 286 286 285 284 284 283 283 283 283 283 282 283 284 285 285 286 286 286 286 286 286 285 285 284 283 282 281 281 281 281 282 282 283 283 283 283 284 285 285 285 284 284

GFSNGP_850_thetae_033.txt.gz
Theta_e
312 312 311 311 313 313 313 313 317 313 312 312 312 315 313 311 311 311 310 310 310 309 307 304 305 304 301 299 298 296 296 294 294 294 293 293 292 290 290 290 290 290 290 290
314 311 310 312 311 311 312 311 312 311 312 310 310 310 311 311 310 309 309 309 309 307 304 303 303 300 299 297 296 296 294 293 294 293 293 292 290 290 290 290 290 290 289 289
313 307 307 312 312 312 310 310 313 313 314 312 312 310 311 310 310 310 310 310 308 305 303 301 300 298 297 296 296 294 293 293 293 293 292 291 290 290 290 289 290 290 289 289
310 305 310 311 309 309 311 311 309 310 310 312 311 311 311 311 311 311 310 309 308 305 302 300 299 297 296 296 294 292 292 293 293 291 291 290 290 290 289 289 290 290 290 289
313 309 307 308 306 310 312 312 310 310 310 309 309 310 310 312 311 311 311 310 307 303 300 298 297 296 296 294 292 291 292 291 291 290 290 290 290 290 289 289 289 289 289 288
305 310 310 308 306 310 310 315 309 310 309 309 309 315 314 312 312 311 309 308 303 300 298 296 296 296 294 292 291 290 290 290 290 290 290 290 290 289 288 288 289 289 289 288
302 311 309 306 306 309 314 314 308 310 310 309 311 312 311 312 310 309 307 304 300 297 296 296 296 294 292 290 290 290 290 289 289 289 290 290 289 289 288 287 288 288 288 287
304 309 314 305 310 314 312 309 310 311 312 311 311 311 310 310 309 306 304 299 297 298 296 296 294 291 290 290 290 290 289 289 289 289 289 289 289 288 287 286 287 286 286 285
310 313 307 307 311 311 311 310 310 311 311 311 310 309 309 308 306 303 297 302 299 296 295 293 291 290 290 289 289 289 289 289 289 288 288 288 288 288 287 285 286 285 285 284
309 309 307 308 309 310 310 310 311 311 312 312 311 309 307 304 299 300 303 296 297 296 293 290 290 290 289 289 289 289 289 289 289 288 287 288 287 287 286 285 285 284 284 283
308 309 309 310 310 311 311 312 311 310 311 312 311 308 305 299 304 302 296 297 295 292 290 290 290 289 289 289 289 289 289 289 288 288 287 287 287 287 286 285 284 283 283 282
312 309 308 309 311 312 312 313 312 311 311 310 308 305 301 303 297 296 299 294 291 290 290 290 289 289 289 289 289 289 289 288 288 287 287 287 286 286 285 284 283 283 282 282
309 310 310 311 312 312 312 312 311 310 308 307 302 301 297 296 298 296 293 290 290 290 290 289 289 289 289 289 289 289 288 288 287 287 287 287 286 285 285 284 284 282 282 282
311 311 311 310 310 310 310 309 307 305 302 300 299 298 296 297 296 291 290 290 290 290 289 289 289 289 289 289 289 288 288 288 288 287 287 288 286 285 285 284 284 283 282 282
308 309 309 309 308 306 304 302 300 297 298 296 293 295 295 295 291 290 290 290 290 289 289 289 289 289 289 289 289 288 287 287 287 286 286 287 287 285 285 285 284 283 283 282
306 306 305 303 299 297 298 297 297 296 297 296 294 294 292 291 290 290 290 290 289 289 290 289 289 289 289 289 288 288 287 287 286 286 286 286 287 286 285 283 283 283 282 282
305 299 299 298 298 298 297 298 298 296 295 295 294 291 290 290 290 290 290 289 290 290 290 290 290 290 290 290 289 288 287 286 286 286 285 286 287 286 285 284 283 282 282 282
300 299 298 298 298 297 296 295 294 294 293 291 290 290 290 290 290 290 290 289 290 290 290 290 290 291 291 290 289 288 287 287 286 285 285 286 286 286 286 285 284 283 283 282
298 297 296 295 294 294 293 292 291 291 290 290 290 290 290 290 290 291 290 290 290 290 290 290 291 291 291 291 290 289 287 288 287 286 285 285 286 286 286 285 285 284 284 283
293 293 292 292 291 291 291 290 291 291 291 291 291 290 290 290 290 290 291 290 290 291 291 291 292 291 291 290 290 289 287 287 287 286 286 285 286 286 286 286 285 285 285 285
292 292 291 291 291 291 291 291 291 291 290 291 291 291 291 290 290 290 290 290 290 290 289 289 289 290 289 289 289 287 285 285 285 285 285 285 285 285 286 286 286 286 286 286
291 291 291 291 291 291 291 291 291 291 291 290 290 290 290 291 291 291 291 291 290 290 290 289 288 288 288 288 287 284 284 284 284 284 284 284 284 284 285 285 285 285 286 286
292 292 292 292 291 291 291 291 291 291 291 291 291 291 290 290 290 289 289 289 289 289 289 289 288 288 288 287 286 285 284 283 283 284 284 284 284 283 283 283 283 284 284 285
292 292 292 292 292 291 290 290 289 289 288 286 285 285 284 284 285 285 285 286 286 287 287 287 287 287 286 285 285 284 284 283 283 282 282 283 282 283 283 283 283 283 284 285
292 292 291 289 288 287 286 285 284 284 284 283 283 283 282 282 283 284 284 284 285 285 285 286 286 286 285 285 284 284 283 282 282 282 282 282 282 282 282 282 283 283 284 284
289 288 286 285 284 283 283 282 282 281 281 280 280 280 280 280 281 281 282 283 284 285 285 285 286 285 284 284 283 282 281 280 280 280 281 281 282 282 283 283 283 283 284 284
286 285 284 283 282 282 281 280 279 278 278 278 278 278 278 279 279 280 281 282 283 283 284 284 283 282 283 282 281 280 280 279 279 279 279 279 280 280 281 282 283 284 284 283

GFSNGP_850_thetae_036.txt.gz
Theta_e
318 316 316 317 318 319 318 318 318 317 316 315 315 316 317 318 318 317 315 314 313 312 310 307 305 305 306 302 300 299 297 297 296 294 294 295 294 293 292 291 292 292 292 291
319 316 316 316 317 316 318 318 318 318 317 317 315 314 316 317 317 316 315 313 312 311 309 307 305 305 302 300 298 297 297 296 294 293 293 294 293 292 292 293 292 292 292 291
317 313 314 319 318 317 317 318 318 318 318 316 315 315 315 316 316 315 314 313 312 310 308 306 304 301 300 298 297 296 295 293 293 293 293 293 292 292 292 292 292 292 291 291
319 312 324 314 312 313 317 317 316 316 316 314 315 315 315 315 315 315 314 312 311 309 306 305 301 300 298 297 296 295 292 293 293 293 292 292 292 292 292 291 291 291 290 290
324 315 314 313 311 311 313 313 315 314 315 314 314 314 315 314 314 314 313 312 310 308 304 300 301 298 297 297 295 292 293 293 293 293 292 292 292 292 291 291 291 291 290 289
314 328 330 314 312 313 313 315 312 314 315 314 314 318 314 312 313 313 312 311 307 303 301 299 297 299 297 295 293 293 291 292 292 292 292 292 291 291 290 290 290 289 290 288
318 324 318 313 310 312 315 314 313 314 314 314 316 314 313 312 312 312 310 306 303 302 298 297 299 298 295 294 293 292 290 291 291 291 291 291 291 290 290 289 289 289 288 287
315 323 323 310 313 317 316 314 312 314 314 314 314 312 311 311 310 307 304 301 299 296 297 300 297 294 293 292 292 290 290 291 290 291 290 290 290 290 290 289 288 288 287 286
317 318 313 311 314 314 313 313 313 313 313 313 313 311 309 308 305 301 299 297 297 299 302 297 294 291 290 292 290 289 289 289 291 291 290 290 290 289 289 289 288 287 287 286
314 314 313 312 312 311 311 311 312 312 312 313 313 312 307 303 300 299 298 298 300 299 295 293 291 290 290 289 289 289 289 290 291 290 290 289 289 289 288 288 287 286 286 285
314 314 312 312 311 311 312 313 312 312 312 312 312 310 304 301 299 298 299 300 298 295 293 290 290 290 289 289 289 289 289 290 290 290 290 289 289 288 288 287 286 286 285 284
316 311 311 312 312 312 312 312 312 312 309 308 308 304 301 299 300 300 298 297 294 291 291 290 290 289 289 289 289 289 289 289 290 290 289 289 289 288 287 286 285 285 284 283
313 312 312 312 311 310 310 307 306 305 303 302 300 297 296 295 297 296 295 293 290 290 290 290 289 289 289 289 289 289 289 289 289 288 288 288 288 287 287 287 286 285 284 283
309 311 312 308 306 303 302 300 301 299 297 296 296 296 297 295 294 293 292 293 291 290 290 289 289 289 289 289 289 289 289 289 288 287 287 287 287 287 287 286 286 286 285 284
304 307 305 302 301 300 298 298 298 297 297 297 296 296 295 293 293 293 291 290 290 290 289 289 289 289 289 290 290 290 289 289 288 287 287 287 286 286 286 286 285 285 285 284
302 302 301 299 297 296 297 298 297 296 296 294 294 294 293 293 292 290 290 290 290 289 289 290 290 290 290 290 290 290 289 289 288 287 287 286 286 286 286 286 286 285 285 284
302 298 297 297 297 298 297 297 295 295 294 294 294 293 291 290 290 290 290 290 290 289 289 290 290 290 290 290 291 290 290 290 289 287 287 286 285 285 286 286 286 285 285 284
300 298 298 298 298 296 295 294 294 294 294 291 291 290 290 290 290 290 290 290 290 290 290 290 290 290 290 291 291 290 290 289 288 288 287 287 286 286 285 286 286 285 285 284
297 297 296 296 296 295 293 291 291 290 291 291 291 291 291 290 291 291 290 290 290 290 290 290 290 290 290 291 291 290 290 289 288 286 287 287 286 286 285 285 286 286 285 285
294 292 291 291 291 291 291 291 291 291 291 291 291 291 291 290 290 290 290 290 290 290 291 290 290 290 290 289 289 289 289 288 286 285 285 286 286 285 285 285 285 285 286 286
292 291 291 291 291 291 291 291 291 291 291 291 291 290 290 290 291 291 291 290 291 290 290 290 290 290 289 288 288 288 287 286 285 285 285 285 285 285 285 285 285 285 285 285
291 291 291 291 291 291 291 291 291 291 291 291 290 289 288 287 286 285 285 285 286 286 286 286 287 288 288 288 288 287 286 285 285 285 285 285 285 285 285 285 284 284 284 284
292 292 292 292 292 291 291 289 287 286 285 285 284 284 283 283 284 284 284 285 284 284 283 284 285 286 286 287 287 286 285 284 284 283 283 283 283 283 284 284 284 284 284 284
292 292 291 290 288 287 287 286 285 284 283 282 281 281 280 280 281 281 281 281 282 282 283 284 285 285 285 285 285 285 284 284 283 282 282 281 281 281 282 282 282 282 283 284
291 289 287 286 286 285 284 284 283 282 281 280 279 279 278 279 279 278 279 280 280 281 282 283 285 285 285 284 284 283 283 282 281 281 280 280 280 280 281 281 282 282 282 282
287 286 285 285 284 283 282 281 280 279 278 278 278 277 277 277 277 277 278 278 279 280 280 281 281 281 281 281 281 281 280 280 280 279 279 279 279 279 279 280 281 281 282 282
286 285 283 282 281 280 279 278 278 278 277 277 276 276 276 276 276 276 277 277 277 277 277 278 278 278 278 278 278 278 278 278 278 278 278 278 278 278 278 279 279 279 280 281

GFSNGP_850_thetae_039.txt.gz
Theta_e
321 321 321 321 321 321 321 321 322 319 319 317 317 317 317 317 318 320 321 321 320 319 318 316 313 310 307 307 306 303 302 300 300 299 298 297 297 296 295 295 295 294 294 293
322 321 320 320 320 320 318 319 319 319 318 318 318 317 317 316 317 318 319 319 318 317 316 314 311 309 308 306 304 302 300 300 298 297 297 296 296 295 294 294 294 294 294 293
320 318 317 320 319 319 319 319 319 320 319 318 318 317 316 316 317 317 318 318 318 317 316 313 310 308 306 303 301 300 299 298 297 297 296 295 294 294 294 294 294 293 293 292
321 316 323 317 315 315 317 318 318 317 317 317 316 316 317 316 316 317 317 317 317 316 314 312 310 306 302 302 300 299 298 296 296 296 295 294 294 294 294 294 293 293 293 292
325 318 317 316 314 314 314 315 316 315 315 315 316 316 316 316 315 315 316 316 316 315 313 310 306 302 301 300 298 298 296 295 295 294 294 294 294 294 294 293 292 292 292 291
318 325 327 318 315 314 315 316 314 314 315 314 316 318 318 315 314 315 315 315 315 313 310 306 302 300 300 299 298 296 295 294 294 293 293 293 293 293 293 292 292 291 291 290
322 326 322 317 314 314 317 318 315 314 314 315 316 317 316 314 315 314 315 314 313 309 305 303 301 299 300 298 296 294 294 294 293 293 293 292 292 292 292 292 291 290 289 289
324 324 323 313 315 317 318 314 315 315 314 316 316 316 314 314 315 314 314 311 306 303 301 298 299 298 297 296 294 294 293 293 293 292 292 292 292 292 292 292 291 290 289 288
320 320 315 314 314 314 314 314 314 314 314 314 315 315 314 313 313 311 309 303 301 299 299 297 296 295 293 293 293 292 291 290 292 292 292 292 292 291 291 290 290 290 289 288
316 316 315 314 314 313 314 314 314 314 314 314 314 314 314 311 309 305 302 301 300 298 298 296 295 292 292 293 290 290 290 291 292 292 292 292 291 291 291 289 289 289 288 287
317 315 315 314 314 315 314 314 315 315 315 313 314 314 312 307 304 302 298 298 298 296 295 294 293 293 291 290 290 290 291 291 291 291 292 292 291 291 290 289 288 288 287 287
319 315 315 315 315 313 314 313 312 313 311 308 310 308 305 302 298 297 297 296 294 294 293 294 292 291 290 290 290 289 289 290 291 291 291 291 290 289 289 288 288 287 286 286
315 314 314 313 309 307 306 306 305 304 303 302 301 299 297 297 296 294 293 293 293 294 293 293 291 290 290 290 289 289 289 289 289 289 289 288 288 288 288 288 288 287 286 286
310 312 313 307 306 305 303 300 300 299 298 298 298 297 296 296 297 296 295 294 293 293 292 290 290 291 291 290 290 290 290 290 290 291 290 289 288 288 287 288 288 288 287 286
307 307 306 305 303 300 300 299 298 297 297 298 298 298 297 296 295 295 294 293 291 290 290 291 292 291 291 291 290 290 290 291 291 290 289 289 288 287 287 287 287 287 286 286
304 303 302 301 300 299 298 298 298 297 297 297 297 296 296 295 294 293 292 292 290 290 291 290 290 290 290 290 291 291 292 292 291 290 290 289 288 288 287 287 287 287 287 286
302 301 300 300 299 299 299 298 298 298 298 297 294 291 291 290 290 292 291 290 290 290 290 290 290 290 290 290 291 291 291 291 291 290 290 289 289 288 287 287 286 287 287 286
302 301 300 299 298 297 298 297 296 294 293 290 291 291 290 290 290 290 291 290 290 290 290 290 291 290 290 290 291 291 290 291 291 290 289 289 288 288 288 287 287 286 286 286
299 299 298 298 297 295 294 293 291 291 291 290 290 290 290 291 291 290 290 290 290 290 291 292 291 291 290 290 290 290 290 289 289 289 288 287 286 286 286 287 287 286 286 286
296 295 294 293 291 291 291 291 292 291 290 290 290 290 290 290 290 290 290 289 289 290 290 290 289 289 288 288 288 289 289 288 288 287 287 287 286 286 286 286 286 286 286 286
294 293 291 291 291 291 290 290 290 290 290 290 290 288 286 285 285 284 285 287 287 287 286 285 285 285 286 286 287 287 288 288 287 287 286 286 285 285 285 285 286 286 286 285
293 291 291 291 291 291 291 291 290 288 286 285 285 284 283 283 283 284 285 285 285 283 282 282 283 283 283 284 285 286 286 287 287 286 286 285 285 285 285 285 285 285 285 285
293 292 291 291 291 291 289 287 286 286 284 283 282 281 280 280 282 282 282 282 281 281 281 281 281 282 282 283 285 285 285 286 286 285 284 282 282 281 281 282 282 282 283 283
292 291 291 290 288 287 286 285 284 283 282 281 281 280 280 280 280 280 280 279 279 279 279 280 280 281 281 282 283 283 283 283 282 282 282 281 279 279 279 279 280 280 281 281
291 289 287 286 286 285 283 282 282 282 281 280 280 280 279 279 278 278 278 277 276 276 277 276 278 278 278 278 278 279 279 278 279 279 279 278 278 278 278 278 279 279 279 279
287 286 285 284 283 282 281 280 279 280 278 279 278 277 277 277 277 276 276 275 275 275 275 275 275 276 276 276 276 276 276 275 277 277 277 276 277 276 277 277 278 278 278 278
285 284 283 283 281 280 279 278 278 277 277 277 275 276 276 276 275 275 274 274 273 273 273 273 273 274 275 274 274 274 274 274 274 275 275 275 275 275 275 275 275 276 277 277

GFSNGP_850_thetae_042.txt.gz
Theta_e
319 320 321 322 322 321 321 322 324 323 320 319 320 319 318 318 318 318 319 322 322 323 322 322 320 318 315 312 309 307 305 303 303 301 300 300 298 297 296 296 295 295 295 295
324 322 321 321 320 319 319 320 319 319 320 320 319 318 318 317 316 316 318 319 321 321 321 321 319 316 313 310 307 306 304 302 301 300 299 298 297 297 296 295 294 294 294 294
326 320 318 319 320 319 319 319 320 320 321 319 319 318 317 317 316 316 317 317 320 320 319 319 317 314 311 308 307 304 302 301 300 299 298 297 296 295 295 294 294 294 293 293
327 317 323 318 317 315 315 315 316 317 316 316 317 316 316 316 316 317 317 316 317 318 318 317 315 312 310 308 304 301 301 299 298 297 296 296 295 294 294 294 294 293 293 293
326 322 319 318 316 316 316 316 315 315 315 315 315 315 317 316 316 315 315 315 316 317 317 316 313 310 308 303 302 300 298 298 296 295 295 294 294 294 294 294 294 293 292 292
323 327 324 320 315 315 315 319 316 315 315 315 315 320 319 316 315 314 314 315 315 316 315 313 310 305 302 301 299 299 296 295 296 295 294 293 293 293 293 293 293 292 292 291
323 326 325 318 315 315 319 322 316 315 315 315 317 318 317 315 314 315 315 315 315 314 311 307 304 302 300 300 298 296 294 295 294 293 293 293 292 292 292 292 292 292 291 291
327 324 323 315 315 318 319 315 315 315 315 315 315 316 316 315 314 314 314 311 309 305 303 301 300 299 298 296 295 295 294 293 293 292 292 292 292 292 292 292 292 291 291 291
324 324 317 314 314 314 314 314 315 315 315 314 314 314 315 315 314 312 307 305 303 301 299 297 297 298 297 294 294 294 293 292 290 290 292 292 292 292 292 291 291 290 290 289
319 316 316 315 315 316 315 315 315 315 316 316 315 315 315 312 308 305 303 301 300 299 298 298 298 293 294 294 293 292 292 290 291 292 292 292 291 292 292 291 291 290 289 288
318 317 316 316 316 315 315 315 314 315 312 311 313 312 309 305 302 300 299 299 298 297 295 294 294 295 294 293 293 291 290 290 290 290 290 291 292 292 291 291 290 289 289 288
323 317 317 315 312 311 311 309 309 309 306 305 305 303 304 301 299 298 298 298 298 299 298 296 294 293 292 292 290 290 290 289 289 290 290 290 290 290 289 289 289 288 288 288
317 315 315 310 308 306 305 305 304 304 303 304 302 303 302 301 299 299 300 299 297 295 294 294 293 292 290 290 291 290 289 289 290 290 290 290 290 289 289 289 288 288 288 288
312 313 310 310 306 303 302 301 302 301 299 299 299 298 298 298 297 296 295 295 294 294 293 292 292 292 292 292 291 291 290 290 290 291 291 291 291 289 289 288 288 287 287 287
309 309 307 305 303 302 301 299 298 298 297 297 297 297 296 296 296 295 294 293 293 292 292 292 292 292 291 290 290 290 290 291 291 292 292 291 291 290 290 289 288 287 287 287
305 305 304 303 301 300 300 299 298 298 298 298 297 296 295 294 293 292 293 292 291 290 290 290 290 290 290 290 290 290 291 291 292 292 292 291 291 290 290 289 288 288 288 287
303 303 302 301 300 300 299 298 298 297 296 294 291 290 290 290 290 290 290 290 290 290 290 290 291 292 292 292 292 292 292 292 291 291 291 290 290 290 289 289 288 288 288 288
303 302 301 299 299 298 298 296 294 292 290 291 290 290 290 290 290 290 290 290 290 289 289 292 292 292 291 291 289 289 289 289 289 290 290 289 288 288 288 287 286 286 287 288
300 299 299 298 297 296 295 292 291 291 290 290 290 290 290 290 289 288 286 285 285 287 288 287 287 286 285 284 284 285 286 287 287 287 289 288 287 287 287 287 286 286 286 286
298 296 295 294 294 292 291 292 293 290 290 290 289 288 287 286 285 284 283 285 286 286 286 285 284 282 282 283 284 284 284 283 285 286 288 288 287 287 286 286 286 286 286 286
295 293 291 291 291 290 290 290 290 290 288 287 287 286 284 283 282 282 283 284 284 284 282 280 280 281 281 281 281 281 282 283 285 285 286 288 287 286 286 285 285 285 285 285
292 291 291 291 291 290 290 290 288 286 286 286 284 283 282 281 281 282 282 283 282 280 280 279 280 280 279 279 280 282 283 284 285 285 286 286 285 285 284 282 282 282 282 282
292 291 291 291 291 290 288 287 286 286 285 283 282 281 280 280 281 280 280 280 279 279 278 277 277 278 278 278 278 278 279 280 281 282 281 281 281 281 280 279 279 279 279 280
292 291 291 290 287 287 286 286 283 283 282 281 281 281 280 279 279 279 279 278 277 276 276 275 275 276 276 276 276 276 276 276 277 277 277 277 277 277 276 276 277 277 278 278
290 289 287 287 287 285 284 283 282 282 281 280 280 279 278 278 278 277 277 276 275 274 274 274 273 274 275 275 275 274 274 273 274 275 275 275 275 274 274 275 276 276 276 277
288 287 286 285 284 283 282 281 280 280 279 279 278 277 277 277 276 275 275 275 274 273 273 272 272 271 272 272 272 272 272 272 272 273 273 273 273 273 273 273 274 273 274 275
286 285 284 284 282 281 280 279 279 278 277 277 276 276 276 276 275 274 273 273 273 272 271 271 270 270 270 269 269 269 269 270 270 270 271 271 271 271 271 271 271 271 272 272

GFSNGP_850_thetae_045.txt.gz
Theta_e
318 320 320 320 320 320 320 320 318 318 319 317 316 314 315 317 318 318 320 325 325 323 322 321 321 321 320 320 319 315 311 309 305 303 303 301 300 300 299 298 296 294 293 294
322 321 318 317 317 318 317 317 318 317 317 316 316 316 316 316 316 317 317 318 322 323 322 322 322 320 319 318 316 311 309 305 303 302 300 300 300 298 297 296 295 294 294 294
321 314 315 312 315 316 317 317 316 316 315 313 313 314 315 316 316 316 316 316 320 321 321 321 320 320 317 314 311 309 306 303 301 300 300 298 297 295 295 295 294 294 294 294
314 311 311 316 314 313 313 313 312 312 311 313 313 315 315 315 315 315 316 316 316 318 319 319 318 316 313 310 308 306 303 301 300 298 297 296 295 294 294 294 294 294 294 294
312 313 316 316 314 315 314 314 313 312 312 314 314 316 315 315 314 314 314 314 315 316 317 316 314 312 311 307 304 302 300 299 297 295 295 295 294 294 293 293 293 293 293 293
313 314 311 315 314 314 314 314 314 314 313 315 316 312 314 315 315 314 314 314 315 315 314 311 308 308 305 302 300 298 298 296 295 295 294 293 293 293 292 293 292 292 293 292
308 309 314 317 314 314 311 313 315 315 315 315 314 316 316 315 314 314 314 314 313 312 309 304 303 303 301 299 298 297 296 296 297 295 293 293 292 292 291 292 292 291 292 292
313 316 317 314 314 313 315 315 315 315 314 314 314 314 315 313 313 311 310 309 309 308 304 301 300 300 299 298 296 297 299 300 297 293 293 291 291 292 292 292 292 292 291 291
316 315 316 315 315 315 315 315 315 315 315 315 315 315 313 309 307 306 306 305 303 304 301 300 300 299 299 299 300 300 297 294 293 292 290 291 292 292 292 292 292 292 291 291
313 316 313 316 315 315 315 315 315 315 314 314 313 312 308 307 303 302 301 301 301 300 300 300 301 301 299 296 295 295 294 292 291 290 290 291 291 290 291 292 292 291 291 290
314 316 315 313 314 314 314 312 312 311 311 310 312 306 305 304 302 301 300 300 300 300 300 298 296 295 294 293 293 292 291 290 290 290 289 289 290 290 290 291 291 291 290 289
312 314 313 309 309 310 310 308 307 309 307 305 305 303 303 301 300 300 299 298 298 297 296 295 294 293 293 292 291 290 290 290 289 289 289 290 290 290 290 290 290 289 288 288
315 315 310 308 307 307 307 305 305 305 304 303 301 301 300 299 299 299 297 295 294 294 294 293 293 291 292 292 292 292 291 291 290 290 289 290 290 291 290 290 290 290 289 288
312 310 307 307 303 304 305 303 302 300 299 299 298 298 296 296 295 295 294 294 293 292 291 291 292 292 292 292 291 291 291 291 290 290 290 291 291 291 291 291 291 289 289 289
310 311 307 303 303 301 300 299 299 298 297 297 296 296 295 294 294 293 293 292 292 290 290 290 290 290 290 290 290 290 291 291 291 291 291 292 292 291 291 291 291 290 288 289
306 304 303 302 300 299 298 298 298 297 297 297 297 295 294 292 291 291 291 290 290 290 289 289 290 291 291 291 291 291 290 290 290 290 290 290 290 290 290 290 288 289 288 289
303 302 301 300 300 299 298 297 297 297 296 292 290 290 290 290 290 290 289 288 287 286 287 288 288 288 288 287 286 284 283 284 284 285 285 286 287 288 289 289 287 288 287 287
303 302 301 300 299 298 297 297 295 291 290 290 290 290 290 289 287 286 286 285 285 286 287 286 286 285 284 282 281 281 283 284 284 283 283 283 284 285 286 288 287 287 286 286
302 300 299 298 298 297 294 291 291 290 290 290 289 288 286 286 285 284 284 283 284 285 284 284 284 281 280 280 280 280 280 280 282 283 283 283 285 285 287 288 287 286 286 286
299 298 297 296 296 292 292 292 291 290 289 288 287 286 286 285 284 283 282 283 284 284 283 281 279 279 279 278 278 279 280 280 281 282 283 284 285 285 286 287 286 285 285 285
297 296 294 292 291 291 292 291 290 288 287 286 287 286 284 283 282 281 281 281 281 280 279 278 277 277 277 277 278 278 278 278 279 280 280 280 281 282 282 282 283 283 282 282
291 291 291 290 290 290 289 288 287 286 286 286 285 283 282 281 280 279 280 280 279 278 277 276 276 276 276 276 277 277 276 276 276 276 277 277 277 278 278 279 278 279 279 280
291 291 292 291 290 289 287 286 286 286 285 283 282 282 281 279 279 279 278 277 277 276 276 275 275 275 275 275 275 275 275 275 275 274 275 275 275 275 275 275 275 276 277 277
291 292 291 289 287 287 286 284 283 284 282 281 281 280 279 278 278 277 277 276 276 275 274 274 273 273 273 273 273 273 273 273 273 273 273 273 273 273 273 274 274 274 275 275
290 289 287 287 286 286 285 283 282 282 281 280 280 279 277 277 277 276 276 275 274 274 273 272 272 271 271 271 270 271 271 271 271 271 271 271 271 271 271 271 272 272 273 273
288 287 287 286 285 284 283 281 281 280 279 279 278 277 276 276 276 276 275 274 273 272 272 271 270 270 270 269 269 269 269 270 269 270 270 269 269 270 270 270 270 271 271 271
287 285 285 284 284 283 281 280 279 278 277 278 277 276 275 275 275 274 274 273 272 271 271 270 269 269 269 269 268 268 269 268 268 269 269 268 268 269 269 269 269 269 270 270

GFSNGP_850_thetae_048.txt.gz
Theta_e
317 318 319 319 319 319 318 317 316 316 316 316 315 313 312 315 316 320 325 326 326 325 324 324 324 323 321 320 320 319 317 314 312 310 305 304 303 300 299 298 297 296 294 294
319 317 316 317 316 315 316 317 317 317 316 310 313 314 314 314 316 316 318 319 323 324 323 321 321 320 320 321 320 316 315 312 307 304 303 302 300 300 299 297 295 295 294 293
318 312 314 313 315 315 316 315 315 314 313 311 311 311 313 315 315 316 317 320 320 321 322 321 321 320 321 320 317 311 308 306 304 303 301 301 299 297 295 295 295 293 293 294
312 310 313 316 314 314 312 311 310 310 311 312 312 313 313 313 314 314 315 316 318 320 321 321 321 321 319 315 309 307 306 301 300 299 298 296 296 297 299 296 293 293 293 293
311 312 314 315 312 312 312 314 312 311 312 312 314 314 314 314 314 314 314 314 315 317 318 320 319 317 313 308 307 304 301 299 298 297 296 299 300 299 294 293 293 293 292 292
311 312 312 313 313 313 312 313 313 313 314 314 313 311 312 314 314 314 314 314 315 315 315 316 313 311 309 305 303 300 298 297 296 299 301 299 295 293 293 293 292 291 291 291
304 308 309 312 312 313 311 310 313 314 314 315 313 314 312 312 313 313 313 312 312 312 312 309 306 306 304 300 299 297 296 297 300 299 296 294 293 293 292 291 292 292 292 291
309 308 313 315 313 312 310 313 314 314 314 314 314 313 310 309 309 309 310 307 306 307 304 301 301 301 300 300 300 299 301 299 298 295 293 293 292 290 291 291 291 292 292 291
313 312 313 314 314 314 314 314 314 314 314 314 313 309 308 306 306 305 304 303 302 302 300 299 299 299 299 300 299 298 296 294 293 292 292 290 290 290 290 291 291 291 291 291
313 314 314 314 314 315 315 315 314 314 314 314 312 307 305 303 302 301 300 300 300 300 299 299 297 296 296 296 295 294 293 292 292 290 289 289 289 289 289 290 289 289 290 290
314 313 313 312 311 312 312 312 313 312 312 311 310 304 302 301 300 299 299 299 299 299 297 296 295 294 293 292 292 291 290 290 290 289 289 289 289 289 289 289 290 290 289 289
311 314 311 309 308 310 311 309 308 309 306 305 305 302 301 299 299 299 298 296 295 294 294 293 293 292 291 291 291 291 291 291 291 291 291 291 290 290 289 290 290 290 290 290
312 313 310 307 307 307 309 306 305 306 304 303 301 300 300 298 296 295 294 294 293 293 292 292 291 291 291 291 291 291 291 291 291 290 290 290 291 291 291 291 291 291 291 291
313 310 305 306 304 304 305 304 304 301 300 299 297 296 295 295 294 294 293 293 292 290 290 290 290 290 290 290 290 290 290 291 291 291 291 291 291 291 290 290 290 290 290 290
309 311 309 305 303 302 302 300 298 297 296 296 296 295 294 294 293 292 292 291 290 289 289 289 289 289 289 289 288 287 287 287 286 285 285 286 286 286 286 286 287 288 288 289
307 307 304 303 300 299 298 297 297 296 295 295 294 294 293 292 291 290 290 289 288 287 287 287 287 286 286 286 285 283 282 281 281 281 281 282 282 282 282 283 285 287 287 289
302 300 300 299 298 297 297 297 297 296 295 294 291 290 290 290 289 288 287 286 285 286 286 286 285 285 284 282 281 280 280 280 279 279 280 282 283 283 283 283 284 285 285 287
305 302 302 300 298 298 297 297 295 292 291 290 290 290 289 288 287 286 285 284 284 285 284 284 283 282 280 279 279 279 278 279 279 280 280 281 282 282 283 283 283 284 286 286
302 300 299 299 298 297 296 293 291 290 290 289 288 288 287 286 285 284 283 283 283 283 282 281 280 279 278 278 278 277 278 278 278 278 278 279 280 280 280 281 282 284 284 285
300 299 299 297 297 296 291 290 290 289 288 287 287 286 285 284 283 283 282 282 281 280 280 279 278 277 277 276 276 276 277 277 277 277 277 277 277 277 277 278 279 280 280 280
298 297 297 296 293 291 291 290 289 288 286 285 285 284 284 283 282 281 281 280 280 279 277 277 276 276 276 275 275 275 275 276 276 275 275 275 275 275 275 276 276 276 277 277
296 296 293 291 292 291 289 288 287 286 286 285 284 283 282 282 280 279 279 278 277 276 276 275 275 275 275 275 275 274 274 274 274 274 274 274 274 273 273 274 274 274 275 275
291 291 291 290 290 289 287 286 285 285 285 284 283 282 281 280 279 278 278 277 276 275 275 274 274 274 274 274 274 274 273 273 273 272 272 272 272 272 272 272 272 272 273 273
292 291 290 289 288 287 286 284 284 284 283 282 281 280 279 278 278 277 277 275 275 274 274 273 273 273 273 273 272 272 272 271 271 271 271 270 270 270 271 271 271 271 271 271
292 291 290 287 286 285 284 284 283 282 281 280 279 278 277 277 277 276 275 275 274 273 273 273 272 272 271 271 271 271 271 270 270 270 270 270 270 270 270 270 270 270 270 270
290 288 286 286 285 284 283 281 281 280 279 278 278 277 276 276 276 275 274 274 273 272 272 272 271 271 270 270 270 270 270 269 269 269 269 269 269 269 269 269 269 269 269 269
287 286 285 284 283 283 281 280 279 279 278 277 277 276 275 275 274 274 273 273 272 271 271 271 270 269 269 269 269 269 269 269 268 268 268 268 268 268 268 268 268 268 268 268

GFSNGP_850_thetae_051.txt.gz
Theta_e
315 315 315 317 317 316 317 315 316 315 315 314 313 312 311 313 314 317 319 324 326 326 327 328 328 327 326 325 323 322 320 319 316 313 311 310 309 303 302 298 300 297 295 296
319 316 317 317 316 315 315 315 315 315 315 312 312 312 312 313 315 317 319 320 323 325 326 325 325 326 324 323 320 320 318 316 312 311 309 305 302 301 299 298 296 297 300 297
316 312 314 313 314 315 314 314 314 314 312 311 311 311 311 314 316 318 319 319 319 320 321 322 321 322 322 321 319 317 316 312 310 307 304 301 300 299 296 297 300 299 297 294
311 310 312 314 313 313 312 311 309 310 310 310 310 311 312 313 314 315 316 317 318 319 320 320 320 319 319 318 316 313 311 308 306 303 300 297 297 298 300 299 296 294 294 293
312 312 312 315 311 311 311 312 311 310 309 312 313 313 313 313 313 313 314 314 315 317 318 319 319 318 317 315 312 309 306 303 300 298 298 298 300 300 300 294 294 293 293 291
307 312 314 314 313 312 311 311 311 311 310 311 312 309 309 311 312 313 313 313 314 314 315 316 315 315 314 309 305 301 298 297 297 298 299 300 300 296 294 293 293 292 291 291
306 309 311 310 311 312 311 310 312 313 313 312 310 311 312 310 311 312 312 311 311 311 311 310 308 307 306 300 299 297 297 298 299 300 299 297 294 293 293 292 290 290 290 290
307 307 315 312 312 310 309 312 313 313 314 314 314 311 310 309 309 308 307 306 305 305 303 301 301 303 300 300 300 302 300 299 298 296 294 293 292 292 290 290 290 290 290 289
313 312 311 313 312 313 314 314 313 313 313 313 312 309 307 306 305 303 302 302 301 302 300 299 300 300 301 300 299 297 296 295 293 292 291 290 289 289 289 289 289 289 289 289
313 314 313 312 313 313 313 313 313 314 313 312 311 307 305 303 301 301 301 300 300 300 300 299 298 297 296 294 293 292 292 290 290 289 289 289 289 289 289 289 289 289 289 289
312 311 311 312 312 313 313 313 314 313 312 312 310 304 303 301 300 299 299 299 298 298 297 294 293 292 292 291 291 291 290 290 290 290 290 290 290 290 290 290 290 290 290 290
311 312 312 310 310 311 312 311 312 312 309 306 306 303 301 299 299 299 297 296 295 294 293 292 292 291 291 291 291 290 290 290 290 290 290 290 290 289 290 290 290 290 290 291
313 313 312 309 308 308 310 309 308 308 307 304 301 300 299 298 296 295 294 293 293 292 291 290 290 290 290 289 289 289 289 290 290 289 289 288 287 285 285 284 284 285 286 286
314 312 305 306 305 306 307 305 304 303 301 300 299 298 297 295 294 293 292 291 290 289 289 289 289 289 289 289 288 287 286 284 283 282 282 281 281 280 280 280 281 281 281 282
309 311 309 306 304 303 303 302 301 299 298 296 296 295 295 294 293 292 291 290 289 289 289 288 288 287 286 285 285 283 282 281 281 281 280 280 280 280 281 282 282 282 282 282
307 308 305 305 302 300 300 299 298 296 295 295 294 294 293 292 291 290 289 288 287 288 287 286 285 285 284 283 282 281 281 280 280 279 279 279 279 280 281 282 280 280 282 283
302 299 300 299 299 298 297 297 297 296 294 294 294 293 291 290 289 288 287 287 286 285 285 284 283 282 281 281 280 280 279 279 278 278 278 278 278 279 279 279 280 279 280 282
308 305 303 302 299 298 296 296 295 294 294 292 290 290 289 288 288 287 285 285 284 283 283 282 281 280 280 279 279 278 278 277 277 277 277 277 277 277 277 277 277 278 279 280
305 303 301 299 298 298 297 295 294 292 290 290 289 288 287 287 286 285 284 283 282 282 282 281 280 279 278 278 277 277 277 276 276 276 276 276 276 276 276 275 275 276 276 277
301 300 299 298 298 297 296 293 290 290 289 287 287 287 287 285 284 283 282 282 281 280 280 279 278 277 277 277 276 276 276 275 275 275 275 275 275 275 275 274 274 274 274 275
300 299 298 297 295 295 292 290 290 289 287 286 286 286 284 283 282 281 280 280 280 279 278 277 277 276 276 276 275 275 275 274 274 274 274 274 274 274 273 273 273 273 273 273
298 297 296 294 291 290 289 289 288 287 286 285 284 283 283 282 281 280 279 279 278 277 276 275 275 275 275 275 274 274 274 273 273 273 273 273 272 272 272 272 272 272 271 271
296 295 292 292 291 291 289 286 285 285 285 284 283 282 281 280 279 279 278 278 277 276 275 274 273 273 273 273 273 273 273 272 272 272 272 271 271 271 271 271 270 270 270 270
292 291 292 291 290 287 286 284 284 284 283 283 282 281 280 279 278 278 277 276 275 274 273 273 272 272 272 272 272 272 272 272 271 271 271 270 270 270 270 270 270 269 269 269
292 291 289 287 286 285 285 284 284 283 282 281 280 279 279 278 277 276 276 275 274 273 273 272 272 272 272 272 272 272 271 271 270 270 270 270 269 269 269 269 269 269 269 269
290 289 288 287 286 285 284 283 282 281 280 279 279 278 277 276 276 275 274 273 273 272 272 271 271 271 271 271 271 271 270 270 269 269 269 269 269 269 269 269 268 268 268 268
289 287 286 284 283 282 282 281 280 279 278 278 277 276 276 275 274 273 273 272 272 271 271 271 270 270 270 270 270 270 269 269 268 268 268 268 268 268 268 268 268 268 268 268

GFSNGP_850_thetae_054.txt.gz
Theta_e
314 314 315 315 315 314 315 314 315 315 313 313 312 310 310 312 313 313 315 320 323 326 327 327 328 328 327 326 325 325 324 324 323 321 317 312 309 307 306 305 301 298 297 299
317 315 315 317 315 313 314 315 313 314 313 310 311 311 311 312 315 318 319 319 321 323 324 324 325 326 326 325 324 323 322 321 320 315 310 308 307 306 304 299 298 297 300 298
316 312 314 314 314 313 313 312 313 314 312 308 311 310 311 313 315 317 318 318 318 319 320 321 321 321 321 322 321 320 318 316 312 309 307 306 303 300 298 297 299 300 300 298
310 309 312 315 312 312 313 311 310 308 309 309 309 310 311 312 314 315 316 317 317 318 318 319 319 319 319 318 317 316 314 311 309 306 302 299 297 297 297 299 300 300 296 294
313 312 312 313 311 311 311 311 309 308 308 310 311 311 309 310 311 312 313 314 314 315 315 316 318 317 317 315 313 312 309 306 301 299 297 298 299 299 300 300 297 294 293 293
306 311 312 311 311 310 309 310 309 309 309 309 310 308 307 308 309 310 312 313 313 313 314 315 314 314 313 311 309 305 301 299 298 299 299 300 300 299 297 294 293 292 292 291
303 308 311 311 311 311 311 312 310 311 311 311 309 308 309 308 310 310 311 310 310 310 310 309 308 307 308 303 300 298 298 298 299 300 300 298 295 293 293 292 291 290 290 290
307 308 316 310 310 311 309 310 312 312 312 311 312 310 308 308 308 307 307 306 305 306 304 302 301 303 300 300 299 301 302 299 296 294 293 292 291 290 290 289 289 289 289 289
314 314 311 311 311 311 311 312 312 313 313 313 311 309 307 306 305 304 303 302 301 301 299 299 299 300 301 298 297 296 294 293 291 290 290 289 289 289 289 289 289 289 290 289
313 313 312 313 313 313 312 313 313 313 313 312 312 308 306 304 302 301 300 300 299 299 299 298 297 297 296 295 293 292 291 290 290 290 290 290 290 290 290 290 290 290 290 290
311 311 311 311 312 312 312 313 313 313 313 312 311 306 305 302 300 299 299 298 298 298 297 295 294 294 293 292 291 290 290 290 290 289 289 289 289 289 288 287 286 285 284 284
312 313 313 312 312 312 312 313 313 313 310 308 308 306 302 300 299 299 298 298 297 296 295 293 292 291 290 290 290 289 289 289 288 287 286 284 284 283 283 282 282 281 281 281
314 314 312 312 311 311 312 312 311 311 310 308 304 303 301 299 298 298 296 295 294 293 292 291 290 289 289 289 289 288 286 285 284 283 283 282 282 281 281 282 281 281 281 281
313 312 306 308 308 308 310 308 308 307 305 304 302 300 299 298 295 295 293 292 290 290 289 289 289 289 288 287 286 285 283 283 282 281 281 280 280 280 279 279 280 280 281 281
309 311 311 309 307 306 307 306 304 303 301 299 299 298 298 295 294 292 291 290 289 289 289 288 287 286 285 285 284 283 282 281 281 280 280 279 278 278 278 278 278 279 279 280
307 308 307 307 304 303 303 302 303 299 299 298 297 296 294 294 292 290 289 289 288 288 287 286 285 284 283 282 282 281 280 280 279 279 278 278 277 277 277 277 277 277 277 277
303 298 301 300 301 300 301 301 301 299 297 296 294 293 293 291 289 288 287 286 286 286 285 284 283 282 281 280 280 279 279 278 278 278 277 277 276 276 276 276 276 276 275 275
308 305 303 304 302 300 299 298 297 296 295 294 293 292 290 288 288 287 286 285 285 284 283 282 281 280 280 279 279 278 278 277 277 277 276 276 275 275 275 275 275 275 275 275
306 305 302 301 299 298 296 295 295 294 294 293 291 289 287 286 286 286 285 284 283 282 282 281 280 279 278 278 278 277 277 277 276 276 275 275 275 274 274 274 274 274 274 274
301 301 300 299 298 298 296 294 294 293 290 289 288 287 286 286 285 284 283 282 282 281 280 279 278 278 277 277 277 276 276 276 275 275 274 274 274 274 273 273 273 273 273 272
301 300 299 298 296 294 295 294 291 289 287 287 287 287 286 285 283 282 281 281 280 279 279 278 277 276 276 276 276 275 275 274 274 274 274 273 273 273 273 272 272 272 272 271
299 298 297 296 295 294 291 289 289 289 287 287 285 284 284 283 282 281 280 279 279 278 277 276 276 276 275 275 275 274 274 273 273 273 273 272 272 272 272 271 271 271 270 270
296 296 295 294 291 289 287 287 287 287 285 284 284 283 282 281 281 280 279 278 278 277 276 275 275 274 274 274 273 273 272 272 272 272 272 271 271 271 270 270 270 270 270 269
294 292 289 289 289 289 289 286 284 284 284 283 282 281 281 280 279 279 278 277 276 276 275 274 273 273 272 272 272 271 271 271 271 271 271 270 270 269 269 269 269 269 269 269
291 291 291 291 290 288 286 284 284 283 283 282 281 280 279 279 278 277 276 276 275 274 273 273 272 271 271 271 271 270 270 270 270 270 270 269 269 269 269 269 269 269 268 268
290 289 288 286 285 285 284 283 283 282 281 280 279 278 278 277 276 276 275 274 273 273 272 271 271 270 270 270 270 270 270 270 270 269 268 268 268 268 268 268 268 268 268 268
288 287 286 285 284 282 282 281 281 280 279 278 277 277 276 276 275 274 273 273 272 271 271 270 270 269 269 269 269 269 269 269 268 268 268 268 268 267 267 268 268 268 268 268

GFSNGP_850_thetae_057.txt.gz
Theta_e
314 313 315 318 319 318 319 320 322 321 316 318 316 316 312 311 313 316 316 315 318 323 325 326 326 326 326 327 327 327 326 324 323 320 320 318 317 316 312 309 306 305 305 302
316 314 314 316 315 316 317 316 316 316 316 315 312 311 312 313 317 318 318 319 320 321 322 322 323 324 324 325 324 323 322 320 319 318 317 314 311 307 306 305 303 301 300 300
319 314 315 318 317 315 315 315 317 318 319 312 312 312 311 312 315 315 317 317 318 319 319 320 320 320 321 321 321 319 317 317 315 313 309 307 305 304 303 300 298 298 299 300
316 312 320 319 313 314 316 315 313 312 312 311 311 309 310 312 313 314 315 316 316 316 316 317 317 318 318 317 316 315 314 311 308 306 306 304 301 299 297 298 299 300 299 298
319 318 316 314 313 315 316 317 313 313 310 310 309 309 307 309 310 311 312 314 314 314 315 315 316 316 315 314 313 312 309 308 305 302 300 298 298 299 300 299 299 298 294 293
312 318 320 317 313 310 312 316 312 311 311 311 310 316 314 308 309 310 312 312 312 313 313 313 313 312 313 311 310 307 303 301 299 299 299 301 300 300 297 294 293 293 292 291
312 319 316 312 311 310 318 319 311 310 311 311 313 311 310 308 308 309 309 310 310 310 311 310 308 309 308 304 303 302 300 300 300 302 300 298 294 293 292 291 290 290 289 289
312 316 320 311 309 315 316 310 311 310 311 311 310 308 307 306 306 306 306 306 307 307 305 304 303 305 302 301 299 299 301 302 299 295 294 292 291 290 289 289 289 289 289 289
317 320 314 310 314 312 312 312 311 311 311 311 309 306 305 304 304 303 304 303 303 303 301 299 299 300 301 300 299 298 296 294 292 291 290 290 290 289 289 289 289 289 288 286
316 315 313 312 311 312 311 311 312 312 312 312 310 306 304 303 302 301 301 300 300 300 300 299 298 298 297 295 294 293 291 291 290 290 289 289 289 287 286 284 283 282 282 283
314 313 312 314 313 313 312 312 311 312 312 312 310 306 305 302 301 300 299 299 299 299 298 296 295 295 293 292 291 290 290 289 289 288 286 285 284 284 283 282 281 281 281 281
318 315 317 317 317 315 313 312 312 313 310 309 309 308 303 301 299 298 298 297 297 296 296 294 292 291 290 290 289 289 288 287 286 285 284 283 283 283 282 281 281 280 280 280
315 315 314 314 314 312 311 311 311 312 311 309 305 306 303 300 298 297 297 296 296 294 293 291 290 289 289 288 287 286 285 284 283 283 282 282 281 281 280 280 279 279 278 278
315 314 311 311 310 310 311 310 309 309 308 307 305 302 301 299 296 297 296 294 293 291 290 289 289 288 287 286 285 284 283 282 282 281 281 280 280 279 279 278 278 278 277 277
312 312 311 311 308 308 309 309 308 307 305 303 301 300 299 297 296 294 292 291 290 289 289 288 287 286 285 284 283 282 282 281 280 280 279 279 278 278 278 277 277 277 277 277
308 308 309 309 307 306 307 305 308 303 301 300 299 298 297 295 293 291 290 289 289 288 287 286 285 284 283 282 281 281 280 280 279 279 278 278 278 277 277 277 276 276 276 276
305 300 301 302 302 301 301 301 303 302 299 298 297 296 294 293 291 290 288 287 286 286 285 284 283 283 282 281 280 280 279 279 278 278 277 277 277 276 276 276 275 275 275 275
306 307 304 306 303 301 299 299 298 296 295 295 293 293 293 291 289 288 287 286 285 284 283 283 282 281 280 280 279 278 278 278 277 277 276 276 276 275 275 275 274 274 274 274
305 304 301 300 302 300 298 296 296 296 295 294 293 291 289 288 287 287 286 285 284 283 282 281 280 280 279 278 278 277 277 277 276 276 275 275 275 274 274 274 273 273 273 273
304 304 301 299 297 298 297 296 296 295 294 293 290 288 286 286 286 286 284 283 282 282 281 280 279 278 278 277 277 276 276 275 275 275 274 274 274 273 273 273 272 272 272 272
299 297 297 296 295 296 296 295 294 293 290 287 287 288 288 287 284 283 282 282 281 280 279 278 278 277 277 276 276 275 275 274 274 274 274 273 273 272 272 271 271 271 271 271
297 297 295 295 295 294 293 293 291 288 287 288 287 288 287 284 283 282 281 280 279 279 278 277 276 276 275 275 274 274 274 273 273 273 272 272 271 271 270 270 270 270 270 270
294 294 294 293 293 291 288 287 288 289 288 288 286 283 282 282 281 280 279 279 278 277 277 276 275 274 274 274 273 273 273 272 272 272 271 270 270 269 269 269 269 269 269 269
293 292 292 290 288 288 287 285 287 285 284 282 281 281 280 280 279 279 278 277 276 276 275 274 274 273 273 273 272 272 271 271 271 270 270 269 269 268 268 268 269 269 269 269
291 290 289 287 288 287 286 285 283 282 282 281 281 280 279 278 278 277 277 276 275 274 274 273 273 272 272 271 271 270 270 270 269 269 269 268 268 268 268 268 268 268 268 268
289 288 287 287 286 285 284 283 282 281 281 280 279 278 278 277 276 276 275 274 274 273 273 272 272 271 271 270 270 269 269 268 268 268 267 267 267 267 267 267 267 268 268 268
286 285 285 284 283 283 282 282 281 281 279 279 278 278 277 276 275 274 274 273 273 272 271 271 270 270 269 268 268 268 267 267 267 267 267 267 267 267 267 267 267 267 268 268

GFSNGP_850_thetae_060.txt.gz
Theta_e
319 318 318 318 318 319 320 320 320 320 320 321 321 322 321 318 317 320 320 319 321 326 328 328 328 327 326 326 326 326 327 324 323 321 321 320 319 317 314 314 311 308 305 304
320 319 318 318 318 318 320 319 321 321 320 321 321 319 317 317 320 321 321 320 321 323 325 325 324 322 325 325 323 322 322 321 319 318 318 316 314 312 310 308 306 304 303 302
320 320 319 321 320 319 319 321 321 321 321 321 321 319 318 318 319 319 318 318 319 320 320 320 321 321 321 321 319 319 318 316 315 313 313 310 309 307 306 304 303 302 302 302
320 319 328 320 319 320 320 320 321 320 320 320 319 318 315 317 318 315 315 315 315 315 316 316 317 317 316 315 316 315 314 313 311 309 307 305 304 304 303 302 302 301 300 299
327 322 320 319 317 319 321 321 321 320 320 318 315 313 312 311 313 312 311 311 311 311 312 312 312 312 311 312 313 313 309 306 304 306 306 304 302 302 302 301 300 299 297 295
319 324 329 320 320 318 319 322 320 318 318 317 315 319 319 309 309 308 308 308 309 310 309 310 309 308 310 310 308 306 304 303 302 301 301 302 302 301 297 296 294 294 293 292
323 325 323 320 317 315 321 323 320 318 318 316 318 318 314 308 307 307 307 307 307 306 306 306 305 305 305 304 303 301 300 301 300 302 301 298 296 294 293 292 290 290 289 289
323 327 327 315 314 320 321 319 319 317 317 317 314 310 308 306 305 305 305 305 304 304 304 304 304 304 303 302 300 300 300 302 300 297 295 293 291 291 291 292 291 291 290 288
321 324 321 316 319 317 318 319 317 317 316 316 310 308 306 305 304 304 304 303 303 303 302 302 301 300 299 297 298 299 298 296 294 292 290 290 290 289 289 288 286 287 286 287
320 321 319 317 316 315 315 315 315 315 315 312 310 307 305 304 303 302 302 302 301 299 298 297 297 298 300 298 296 294 293 291 290 290 289 288 286 285 285 284 284 284 285 285
321 321 317 317 317 317 315 313 312 313 313 311 309 306 304 303 302 301 301 299 299 298 297 297 298 298 298 296 292 291 290 289 289 287 286 285 284 284 283 282 282 281 282 282
323 321 320 321 320 319 316 314 313 312 311 309 307 305 303 302 301 300 299 298 297 295 297 297 296 295 293 291 290 289 288 287 286 285 284 283 283 283 282 281 281 280 279 278
320 319 319 317 315 315 315 314 312 311 309 307 305 303 302 300 299 298 297 296 294 296 296 294 292 291 289 289 288 286 285 285 284 283 282 282 281 281 282 281 280 279 279 278
316 314 315 314 315 314 313 310 309 308 306 305 303 302 300 299 296 296 295 293 295 295 293 291 289 288 287 286 285 285 284 283 282 282 281 280 280 279 280 280 280 279 278 277
314 313 314 312 311 310 308 307 305 304 302 301 300 299 298 296 296 294 292 294 293 291 290 288 287 286 285 284 284 283 282 282 281 280 280 279 279 278 278 278 278 277 277 276
313 309 308 308 307 305 304 303 303 301 300 299 298 297 296 295 292 290 291 291 290 289 287 286 285 284 284 283 282 281 281 280 280 279 279 278 278 277 277 277 276 276 276 275
308 307 307 306 305 303 303 303 301 299 298 297 296 295 292 290 288 286 287 288 288 286 284 284 284 283 282 282 281 280 279 279 279 278 278 277 277 276 276 275 275 274 274 273
307 306 306 305 304 301 300 299 298 297 295 293 291 291 290 288 289 290 289 286 285 284 283 283 283 282 281 280 280 279 279 278 278 277 277 276 276 276 275 274 273 273 273 272
303 303 302 301 300 299 296 295 293 293 292 292 291 292 292 292 290 288 285 284 285 284 283 281 281 280 280 279 279 278 278 277 277 276 276 276 275 274 274 273 273 273 272 271
301 299 298 297 296 294 293 292 292 291 292 293 292 290 289 287 285 286 287 285 283 282 281 280 279 279 278 278 277 277 276 276 276 275 275 274 274 273 273 272 272 271 270 270
297 296 295 294 294 294 293 293 293 292 291 291 289 287 286 288 288 286 283 282 281 280 280 279 278 277 277 277 276 276 275 275 274 274 273 273 272 271 272 271 271 270 269 269
294 294 292 292 293 292 292 292 291 289 287 287 288 289 288 287 285 282 281 280 280 279 278 277 277 276 276 275 275 274 274 273 273 272 271 271 271 271 271 270 270 269 269 269
291 291 291 291 291 290 290 289 288 288 288 287 287 286 285 283 281 280 279 279 278 277 277 276 276 275 274 274 273 273 272 272 272 271 270 270 270 269 269 269 269 269 268 268
290 290 290 289 288 287 287 286 287 287 286 285 283 282 281 280 279 279 278 278 277 276 276 275 274 273 273 272 272 271 271 270 270 269 269 269 268 268 267 268 268 268 268 268
288 287 287 287 287 285 286 285 285 283 282 281 280 280 279 279 278 278 277 276 276 275 274 273 272 272 271 271 270 270 270 269 268 269 268 267 266 266 267 267 267 267 267 267
287 286 285 285 284 283 283 283 283 281 281 280 279 279 278 278 278 277 276 275 274 273 272 272 271 271 270 270 270 269 269 267 266 266 267 267 266 266 266 267 267 267 267 267
284 284 283 283 282 282 282 281 281 280 280 279 278 278 277 277 276 275 274 273 273 272 271 271 270 269 269 269 268 267 267 266 266 267 267 266 266 266 266 266 267 267 267 267

GFSNGP_850_thetae_063.txt.gz
Theta_e
320 320 320 320 320 321 322 322 323 322 321 321 321 322 322 322 322 321 322 321 321 326 327 329 330 329 328 326 325 325 325 325 323 323 322 321 320 319 319 316 315 312 310 307
320 320 319 319 319 319 319 319 319 319 320 321 320 319 321 321 321 322 323 323 323 325 329 330 330 325 325 325 326 326 325 322 322 320 319 318 316 315 314 313 311 308 306 304
322 320 320 323 320 319 319 320 320 321 321 321 321 321 320 320 321 322 323 323 324 326 328 327 325 322 319 320 321 321 320 318 317 315 314 312 310 311 310 308 306 305 304 303
325 324 327 321 320 320 320 320 320 320 320 321 320 320 320 320 321 321 321 321 322 323 322 322 321 319 318 316 314 312 311 310 308 307 307 307 307 305 305 304 303 302 301 300
327 325 321 320 320 320 320 320 320 320 320 320 320 320 319 318 320 319 319 319 319 318 318 317 315 314 313 312 310 309 308 307 306 306 307 306 305 303 302 302 300 299 298 298
325 324 326 321 320 320 321 324 321 320 320 320 320 322 320 316 318 316 315 314 315 315 314 314 312 311 310 309 309 308 307 306 305 304 303 302 302 301 300 300 298 297 296 295
325 325 322 320 320 320 323 324 320 320 320 320 321 320 319 315 314 313 313 312 312 313 312 311 310 310 310 308 307 306 305 304 303 303 302 300 299 298 296 295 294 294 292 294
325 328 327 319 319 322 323 321 321 321 320 320 320 318 316 314 312 311 311 310 311 310 310 309 309 309 308 306 304 303 302 300 300 298 296 296 296 295 294 294 294 293 291 289
323 324 322 318 320 319 320 322 322 321 320 320 319 316 314 312 311 310 309 309 309 309 308 308 308 307 305 303 301 300 299 297 296 295 294 293 293 292 291 290 290 289 288 288
323 322 321 320 320 319 320 320 321 320 320 320 318 315 313 311 310 309 309 308 308 307 307 305 304 302 301 300 298 297 296 295 293 292 290 289 289 288 288 288 286 285 286 287
319 318 318 320 320 320 320 319 319 317 318 319 317 314 312 310 309 309 308 307 306 304 302 301 299 298 297 297 296 295 293 291 290 289 288 288 287 286 285 285 284 283 283 282
322 318 320 320 320 322 321 320 318 317 317 317 315 312 311 309 308 307 306 304 303 302 300 297 296 295 294 294 293 291 289 289 288 287 286 286 286 286 285 283 282 282 281 280
318 318 319 320 320 317 320 320 319 317 317 315 314 311 309 308 307 306 304 303 301 298 295 293 291 290 289 289 289 288 288 287 286 285 285 284 284 284 285 284 282 282 281 280
316 317 318 319 318 316 316 317 316 315 314 314 312 310 308 306 304 303 302 300 297 293 291 289 288 288 287 288 288 287 286 285 284 284 284 283 283 282 283 282 282 282 281 279
316 318 318 317 315 314 313 313 312 313 312 311 309 307 306 304 302 301 298 294 291 289 288 287 286 285 285 285 285 284 284 283 283 282 282 281 280 280 281 281 281 280 280 279
316 317 317 314 314 313 311 310 311 309 308 307 306 304 303 301 299 295 292 291 289 287 285 286 288 285 284 283 283 283 282 281 281 280 280 280 279 279 279 279 279 279 278 278
315 315 314 313 313 311 309 309 308 306 305 304 303 301 299 295 291 290 287 287 286 288 288 285 284 284 283 283 281 281 280 281 280 279 279 278 278 278 277 277 277 277 277 276
311 310 310 310 311 309 307 306 304 303 302 300 298 296 292 289 285 285 286 287 287 286 284 285 289 286 283 282 281 280 280 279 279 278 277 277 277 276 276 276 276 275 275 274
306 306 305 305 305 303 301 300 299 297 296 296 294 290 289 288 288 288 287 286 285 287 288 286 283 281 281 280 279 279 279 278 277 277 277 276 275 275 274 274 274 273 273 273
300 300 300 300 299 299 296 295 294 293 292 292 290 289 288 287 287 286 285 286 285 285 283 281 281 280 280 279 278 278 277 277 276 275 274 275 274 273 273 273 272 272 272 271
294 295 295 294 292 291 290 290 290 289 289 290 289 288 287 286 286 285 285 285 283 281 280 279 279 278 278 277 276 276 276 275 274 273 273 273 272 272 272 271 271 270 270 270
290 290 289 289 289 288 289 289 289 289 289 289 288 287 286 284 284 283 282 282 281 279 278 278 277 276 276 275 275 274 273 273 272 272 272 271 271 270 270 270 269 269 268 268
288 288 288 288 288 288 289 288 288 288 287 286 285 284 284 282 281 281 280 279 279 277 276 276 276 276 275 275 274 272 272 271 271 271 270 270 269 269 268 268 267 267 267 267
287 287 287 287 287 287 286 285 286 285 285 284 283 281 281 280 280 279 279 278 277 276 276 276 275 275 274 273 271 271 270 270 270 270 269 269 268 268 267 267 266 266 265 265
285 286 286 286 285 283 283 283 282 282 281 280 280 279 279 279 279 277 278 278 277 275 274 275 275 274 273 271 270 269 269 268 269 268 267 267 267 267 266 266 265 265 265 266
284 283 283 282 282 282 282 281 281 281 281 280 278 278 279 279 278 277 277 276 275 274 273 272 271 271 270 269 269 268 268 267 267 267 266 265 266 265 265 264 264 264 264 265
281 281 281 280 279 279 279 279 279 278 277 278 277 276 275 275 275 274 274 272 271 271 270 270 269 269 267 267 266 267 266 266 266 265 264 264 264 264 263 263 263 265 266 266

GFSNGP_850_thetae_066.txt.gz
Theta_e
320 321 321 322 321 320 320 323 326 325 322 322 322 322 322 323 322 321 321 321 321 324 327 329 330 330 331 331 331 330 330 329 328 326 325 321 321 321 320 319 318 316 314 312
323 321 321 321 321 321 320 320 321 322 322 322 321 320 320 322 322 322 322 323 322 322 328 331 331 331 330 330 330 328 327 327 326 323 321 320 319 319 317 315 313 312 310 308
323 321 320 320 321 320 320 321 321 321 321 321 320 321 321 320 320 321 324 324 324 325 330 331 330 329 326 325 325 324 322 321 320 319 318 317 314 312 312 311 310 308 306 305
325 321 324 321 321 320 320 320 320 320 320 320 320 320 321 321 321 322 324 324 325 328 328 326 324 323 320 320 319 318 318 316 315 313 311 309 309 309 308 307 306 304 303 303
324 324 322 320 321 321 321 321 321 320 320 320 320 321 321 321 321 322 322 323 324 324 324 322 320 318 316 314 313 312 310 309 307 307 305 305 306 306 304 303 302 301 299 298
327 324 325 323 321 320 321 322 321 321 322 321 321 325 323 320 321 321 320 321 321 320 319 318 317 315 313 312 310 309 307 307 306 305 304 305 304 303 301 300 299 299 297 297
323 325 324 321 321 320 322 324 322 321 321 321 323 323 321 319 320 319 319 318 318 317 316 314 313 312 311 310 309 308 307 305 304 303 303 302 301 300 299 298 297 296 294 293
324 324 325 321 320 321 322 322 321 321 321 320 321 320 319 319 318 317 315 315 315 315 314 312 311 311 310 309 307 306 305 304 303 301 300 299 298 296 295 295 295 294 293 291
323 324 324 320 320 320 320 323 321 322 322 321 321 319 318 317 315 314 314 314 314 313 312 311 311 310 308 306 305 304 302 300 299 297 296 296 295 294 294 292 291 290 289 288
322 322 322 322 320 319 320 320 321 321 322 321 321 319 317 315 314 313 313 312 312 311 310 310 309 308 306 304 302 300 299 297 296 294 293 292 291 289 290 290 289 288 286 286
321 321 319 319 318 319 320 321 320 320 319 320 321 318 316 314 313 312 312 311 310 310 309 308 307 305 302 301 300 298 296 294 294 292 290 289 289 289 288 287 285 284 284 284
322 319 321 321 321 321 320 320 322 321 319 318 320 318 315 313 312 311 311 310 309 308 306 304 302 300 299 298 297 295 292 291 290 289 288 288 287 287 286 285 284 283 282 281
316 317 318 318 319 318 317 318 320 320 319 318 319 318 315 313 311 311 310 309 307 304 302 299 297 296 295 294 293 291 290 290 288 287 287 286 286 285 285 285 284 283 283 282
315 315 317 317 319 318 317 317 318 318 318 317 317 315 313 311 310 309 307 305 303 300 297 294 292 290 290 290 290 289 288 286 286 285 285 284 284 284 283 284 283 283 282 281
314 315 316 318 318 317 315 315 314 315 315 315 315 313 311 309 307 306 304 302 298 294 291 289 287 286 286 286 285 285 285 285 285 284 283 283 282 281 281 281 281 281 280 280
316 316 317 317 317 315 314 313 312 313 312 312 311 309 308 306 303 301 298 294 291 289 287 285 285 284 283 284 285 284 283 283 284 283 282 282 281 280 280 280 280 279 279 279
315 316 315 315 314 314 311 310 311 310 309 308 307 305 303 300 296 293 291 290 287 285 285 285 283 284 285 285 286 289 288 285 282 281 280 280 280 279 278 278 278 278 277 277
310 311 310 311 311 310 308 307 306 306 305 303 302 300 297 295 291 289 288 287 286 286 287 287 286 287 287 286 285 284 283 281 280 279 279 278 278 277 277 277 276 276 276 275
305 305 305 307 307 305 303 302 302 301 299 300 299 295 292 290 289 288 287 289 288 286 285 286 286 285 284 283 281 281 280 279 278 278 277 277 276 276 276 275 275 275 274 273
299 299 299 299 299 301 298 296 296 295 293 295 293 291 290 288 287 286 286 286 286 286 285 284 284 283 281 280 279 278 278 277 277 276 276 275 275 275 274 274 273 273 272 272
292 292 292 292 291 291 292 292 292 291 290 291 291 288 287 286 286 285 285 285 283 283 283 282 281 281 280 278 277 277 276 276 275 275 274 274 273 273 273 272 272 271 271 270
289 288 288 288 288 287 288 289 290 289 289 288 287 286 285 284 284 284 283 284 282 281 280 280 278 277 277 276 275 275 275 274 273 273 273 273 272 272 271 271 270 270 269 269
287 287 287 287 286 286 287 287 287 287 286 285 284 284 283 282 281 282 282 280 278 277 277 277 276 276 276 275 274 274 273 272 272 272 272 271 271 270 270 269 269 268 267 267
286 286 285 285 286 286 285 284 285 284 284 283 282 281 281 282 281 280 279 278 277 276 276 276 276 275 274 273 272 272 271 271 270 270 270 270 269 269 269 268 268 267 266 266
285 284 284 284 284 283 283 282 282 281 281 280 280 280 281 280 279 278 277 277 276 275 274 273 273 272 272 271 270 270 269 269 269 268 268 268 267 267 267 267 266 266 265 264
283 283 283 283 282 282 282 282 281 281 280 279 278 277 277 276 275 275 275 274 273 272 272 271 270 270 269 269 269 268 268 268 267 267 267 266 266 265 265 265 265 264 263 263
281 281 281 280 280 280 279 279 279 278 278 277 277 276 275 275 274 274 273 272 272 271 270 270 269 269 268 268 267 267 266 266 266 265 265 264 264 263 263 263 263 263 264 264

GFSNGP_850_thetae_069.txt.gz
Theta_e
318 321 322 321 320 319 321 323 323 323 323 321 319 318 319 321 320 320 321 321 324 324 326 325 324 329 330 331 330 329 327 329 329 329 327 325 323 323 321 321 321 320 319 316
319 320 320 322 321 319 319 318 319 322 322 320 319 319 320 322 321 321 321 321 321 325 327 327 326 324 329 329 329 329 330 329 327 326 325 323 322 322 321 319 318 316 314 312
320 319 320 320 319 320 320 318 318 317 317 318 317 317 318 320 322 322 322 322 322 324 329 329 329 328 328 329 327 325 325 325 325 323 323 321 320 319 317 315 314 313 311 309
320 318 321 319 319 320 319 319 318 318 317 317 317 319 320 320 321 322 323 323 323 324 328 330 330 330 330 329 327 326 324 323 321 320 319 317 315 314 312 311 310 309 306 305
320 320 320 320 319 319 319 318 317 317 317 316 318 320 321 321 321 322 323 323 324 328 330 330 329 327 326 323 322 322 321 320 317 315 313 311 311 311 309 308 305 303 302 300
318 320 320 320 319 319 319 318 318 319 318 318 319 317 317 321 321 322 322 323 324 326 326 326 324 322 320 319 318 317 315 313 312 310 310 309 307 306 305 302 301 299 298 298
316 321 320 320 319 319 320 317 319 320 319 320 317 318 321 320 321 320 322 322 323 323 323 322 320 318 315 314 313 312 311 308 306 306 306 305 304 303 301 300 299 299 297 296
316 320 321 319 319 319 317 319 319 320 322 321 320 321 320 319 320 320 320 320 320 320 320 318 317 316 313 312 310 309 308 307 305 305 303 302 301 300 299 299 298 297 296 294
319 317 318 319 318 319 320 320 321 321 321 322 320 319 319 319 319 319 319 319 318 317 316 315 314 313 311 309 308 307 307 305 303 302 301 300 299 298 297 296 295 294 293 292
318 319 318 319 320 320 320 320 320 320 320 321 320 319 319 319 318 318 316 316 316 315 314 312 311 311 310 308 307 306 305 302 300 299 298 297 296 295 294 294 293 292 290 289
319 319 317 317 316 315 318 319 319 321 320 320 320 320 319 318 316 315 314 314 314 313 312 311 310 309 308 307 305 304 301 299 297 296 295 295 294 293 291 290 289 288 287 286
316 318 317 316 316 315 316 317 318 318 321 320 319 320 319 317 315 314 313 313 312 311 310 309 308 306 305 303 302 300 297 295 293 292 290 290 289 289 287 286 285 284 284 283
311 312 316 319 320 318 318 317 318 319 319 319 318 320 317 315 314 312 312 311 310 309 307 304 302 301 300 299 298 297 295 293 291 289 288 288 287 287 286 286 285 284 284 283
314 314 316 315 318 318 318 317 317 317 317 317 318 318 316 313 312 311 310 309 308 305 302 300 298 297 294 294 293 292 291 290 289 287 287 286 286 285 285 284 284 283 282 282
316 315 314 314 318 317 316 315 314 314 315 315 315 314 312 311 310 308 306 305 303 301 297 296 294 291 290 289 290 290 288 286 286 286 285 284 284 284 282 282 281 281 281 281
315 316 316 316 315 314 314 313 312 312 311 311 311 310 309 308 305 301 299 298 300 293 289 290 290 288 286 286 286 286 287 287 284 284 286 285 284 284 282 281 280 280 280 279
311 311 313 313 312 312 312 311 311 310 309 309 306 304 304 302 298 295 293 292 292 288 287 288 288 288 288 289 289 287 286 287 287 285 285 284 282 281 279 279 278 278 278 278
307 309 310 311 310 310 309 308 308 307 306 303 301 299 298 297 293 289 287 288 289 289 289 288 288 287 286 286 286 286 285 284 283 283 281 280 279 278 277 277 276 276 276 276
304 305 306 306 305 305 304 302 302 302 300 298 297 295 293 291 290 289 289 290 289 288 285 285 286 285 285 285 285 284 283 281 280 280 279 278 277 276 276 276 275 275 275 274
295 297 298 298 298 298 297 294 294 293 292 294 294 292 290 289 289 288 288 287 286 286 284 284 284 283 283 282 281 280 279 278 277 276 276 276 275 275 274 274 273 273 273 272
290 290 290 291 290 290 290 290 291 290 289 291 292 289 287 286 286 287 287 286 283 283 283 283 282 281 280 278 277 276 276 275 275 275 274 274 273 273 273 272 272 272 271 271
287 287 287 288 288 287 288 288 289 288 287 287 286 286 286 285 285 284 283 283 281 281 280 279 278 276 276 275 275 275 274 274 273 273 272 272 272 271 271 271 270 270 269 269
285 285 285 285 285 284 286 286 286 285 285 284 284 284 283 282 282 282 280 278 278 277 277 276 276 275 275 274 274 273 273 272 272 271 271 270 270 270 269 269 268 268 267 267
284 284 284 284 285 285 284 283 283 283 282 282 282 281 282 281 279 278 278 277 276 276 275 274 274 273 273 273 272 271 270 270 269 269 269 268 268 268 267 267 267 266 266 266
284 283 283 283 282 282 282 281 281 281 281 280 280 279 279 278 279 276 276 275 275 274 273 272 271 271 270 269 269 269 268 268 267 267 267 267 266 266 266 265 265 265 265 265
283 282 282 282 282 281 281 280 279 279 278 278 277 276 276 275 275 274 274 273 272 271 271 270 269 269 268 268 267 267 266 266 266 266 265 265 265 264 264 264 264 264 264 264
281 281 281 280 280 280 280 279 278 277 276 276 276 275 274 273 273 272 272 271 270 270 269 268 268 268 267 267 266 266 266 265 265 264 264 264 264 264 264 263 263 263 264 264

GFSNGP_850_thetae_075.txt.gz
Theta_e
315 315 318 319 318 318 318 318 320 320 321 320 319 318 317 318 319 318 320 321 323 324 323 323 323 324 325 326 326 326 326 325 325 325 325 325 326 327 327 326 323 321 324 320
316 316 318 319 318 317 317 318 318 319 319 317 319 319 317 319 318 317 318 320 321 324 322 322 321 321 323 325 327 328 328 327 327 327 328 325 324 324 328 325 326 325 322 322
317 318 319 318 317 317 318 318 318 318 318 318 317 317 317 319 319 320 319 319 320 321 321 322 322 321 322 325 327 328 328 329 328 328 324 322 323 324 323 322 323 322 322 320
315 317 320 317 317 317 318 318 319 317 315 315 316 319 320 319 319 320 320 319 319 321 322 322 323 324 324 326 328 329 329 329 328 327 324 324 325 324 323 322 321 320 319 318
317 316 316 317 317 318 319 319 318 318 316 314 314 315 316 318 318 319 320 320 320 320 322 323 324 324 326 327 328 329 328 326 324 323 323 322 322 321 320 319 319 317 315 314
315 317 315 315 315 316 317 319 317 316 316 315 314 315 313 319 319 318 320 320 320 320 321 322 323 325 325 326 327 326 324 324 324 323 322 321 320 319 317 315 314 312 310 309
317 318 315 314 316 317 321 317 316 317 318 317 314 315 318 319 319 319 319 320 321 321 322 323 324 325 326 326 326 324 323 322 319 318 318 317 316 314 312 311 309 308 307 305
312 315 318 316 318 318 316 316 318 318 318 318 318 318 319 319 319 319 320 321 322 322 322 324 325 326 326 325 323 319 318 316 316 315 313 312 310 309 308 307 306 304 303 302
315 314 314 317 318 318 318 317 317 317 317 318 319 320 319 318 320 320 321 321 321 323 324 326 325 324 323 320 317 316 314 313 311 310 308 307 307 306 304 303 302 301 300 299
315 315 316 318 318 318 318 318 317 318 318 316 317 319 318 318 320 321 322 322 323 324 323 323 321 319 317 316 314 313 311 309 306 305 304 303 303 302 301 300 299 299 298 297
315 314 316 316 317 316 316 317 317 316 317 317 318 319 319 319 319 321 321 322 322 322 321 319 318 316 314 313 311 309 307 306 305 303 302 300 300 300 299 298 296 296 294 293
310 312 315 314 315 314 315 317 316 317 317 318 318 318 318 317 318 319 320 320 320 319 318 316 315 314 312 311 310 309 307 305 304 303 301 300 299 297 294 293 291 291 289 289
310 311 313 314 315 316 316 314 315 313 314 316 317 317 317 316 315 317 318 317 316 314 313 311 311 310 309 308 307 307 306 303 300 298 295 293 292 291 292 289 287 286 284 283
310 309 314 315 315 316 315 313 315 315 316 316 316 317 316 315 314 314 314 311 310 309 308 307 307 306 304 304 304 302 299 296 295 291 290 289 289 289 288 287 286 286 286 287
311 308 310 313 315 315 315 315 315 315 313 314 313 313 312 310 308 306 304 304 304 304 302 301 302 299 296 295 295 292 292 291 292 291 290 290 289 288 287 287 286 285 284 282
307 307 307 311 309 311 311 309 309 307 307 307 307 305 303 303 300 297 297 297 300 297 294 294 292 289 289 291 293 293 292 290 290 288 287 286 286 285 284 283 282 281 281 280
298 302 303 303 305 306 306 305 303 300 301 301 299 297 296 296 294 293 292 292 291 289 289 291 290 290 291 291 290 289 288 287 286 286 285 284 283 282 282 281 280 279 278 277
295 294 295 298 298 298 298 297 297 296 296 293 293 293 292 292 289 288 288 289 290 289 288 287 288 288 288 287 287 286 286 285 284 283 282 281 281 280 279 278 277 276 276 275
295 296 297 298 295 295 293 291 291 290 289 289 290 289 288 287 287 286 287 287 286 285 282 284 285 285 285 284 284 284 283 282 282 281 280 279 277 276 275 275 274 274 273 273
289 291 293 290 290 291 289 288 288 288 287 288 286 287 287 286 286 286 286 284 282 281 281 282 283 283 283 282 282 281 280 279 278 277 276 275 274 274 273 273 272 272 271 271
286 286 286 287 286 286 286 286 287 286 286 287 287 285 284 283 283 283 283 281 279 280 281 281 280 279 278 278 278 278 278 277 276 275 274 273 272 272 271 270 270 269 269 268
283 283 283 283 283 283 284 285 286 286 285 285 284 283 283 282 282 281 280 280 278 278 278 277 277 277 277 277 276 276 275 274 273 272 271 271 270 269 269 268 268 267 267 266
282 282 282 283 283 282 283 284 283 284 283 283 283 283 282 280 280 280 278 276 276 276 277 276 275 275 274 273 273 272 271 271 270 270 269 268 268 267 267 267 266 266 266 265
281 281 282 282 283 283 282 281 282 281 281 281 280 280 280 280 278 276 275 275 275 275 274 273 272 271 271 270 270 270 269 269 269 268 268 268 267 267 266 266 266 266 266 266
281 281 281 282 281 280 280 280 280 280 280 279 278 278 278 277 278 274 275 274 273 272 271 270 270 270 270 269 269 269 269 268 268 268 267 267 267 267 266 266 266 266 266 266
282 282 281 281 280 280 280 281 280 279 278 277 276 275 275 274 274 273 272 271 271 270 270 270 270 270 269 269 269 268 268 268 267 267 267 267 267 267 266 266 266 266 266 265
281 280 280 280 280 280 279 278 278 276 276 276 275 273 273 272 272 271 271 270 270 269 269 269 269 269 268 268 268 268 267 267 267 267 267 266 266 266 266 266 266 266 266 266

GFSNGP_850_thetae_078.txt.gz
Theta_e
314 312 313 317 317 317 317 316 317 318 320 320 317 317 317 320 319 318 318 321 323 323 322 322 322 323 323 324 325 324 323 323 323 323 323 324 323 323 323 323 323 324 324 322
314 313 314 314 315 315 316 316 317 316 316 316 317 318 317 318 320 318 319 321 322 322 322 322 320 320 321 322 323 324 324 324 324 323 323 324 323 323 323 323 324 324 325 325
316 315 316 317 315 315 316 316 317 318 316 316 316 315 315 319 318 320 321 319 320 321 321 321 321 321 321 322 323 324 325 325 325 324 324 324 323 323 325 326 324 322 323 323
314 315 317 315 315 316 316 316 315 316 316 316 316 316 317 317 318 319 320 320 320 319 320 321 322 322 321 322 323 324 325 326 326 326 325 325 325 325 322 323 322 321 321 321
317 317 315 315 317 317 317 317 315 316 316 317 317 314 314 317 318 319 320 320 320 321 320 319 322 322 322 323 324 325 327 327 327 326 326 325 324 322 323 323 322 321 320 319
315 319 318 313 313 316 316 317 316 316 316 314 313 313 312 317 316 316 318 317 318 319 319 317 321 323 323 324 325 326 327 326 326 324 323 323 321 321 322 320 318 318 315 312
316 316 316 314 314 315 318 317 316 318 317 315 313 314 317 317 318 318 317 317 318 319 319 318 322 323 323 324 325 324 323 323 323 322 321 320 319 317 316 316 314 313 311 309
314 316 317 314 317 319 315 316 317 317 317 318 318 318 319 319 319 318 318 318 318 320 320 321 322 322 324 324 322 322 322 320 319 317 316 316 314 314 313 312 311 309 307 306
312 313 312 314 317 317 318 317 317 318 317 316 317 317 318 317 318 318 319 319 322 322 322 323 324 324 324 323 322 320 317 314 315 314 312 311 310 310 309 308 307 306 304 303
312 312 313 314 315 317 318 318 318 318 318 318 317 318 318 318 318 319 320 321 322 322 323 323 323 323 322 320 318 315 314 313 311 310 309 308 307 306 305 304 303 302 301 300
310 310 312 313 313 315 317 316 318 317 316 316 316 317 318 318 318 319 321 322 321 320 320 319 319 318 316 315 314 312 310 308 307 306 305 304 303 302 301 301 300 299 299 298
308 309 308 310 313 313 314 315 315 316 316 316 317 317 317 317 317 318 316 321 319 318 318 318 316 315 312 312 311 310 308 307 306 305 303 302 301 300 299 297 296 295 293 292
307 307 310 312 312 312 313 315 315 314 314 315 315 314 315 316 315 316 316 315 316 315 313 314 314 313 310 308 308 307 306 305 303 302 300 299 297 295 295 293 293 292 290 287
305 305 310 308 307 310 313 313 313 313 313 314 314 313 313 311 312 314 315 313 309 308 308 308 308 308 305 304 305 304 302 299 297 294 294 293 292 292 291 290 288 287 286 286
303 304 303 304 308 308 308 309 312 312 309 311 310 307 304 304 303 300 298 299 304 303 299 302 303 299 297 298 299 296 295 294 293 292 291 290 289 288 287 286 285 284 283 282
299 302 304 304 303 302 303 305 306 303 303 302 303 301 298 297 296 295 295 295 298 294 292 293 292 289 291 293 293 293 292 291 291 290 288 287 287 286 285 284 283 282 281 280
296 298 300 297 297 295 295 296 298 297 297 297 295 294 294 294 293 292 291 290 290 289 290 290 290 290 291 291 291 290 289 288 287 286 286 285 284 283 282 281 280 279 278 277
292 293 294 296 293 293 293 291 292 292 292 290 290 291 290 291 288 287 287 287 288 287 286 286 287 288 288 287 287 287 286 285 284 284 283 282 281 280 279 278 277 276 275 274
290 291 290 293 289 288 289 289 290 290 289 289 289 288 287 286 286 285 286 287 286 285 283 285 286 286 285 285 285 285 284 283 282 281 280 278 277 276 275 275 274 273 273 272
286 287 288 287 284 285 287 286 286 287 286 287 287 286 285 284 285 285 286 284 281 281 282 283 284 284 284 283 282 282 280 279 278 277 276 275 275 274 273 272 271 271 270 270
283 283 284 284 283 283 284 284 284 284 284 286 286 285 283 282 283 283 283 281 278 280 281 282 282 281 280 279 278 278 277 276 275 274 273 272 271 271 270 270 269 269 269 268
282 281 281 281 281 281 282 282 283 283 284 284 283 282 282 281 281 281 279 279 277 279 279 279 278 276 275 275 274 273 273 272 272 271 271 270 270 269 269 269 269 269 268 268
281 280 281 281 281 281 281 282 282 283 283 282 282 281 281 279 279 279 277 276 276 276 275 274 273 272 272 272 272 271 271 271 270 270 270 269 269 269 269 268 268 268 268 267
281 281 280 281 282 282 281 280 281 281 281 280 280 279 280 280 278 276 274 273 273 273 272 271 271 271 271 271 270 270 270 269 269 269 269 269 269 268 268 268 268 268 267 267
281 281 281 282 282 280 279 279 280 279 279 278 278 277 277 276 277 273 273 272 271 271 271 270 270 270 270 270 270 270 269 269 269 269 269 268 268 268 268 268 267 267 267 267
282 282 281 281 280 280 280 280 279 278 277 276 275 274 274 273 272 272 271 270 270 270 269 269 269 269 269 269 269 269 269 269 269 268 268 268 268 267 267 267 267 267 267 267
280 280 280 279 279 279 279 278 277 276 275 275 274 272 272 271 270 270 269 269 269 269 269 269 269 269 269 269 269 269 268 268 268 268 268 267 267 267 267 267 267 267 267 267

GFSNGP_850_thetae_081.txt.gz
Theta_e
315 314 316 317 314 316 319 319 320 319 320 320 320 320 320 318 318 319 319 318 320 322 322 323 323 324 325 325 325 325 325 323 322 321 322 318 318 318 317 319 320 321 321 322
315 315 316 316 316 314 317 317 317 317 318 318 318 318 318 318 317 318 320 319 320 321 322 322 322 322 323 323 323 324 324 324 324 322 320 321 322 322 322 321 321 322 323 323
315 315 315 317 316 315 315 316 317 319 318 319 318 318 318 317 317 317 319 320 320 321 321 321 321 321 321 321 323 323 323 323 323 323 322 322 321 321 322 322 322 323 322 322
315 316 320 316 315 316 316 316 317 317 317 318 318 317 317 318 318 318 318 319 320 320 320 321 320 321 322 321 322 323 323 323 323 323 323 323 323 322 322 323 322 322 321 322
316 318 314 317 318 318 318 318 317 317 317 316 317 316 318 317 315 314 314 315 317 320 321 321 320 319 321 322 322 322 323 323 324 324 323 322 321 322 322 323 321 321 320 320
316 317 316 316 315 315 317 320 317 317 317 317 314 319 317 317 318 317 318 317 317 317 319 319 318 318 321 322 322 323 324 325 325 325 324 323 322 322 321 321 319 318 318 315
314 316 317 315 315 316 319 320 316 317 317 316 318 318 317 318 318 317 318 317 317 316 316 316 317 319 322 323 323 324 324 323 323 322 322 322 322 320 318 319 317 314 313 311
314 316 317 314 317 319 318 315 317 317 316 317 317 316 318 318 318 318 318 318 318 318 318 317 319 320 323 323 322 323 324 322 322 322 321 320 318 317 315 314 312 310 309 307
315 316 313 313 315 315 317 316 317 317 317 317 316 317 317 318 319 319 319 318 317 319 319 318 319 319 320 320 321 322 322 321 319 318 316 315 314 312 311 310 309 308 306 304
312 311 311 311 312 313 313 314 315 317 317 316 317 317 317 318 318 319 318 317 318 317 317 317 318 319 320 319 318 318 317 315 314 313 312 310 309 308 307 307 305 304 302 302
311 310 311 311 311 310 311 312 312 313 316 316 316 315 315 316 317 317 319 316 316 318 317 316 317 316 315 314 314 313 313 311 310 308 307 306 305 304 304 303 302 301 300 299
311 309 309 309 309 307 310 313 314 314 315 314 316 316 316 315 315 316 316 317 316 318 317 315 314 313 312 312 311 311 310 308 307 306 304 303 302 300 298 298 298 297 296 294
305 303 304 306 306 306 307 309 310 311 312 312 312 313 314 314 313 313 314 313 313 312 316 312 312 311 310 310 309 309 308 306 305 303 300 299 297 296 296 292 293 293 292 291
300 302 305 304 302 304 305 306 305 306 307 307 306 307 307 309 308 306 304 308 309 309 305 304 309 308 306 305 307 307 303 300 298 296 295 294 293 293 292 291 290 288 286 286
297 299 299 300 301 302 302 304 305 303 300 305 300 302 303 303 301 298 298 299 299 299 298 299 301 298 296 299 300 298 296 295 294 292 292 292 291 290 289 288 286 285 284 283
294 298 298 297 297 298 297 298 298 295 293 296 298 296 297 297 296 295 295 295 298 295 293 293 291 291 292 294 294 293 293 292 292 291 289 289 288 287 286 285 283 282 281 280
292 294 294 293 292 293 291 292 291 289 289 290 288 292 292 292 292 291 291 291 291 290 290 290 289 290 291 291 292 290 289 289 289 288 287 286 285 284 283 281 280 279 278 277
290 291 291 291 290 288 287 287 288 287 290 287 287 290 290 291 288 287 287 287 288 288 287 287 288 289 289 289 289 288 288 287 286 285 284 283 282 281 279 278 277 276 275 274
287 288 288 289 289 287 286 284 284 286 286 286 288 288 288 286 285 285 286 287 286 285 283 285 286 286 286 286 286 285 285 285 284 282 280 278 278 277 276 275 274 273 273 272
284 285 285 285 285 285 285 284 282 283 283 286 286 285 284 283 284 285 285 284 282 281 282 283 284 284 283 283 283 282 281 280 279 278 276 275 274 273 273 272 271 271 270 270
282 282 282 282 282 281 282 281 281 280 281 282 284 283 281 281 282 282 282 281 278 280 281 282 282 281 280 278 278 277 276 275 274 273 273 272 272 271 271 271 270 270 269 269
280 280 280 280 280 279 280 280 281 280 281 282 281 281 281 280 281 281 280 279 277 279 280 278 276 275 274 274 274 273 273 272 272 271 271 271 270 270 270 269 269 269 268 268
279 279 279 279 279 279 280 280 280 281 281 280 280 280 280 279 278 278 278 276 275 274 274 273 272 272 272 272 272 272 271 271 271 270 270 270 270 269 269 269 268 268 268 268
279 279 278 279 280 281 280 279 280 280 280 279 279 278 278 278 277 275 273 272 272 272 272 271 271 271 271 271 271 271 270 270 270 270 270 269 269 269 268 268 268 268 268 267
279 279 279 280 280 279 279 279 279 279 279 279 278 277 276 275 275 272 272 271 270 271 271 270 270 270 270 270 270 270 270 270 269 269 269 268 268 268 268 268 268 268 268 267
281 280 280 280 279 279 279 279 279 277 277 276 274 273 273 272 271 270 270 270 270 270 270 270 270 270 270 269 269 269 269 269 268 268 268 268 268 267 267 268 268 268 267 267
280 280 279 279 279 279 279 278 277 275 274 274 273 271 271 270 270 270 270 270 270 270 269 269 269 269 269 269 268 268 268 268 268 268 268 268 268 268 268 267 267 267 267 267

GFSNGP_850_thetae_084.txt.gz
Theta_e
311 313 314 315 317 318 318 318 321 319 319 319 319 321 321 321 320 320 320 320 322 326 327 327 327 327 326 326 324 324 322 321 320 317 316 315 316 317 319 318 319 320 320 320
314 313 314 316 316 317 318 318 318 318 319 320 320 320 320 320 320 320 320 320 320 321 325 327 327 327 326 325 325 325 324 323 322 321 319 320 317 318 319 319 319 320 319 318
313 314 315 316 317 319 318 318 318 319 319 319 319 319 320 319 320 320 320 319 319 319 321 325 324 321 324 324 324 324 325 324 324 323 322 320 320 320 321 321 319 319 320 321
312 314 317 316 316 319 319 318 317 317 318 318 319 318 319 320 319 318 318 317 319 317 319 320 324 322 323 323 322 323 323 323 323 323 323 322 321 321 321 320 320 319 321 323
311 316 315 315 313 317 321 319 318 318 318 319 318 318 319 318 319 319 318 317 318 318 316 318 321 322 321 323 322 322 323 323 323 323 322 322 323 323 322 322 322 323 323 323
312 316 314 314 313 315 316 322 320 320 321 320 320 321 321 319 320 321 319 318 318 318 316 316 317 318 320 322 324 323 323 323 323 323 323 323 323 322 322 323 323 322 321 319
311 315 315 316 316 316 322 322 318 319 320 320 321 321 319 318 320 319 319 319 318 317 316 317 317 317 320 321 323 322 322 322 323 323 323 323 323 323 322 321 320 319 317 315
311 315 315 314 315 317 317 318 318 319 319 320 320 318 318 319 318 318 319 319 317 316 317 316 319 320 320 320 320 321 321 322 323 323 323 322 321 321 319 318 317 314 311 308
315 313 312 310 313 314 313 315 315 317 319 319 318 318 318 319 318 318 319 319 316 315 316 317 317 317 318 319 320 321 322 321 321 321 320 318 318 317 316 314 311 309 307 305
311 312 311 310 312 310 311 312 314 315 315 317 318 318 318 317 316 317 318 320 316 315 316 316 317 318 319 319 320 320 319 318 316 316 314 313 312 310 309 308 307 305 304 302
310 310 311 310 311 309 309 309 310 313 316 317 317 317 317 315 313 314 317 319 317 313 314 315 314 315 317 317 316 316 314 312 310 310 309 307 306 305 304 303 303 303 301 299
312 309 309 311 308 307 307 306 305 307 314 312 315 313 310 309 312 315 315 316 319 316 313 313 313 314 313 314 314 314 313 310 308 307 305 303 302 300 298 297 296 296 295 295
306 303 305 306 307 304 304 303 301 301 302 304 303 303 302 303 306 310 308 308 310 308 308 310 311 312 310 310 311 310 309 307 305 303 302 301 298 298 297 292 293 292 291 290
299 300 306 304 301 300 301 302 299 298 298 299 299 302 301 303 303 304 303 301 301 302 305 305 308 310 306 305 306 307 305 301 300 298 296 295 293 292 292 290 289 286 286 286
297 297 299 299 298 297 298 298 298 296 295 294 295 295 301 294 297 296 296 298 299 300 298 299 300 298 297 298 299 299 298 297 295 293 292 291 290 290 288 286 285 283 282 282
294 296 296 295 294 295 294 295 295 293 291 290 289 290 294 292 291 292 293 293 296 294 293 293 294 293 294 295 296 294 292 291 291 290 290 289 288 287 285 283 281 279 278 278
292 295 293 293 292 291 291 290 290 289 288 287 286 286 287 291 290 289 290 291 292 291 290 290 290 290 291 293 293 292 291 291 290 289 288 287 286 284 283 282 279 279 280 278
288 289 289 289 289 289 288 287 286 285 284 283 284 285 286 288 287 287 287 288 289 289 288 288 288 289 289 289 289 289 288 288 287 287 285 284 283 280 278 277 275 274 274 275
285 285 285 286 286 286 284 283 284 282 281 282 282 283 281 281 284 284 285 286 286 286 284 285 286 287 287 286 287 286 286 285 284 282 280 279 278 276 275 274 273 272 271 271
283 282 283 284 284 283 282 281 282 282 281 281 280 280 281 281 281 284 285 284 281 281 282 283 284 284 284 284 284 282 281 280 279 278 276 275 274 273 273 272 271 270 270 269
280 280 280 281 281 281 281 281 281 280 280 282 281 280 280 279 280 280 280 280 279 281 281 282 282 280 278 278 277 277 276 275 275 274 273 273 272 272 271 271 270 270 269 269
279 279 279 279 278 278 278 279 279 279 280 280 280 280 280 280 281 281 279 278 278 279 278 276 275 274 274 274 274 274 274 273 273 273 272 272 271 271 270 270 270 269 269 269
278 278 278 277 277 277 278 278 279 280 280 280 280 280 280 279 278 278 278 276 274 274 274 273 272 272 273 273 273 273 272 272 272 271 271 271 270 270 270 269 269 269 269 269
278 278 277 277 277 278 277 277 278 278 278 278 278 278 278 278 276 273 272 272 272 272 272 272 272 272 272 272 272 272 271 271 271 270 270 270 270 269 269 269 269 269 269 268
278 278 278 279 279 278 278 277 278 278 278 278 277 277 275 274 274 271 272 271 272 272 272 271 271 271 271 271 271 270 270 270 270 269 269 269 269 269 269 269 268 268 268 268
279 279 278 278 277 277 277 277 277 276 276 274 273 273 272 272 271 271 271 271 271 271 271 270 270 270 270 270 270 269 269 269 269 269 269 269 268 268 268 268 268 268 268 268
279 279 279 279 278 278 277 276 275 274 274 273 272 271 271 270 270 270 270 270 270 270 270 269 269 269 269 269 269 269 269 269 269 268 268 268 268 268 268 268 268 268 268 267

GFSNGP_850_thetae_087.txt.gz
Theta_e
311 311 312 315 316 317 317 318 319 319 319 319 319 320 322 321 322 322 321 321 323 326 328 328 329 330 330 329 328 327 326 325 325 324 325 325 325 324 324 323 323 323 323 322
313 312 313 313 314 315 316 317 318 318 319 319 320 320 321 319 320 321 321 321 322 322 326 328 328 329 330 329 328 328 326 326 325 325 325 325 324 324 324 323 323 322 322 322
313 311 315 316 314 315 317 319 319 319 318 319 319 321 321 320 320 320 321 321 321 321 321 324 328 329 329 329 329 328 327 327 326 325 325 324 324 324 324 323 322 321 321 321
313 311 312 312 317 317 318 318 321 320 319 318 319 319 320 319 320 321 321 321 321 320 320 321 322 328 329 329 328 328 327 327 326 326 325 324 324 323 322 322 321 321 321 321
313 313 312 311 315 314 316 316 320 323 318 318 317 318 319 319 320 321 321 322 322 321 321 319 320 322 327 328 328 328 328 327 327 326 325 325 324 323 323 323 323 321 321 322
312 312 314 317 315 315 316 321 318 321 323 321 321 323 322 322 322 322 322 322 322 322 320 319 319 320 324 327 328 327 327 326 326 326 325 325 325 324 324 324 323 321 319 320
312 311 313 316 316 316 320 320 314 316 321 321 322 321 320 321 321 322 321 320 321 321 321 321 321 320 320 324 326 327 326 326 325 325 325 325 324 323 323 322 320 319 318 317
312 311 313 314 316 318 316 315 315 317 316 317 317 319 319 320 321 321 320 319 319 320 318 318 320 320 323 323 325 325 325 325 324 323 323 323 321 320 319 319 319 318 316 315
311 312 314 312 315 312 312 313 314 315 317 317 317 318 319 321 320 319 316 315 316 319 317 317 318 320 322 322 321 322 323 322 321 320 319 319 319 318 317 315 316 313 309 308
313 313 313 311 312 311 310 310 310 311 317 317 318 318 319 320 319 315 312 312 315 316 317 315 316 316 317 317 317 317 318 317 317 315 314 313 312 315 312 308 308 307 304 302
310 313 312 311 310 309 309 309 307 308 314 313 318 319 319 316 310 307 311 310 309 310 317 312 310 310 310 311 315 316 315 313 312 310 310 309 307 305 304 306 304 302 299 298
315 310 310 310 309 306 306 307 305 305 307 308 310 310 307 301 302 304 305 305 305 303 305 306 306 306 306 308 310 312 310 308 307 307 305 304 303 301 298 296 296 296 294 295
305 304 306 306 307 303 303 305 304 303 302 304 304 302 298 302 303 302 302 302 303 302 303 301 307 309 308 305 306 311 310 305 301 300 301 301 299 299 297 292 293 292 290 291
300 301 306 302 301 299 299 302 303 302 300 299 300 297 298 301 304 303 300 297 298 300 301 303 304 304 300 302 305 304 302 301 300 297 295 295 294 292 290 289 287 285 286 287
297 298 299 298 298 297 297 297 301 299 297 295 293 292 292 292 295 300 297 295 297 298 298 299 298 297 296 298 299 299 299 296 294 293 290 289 289 289 288 287 285 284 282 282
294 297 297 297 297 295 294 294 295 294 293 291 289 289 289 289 292 293 293 292 296 295 294 295 295 293 294 295 295 294 293 292 292 291 289 288 287 287 285 283 282 281 280 279
293 295 294 295 294 293 291 290 290 289 289 287 285 284 287 287 288 288 288 288 290 290 291 291 290 291 292 292 293 292 291 290 288 287 286 285 284 283 282 282 281 281 280 279
288 289 290 291 291 291 289 286 285 286 286 285 284 283 283 284 283 283 283 283 285 287 287 287 289 289 290 289 289 289 288 287 286 286 284 283 281 280 278 277 276 275 275 275
286 286 285 286 287 287 286 283 282 282 283 283 283 282 281 281 280 280 281 280 282 283 282 285 286 287 288 287 287 286 286 284 282 280 279 278 277 276 276 275 274 274 273 272
284 283 282 281 283 282 281 280 280 280 280 281 282 282 281 280 281 282 284 282 277 277 280 282 284 285 285 285 285 283 282 280 278 277 276 275 274 274 273 273 272 272 271 271
281 280 279 279 279 280 279 279 278 278 278 279 280 280 279 279 280 279 279 279 278 279 281 283 282 280 279 278 278 277 277 276 275 274 273 273 272 272 271 271 271 270 270 270
280 279 279 278 278 277 277 277 278 278 278 279 279 279 279 279 279 280 279 277 277 278 278 276 275 275 275 276 275 275 274 274 273 272 272 271 271 270 270 270 270 269 269 269
279 278 277 277 277 276 277 277 277 278 278 278 278 279 279 277 276 276 276 274 273 273 274 274 273 274 274 274 274 273 273 273 272 272 271 271 270 270 270 270 269 269 269 269
278 278 277 277 277 277 276 276 277 277 278 277 277 275 276 276 275 273 272 272 272 273 273 273 272 273 274 273 273 272 272 271 271 271 271 270 270 270 269 270 269 269 269 269
278 278 278 278 277 276 277 277 277 276 276 276 276 275 274 272 272 271 271 271 272 272 272 272 272 272 272 272 271 271 271 271 270 270 270 269 269 269 269 269 269 269 269 269
279 278 277 278 277 277 276 276 275 274 274 273 272 271 271 271 271 271 271 271 271 271 271 271 271 271 271 271 270 270 270 270 270 270 270 269 269 269 269 269 269 269 269 268
278 278 277 276 276 276 276 275 275 273 272 271 270 270 270 270 270 270 270 270 270 270 270 270 270 270 270 270 270 270 270 270 269 269 269 269 269 269 269 268 268 268 268 268

GFSNGP_850_thetae_090.txt.gz
Theta_e
310 310 310 311 312 316 318 317 318 318 318 319 319 320 320 321 321 322 322 322 324 327 328 330 332 331 331 329 327 326 326 327 326 323 323 322 322 323 324 325 323 322 322 321
312 312 312 312 312 312 315 316 316 316 317 318 318 318 319 321 321 320 321 321 322 322 326 328 330 331 331 330 329 326 326 327 327 327 326 325 324 324 323 323 324 323 323 323
313 312 312 314 314 313 312 314 315 318 320 319 319 319 319 320 321 321 321 321 321 321 322 324 328 329 331 331 330 329 327 327 327 326 327 326 326 326 325 324 323 323 323 323
313 313 313 312 312 317 316 317 317 317 317 319 323 319 318 320 320 320 322 322 322 322 322 321 322 328 329 330 331 330 329 327 327 327 327 326 326 326 326 325 324 324 323 323
313 313 312 312 312 314 316 316 317 319 319 321 323 319 318 321 321 322 323 323 323 322 322 320 320 321 327 329 330 330 329 328 328 327 326 326 326 326 326 325 325 325 324 323
313 312 312 315 317 316 316 318 317 315 316 318 320 324 325 323 323 323 322 322 322 323 322 322 322 320 321 327 329 329 330 329 328 328 327 326 325 325 325 324 325 324 323 323
313 312 312 313 314 314 319 318 315 316 315 317 318 317 318 320 321 322 322 321 320 320 319 319 320 322 321 323 328 328 328 329 328 328 327 327 326 325 325 324 323 323 322 321
313 312 312 315 315 317 315 314 314 314 313 315 317 318 317 318 321 320 318 317 316 316 317 317 317 321 323 323 326 327 327 327 327 327 327 326 326 325 324 323 322 322 320 317
311 312 314 311 313 311 311 311 310 310 311 316 317 318 319 318 318 313 311 312 314 314 313 314 314 317 321 319 320 322 326 326 326 325 324 323 325 324 323 320 319 317 313 310
311 312 314 312 311 309 309 309 307 308 309 311 314 316 315 312 309 306 310 312 313 313 312 310 309 311 314 315 316 318 321 321 322 324 321 320 322 319 317 317 313 311 306 300
313 312 312 310 309 307 307 307 307 306 307 308 309 309 305 303 302 304 306 309 310 310 307 305 306 306 306 307 306 313 313 314 315 315 313 311 309 308 306 304 303 299 298 296
313 307 309 308 304 304 305 305 305 305 304 305 303 301 299 299 301 300 302 304 306 304 305 307 309 308 306 305 303 304 303 299 298 300 300 298 296 295 294 295 295 294 294 295
304 303 305 304 303 301 301 302 304 303 301 301 298 296 295 294 295 296 298 299 301 301 300 301 306 308 307 306 305 304 302 301 297 293 294 293 292 291 288 288 289 284 288 289
300 302 303 301 301 300 299 299 302 300 298 295 294 293 293 293 292 292 293 294 296 298 298 298 299 299 300 301 302 302 302 300 297 294 289 289 289 289 288 288 287 284 284 286
297 298 300 300 300 298 297 297 298 296 294 292 292 291 291 291 290 290 290 291 294 296 295 294 295 294 295 297 298 297 296 293 292 291 290 289 289 289 288 287 286 284 283 283
294 298 297 298 297 296 294 293 293 292 290 288 287 287 286 287 288 288 288 289 293 290 289 290 291 290 292 294 294 293 292 291 291 290 289 288 286 285 284 284 283 282 279 278
291 292 292 292 292 293 291 289 288 287 286 285 284 284 285 285 284 285 284 285 285 286 286 287 286 288 290 291 291 290 289 289 288 287 287 286 285 284 284 283 282 281 279 278
288 288 288 288 289 290 288 286 284 284 283 283 284 283 283 283 282 281 281 282 283 284 284 284 285 286 287 288 289 288 288 287 286 284 283 283 282 281 280 279 278 277 276 275
285 285 284 284 285 285 284 282 281 281 281 281 282 282 281 281 281 282 283 284 283 282 280 281 282 284 284 284 285 285 285 284 283 282 281 280 279 278 277 276 275 274 274 274
282 282 281 280 281 280 280 279 279 279 279 279 279 280 279 280 281 282 283 283 281 278 280 283 283 282 281 282 284 284 283 282 281 278 277 276 276 275 274 274 273 273 272 272
280 280 279 278 278 279 278 279 279 279 279 279 279 278 278 278 279 279 281 280 277 279 281 282 281 280 278 277 277 277 277 276 275 275 274 274 274 273 273 272 272 271 271 271
279 279 278 278 278 277 277 277 277 277 277 277 277 277 278 277 278 279 278 278 277 278 279 277 276 275 275 276 275 275 274 274 274 273 273 272 272 272 271 271 271 270 270 270
279 278 277 277 277 276 277 277 277 277 277 277 277 278 278 277 276 277 277 275 275 275 275 274 273 274 275 275 274 274 274 273 273 272 272 272 272 272 271 271 270 270 270 270
279 278 278 277 277 276 276 276 276 276 276 276 275 275 276 276 276 275 274 272 273 273 273 273 273 274 274 273 273 272 272 271 271 271 271 271 271 270 271 271 270 270 270 270
279 279 278 278 277 276 276 276 276 276 276 276 276 275 275 274 274 272 272 272 272 272 272 272 272 273 273 272 272 271 271 271 272 271 271 270 270 270 270 270 270 269 269 269
279 279 279 278 278 277 277 276 275 275 274 273 272 272 272 272 271 271 271 271 271 272 272 272 272 272 271 271 271 271 271 271 271 270 270 270 270 270 270 269 269 269 269 269
279 278 278 277 277 277 276 276 275 274 273 272 271 271 271 271 270 270 270 271 271 271 271 271 271 271 271 271 270 270 270 270 269 269 269 270 270 270 270 269 269 269 269 269

GFSNGP_850_thetae_093.txt.gz
Theta_e
310 310 310 310 310 310 311 318 319 317 317 316 316 316 317 318 319 319 322 322 323 329 332 332 331 331 331 330 329 327 322 322 321 323 323 322 322 322 322 321 321 320 320 318
313 312 312 312 312 311 311 311 313 314 314 317 317 318 320 321 320 318 321 320 322 324 329 332 332 331 331 331 330 329 326 324 324 322 322 325 323 322 323 323 322 322 322 321
313 312 312 312 312 311 312 312 312 313 318 319 320 321 320 320 321 320 321 323 322 322 322 323 330 331 331 331 330 330 328 326 325 326 325 323 322 323 323 323 324 324 323 322
312 311 311 312 311 312 317 317 317 318 318 317 317 317 320 320 321 322 323 323 322 322 321 321 321 323 329 331 331 330 329 328 325 326 327 326 325 323 322 322 322 324 323 323
310 311 311 311 316 317 317 318 315 315 314 315 316 317 321 318 321 321 321 322 322 322 320 319 318 320 320 327 331 331 330 329 327 325 327 327 327 326 326 324 324 324 323 322
308 312 310 315 314 314 315 318 315 315 315 314 314 319 317 317 319 317 319 319 320 320 319 319 319 319 320 320 324 330 330 330 329 327 326 326 327 327 327 327 326 325 325 324
309 311 311 314 313 314 319 315 312 313 313 314 314 316 317 318 317 318 317 316 317 317 318 318 318 318 320 321 322 326 329 328 329 328 327 327 327 327 326 326 326 326 325 325
308 311 310 311 313 315 310 310 308 309 310 314 314 316 319 315 314 314 314 314 314 314 315 315 316 317 318 319 319 322 325 329 328 328 328 327 327 326 326 326 326 325 324 323
309 309 310 311 309 309 308 307 307 307 308 309 309 311 312 305 305 308 308 309 310 310 311 312 313 313 313 313 315 318 320 321 321 323 324 324 327 326 325 323 323 323 320 318
310 312 312 309 308 307 306 306 305 305 306 306 304 302 304 303 303 304 306 306 306 309 310 310 309 309 310 312 312 314 318 317 315 314 314 316 318 320 320 319 311 312 304 303
312 311 308 305 304 304 304 305 304 303 302 302 301 299 299 298 298 300 300 303 307 309 308 308 307 306 305 307 310 310 311 310 307 306 305 305 305 304 307 304 303 300 298 291
307 301 306 303 301 302 302 303 303 302 300 298 298 297 296 297 297 296 296 301 302 302 303 305 305 304 303 303 305 309 308 306 302 298 296 294 294 291 293 295 295 292 293 293
300 301 302 302 300 300 300 301 300 300 298 297 294 294 293 294 294 295 296 297 298 298 299 301 303 303 300 302 302 303 305 303 301 298 295 293 291 290 288 289 290 290 291 292
299 300 301 300 299 297 297 298 297 296 295 294 293 293 292 292 292 294 294 293 295 296 297 297 298 298 296 298 300 300 300 298 297 295 294 292 290 288 288 288 288 287 287 288
296 297 298 298 296 294 295 295 293 292 291 291 291 291 290 290 289 288 289 291 292 293 292 293 294 294 294 295 297 296 295 294 293 292 291 289 290 290 289 288 287 286 284 284
292 292 293 293 293 293 292 290 289 288 288 287 287 287 286 286 286 286 286 288 290 288 287 288 290 289 291 292 293 293 291 290 290 289 289 288 287 287 286 285 283 282 282 281
289 289 289 289 290 290 288 288 287 286 286 285 284 284 284 284 284 284 284 284 285 284 285 285 285 287 288 289 290 289 289 289 288 287 287 286 285 284 283 282 281 280 279 278
286 286 286 286 287 286 285 285 284 283 283 282 283 283 282 283 282 281 282 282 283 284 284 284 284 285 286 286 286 286 286 286 285 284 283 282 282 281 280 280 279 278 276 275
283 283 282 283 283 283 282 280 280 280 280 281 281 281 281 281 281 281 282 283 283 282 281 283 285 286 286 287 286 285 285 284 284 283 282 281 280 279 278 277 276 275 274 274
280 280 280 280 280 281 280 279 279 279 279 279 279 279 279 279 280 281 281 281 279 278 279 281 282 283 283 282 283 284 284 283 282 280 278 278 277 276 275 274 274 273 273 273
279 278 278 278 278 278 278 279 279 279 278 279 279 279 279 278 279 279 280 279 277 278 279 280 281 281 281 280 279 278 277 277 276 276 275 275 274 274 273 273 273 272 272 272
278 278 277 277 277 277 277 277 278 278 278 278 277 277 278 277 278 278 278 277 276 277 278 278 277 276 276 277 277 277 276 276 275 274 274 274 273 273 272 272 272 272 272 272
277 277 277 277 277 277 277 277 277 277 277 277 277 277 277 277 276 277 277 275 276 275 275 274 274 275 275 275 275 275 274 274 274 273 273 273 272 272 272 272 272 271 271 271
278 277 276 276 276 277 277 276 276 276 277 276 276 276 276 276 276 275 274 273 273 273 273 273 273 273 273 273 273 274 273 273 273 273 272 272 272 271 271 271 271 270 270 271
279 278 277 277 277 276 276 276 276 276 276 276 275 275 275 274 275 273 272 272 272 272 273 273 272 272 272 272 272 272 272 272 272 271 271 271 271 271 270 270 270 270 270 270
279 279 278 278 277 277 276 276 275 275 275 274 273 272 272 271 271 271 271 271 271 271 271 271 272 272 272 271 271 271 271 271 271 271 270 270 270 270 270 270 269 269 269 269
278 278 278 278 277 277 276 275 275 274 273 272 271 271 271 270 271 271 271 271 271 271 270 270 270 270 271 271 271 271 270 270 270 270 270 270 270 270 269 269 269 269 269 268

GFSNGP_850_thetae_096.txt.gz
Theta_e
312 310 310 310 311 311 311 311 315 318 318 318 318 319 320 320 320 319 319 320 320 330 330 330 330 330 330 330 330 328 326 321 318 322 320 320 320 319 319 319 319 319 317 314
312 311 311 312 312 311 311 311 311 314 315 318 318 318 319 321 321 319 321 322 322 329 330 330 330 330 330 330 330 329 328 325 321 318 323 321 320 320 319 320 320 320 320 319
312 311 311 311 311 311 311 317 317 315 319 316 317 318 318 320 321 322 321 320 321 320 323 328 329 329 329 329 328 328 328 327 325 320 319 320 321 320 320 319 320 321 321 321
311 308 309 311 313 316 317 316 315 315 314 315 314 317 318 318 318 317 318 317 318 319 320 320 322 326 328 329 328 329 328 327 326 325 322 321 320 321 321 321 320 320 321 322
309 308 309 311 314 316 316 316 315 314 315 314 314 317 316 318 315 314 315 314 314 315 316 317 318 320 321 326 329 328 328 327 326 326 326 325 324 323 322 322 323 322 323 323
308 311 311 314 314 312 314 318 311 312 312 314 314 316 315 317 314 311 311 315 316 316 316 316 316 317 319 320 324 327 326 326 325 325 326 326 325 326 326 324 323 322 322 323
308 309 310 313 313 312 312 313 308 309 311 313 313 309 308 308 307 307 306 311 313 315 316 316 317 317 316 318 319 320 323 325 326 326 325 326 326 326 327 326 325 324 323 323
308 309 310 310 311 312 309 308 307 307 308 310 309 309 309 305 307 304 306 309 311 312 312 313 314 313 313 314 315 315 319 319 322 326 326 325 326 326 326 327 326 326 325 324
308 308 310 308 307 307 307 305 305 306 306 306 304 303 301 307 305 306 305 306 307 307 308 311 312 312 312 312 312 314 316 317 318 317 320 323 323 324 325 324 324 322 320 318
310 311 309 306 305 305 305 304 304 304 303 302 301 298 297 298 303 307 304 303 305 306 308 308 307 307 305 305 307 309 313 315 314 315 315 314 312 311 309 310 313 317 312 307
310 305 304 302 302 302 303 303 302 300 300 299 299 297 296 295 296 298 301 302 303 305 305 303 303 306 306 304 305 307 307 305 309 312 311 309 306 301 300 297 294 296 294 295
304 299 303 301 299 300 301 300 299 298 297 296 297 295 295 295 295 296 297 298 300 301 301 301 301 304 303 304 305 305 303 301 297 296 299 303 303 299 296 294 294 292 293 293
298 299 300 299 298 298 298 297 296 296 294 292 293 294 295 294 294 294 295 295 296 297 297 298 301 302 301 302 303 303 302 300 297 294 293 293 292 292 293 291 291 291 291 290
296 298 299 297 295 296 296 295 294 293 292 291 291 292 292 292 291 292 292 291 292 293 295 296 297 298 297 300 301 301 299 297 296 295 292 291 290 290 288 288 288 287 287 289
293 294 294 294 294 294 294 293 292 290 290 290 290 289 289 289 290 289 289 290 290 291 291 293 293 294 292 295 297 297 296 295 293 291 290 289 289 288 287 287 286 285 284 285
291 291 292 292 291 290 291 289 289 288 288 288 287 286 286 286 286 286 287 288 290 288 287 288 289 288 290 292 293 293 292 292 291 290 289 288 288 288 286 285 285 284 284 283
289 288 288 288 288 288 287 286 286 285 285 285 284 283 284 284 284 284 284 285 285 286 286 287 286 287 288 290 290 289 289 288 288 288 288 287 287 286 285 284 284 283 283 281
285 285 285 285 285 285 285 284 283 283 283 282 282 282 283 283 283 282 283 283 284 285 285 285 286 287 288 288 289 289 288 287 286 286 285 285 284 284 284 283 282 280 277 276
282 282 282 282 283 283 282 282 281 281 281 281 281 281 281 281 281 281 282 283 283 283 282 283 284 285 286 286 286 286 286 286 285 285 284 283 283 281 281 280 278 276 275 275
280 280 280 280 281 281 280 279 279 279 279 280 280 279 279 279 280 280 281 282 280 279 280 281 282 283 282 283 284 284 284 283 283 283 281 280 278 277 276 275 275 275 274 274
279 278 279 279 278 278 278 278 279 278 278 278 279 279 279 278 279 279 279 280 278 278 280 280 281 281 281 281 282 282 281 280 279 278 277 276 276 275 275 274 274 273 273 273
278 277 277 277 277 277 277 278 278 278 278 278 278 278 278 278 277 278 277 277 276 277 278 279 279 278 278 277 277 277 276 276 276 275 275 274 274 274 273 273 273 272 272 272
277 277 277 277 277 277 277 277 277 277 277 276 277 277 277 277 276 277 277 275 275 276 276 275 274 274 275 276 276 275 275 275 274 274 273 273 272 272 272 272 271 271 271 271
277 277 277 276 276 277 277 276 276 276 276 276 276 276 276 277 276 275 275 274 274 274 274 274 274 274 274 274 273 273 273 273 273 273 272 272 272 271 271 271 271 271 270 270
277 277 277 277 277 277 276 276 276 276 276 276 276 275 275 275 275 273 272 272 272 272 273 273 273 272 273 273 272 272 272 272 272 271 271 271 271 270 270 270 270 270 270 270
278 278 277 277 277 277 277 276 276 275 274 274 273 273 272 272 272 271 271 271 271 271 271 271 271 271 272 272 271 271 271 271 271 271 271 270 270 270 270 270 270 269 269 269
278 278 278 277 277 276 276 275 275 274 273 272 272 271 271 271 271 271 271 271 270 270 270 270 270 270 270 270 270 270 270 270 270 270 270 270 270 269 269 269 269 269 269 269

GFSNGP_850_thetae_099.txt.gz
Theta_e
312 311 309 310 311 312 310 311 312 314 315 318 318 318 318 319 320 319 317 320 320 327 328 328 327 327 326 326 327 326 325 324 320 318 319 320 320 319 319 318 318 318 315 313
311 309 309 311 311 310 310 311 312 311 313 316 317 317 319 320 321 319 317 320 316 319 327 327 328 328 327 326 326 327 326 324 322 319 319 319 319 319 319 319 319 318 317 316
310 309 308 311 310 310 315 315 317 317 316 315 316 318 318 318 317 317 315 316 316 315 317 323 326 326 326 327 326 326 326 326 325 323 320 318 319 319 319 319 319 318 318 318
309 307 306 311 315 314 316 315 314 315 314 314 313 317 317 313 312 311 312 310 312 314 316 318 319 324 326 327 327 328 327 325 325 324 323 320 320 319 318 319 319 318 318 319
306 307 307 314 313 315 315 313 311 312 313 314 313 315 310 307 308 307 307 307 310 311 315 316 317 318 320 324 326 325 324 324 324 326 325 324 322 320 320 318 318 318 319 319
305 309 307 312 313 311 313 316 309 309 312 311 311 313 310 307 308 305 305 305 308 310 311 314 316 315 318 320 324 324 324 323 324 324 324 325 325 324 322 321 321 321 319 319
307 306 308 311 311 310 312 311 308 308 310 312 311 309 306 304 308 306 305 305 304 305 308 311 313 314 315 315 316 316 318 320 321 322 323 323 324 325 325 323 323 321 321 322
308 307 308 308 310 309 307 308 306 306 307 307 306 304 303 300 301 305 304 305 299 299 302 304 306 309 312 313 313 314 315 316 317 318 321 323 324 323 323 323 324 323 322 321
307 307 308 306 306 307 306 304 304 304 303 303 301 300 300 300 297 300 302 306 301 299 300 301 303 305 306 307 310 312 312 313 314 314 316 317 319 322 322 322 320 319 318 315
309 309 306 304 303 304 304 303 301 301 300 299 297 297 297 297 297 297 299 302 303 303 303 302 303 304 304 306 307 307 308 308 308 309 308 308 310 310 312 314 312 306 300 301
307 303 303 300 300 301 301 300 300 299 298 297 296 295 295 297 297 297 297 298 299 303 302 301 300 302 303 304 303 303 304 303 303 302 301 301 301 301 301 301 302 303 301 298
301 299 301 299 298 300 300 297 296 297 295 295 296 294 294 294 294 295 296 297 298 299 300 300 299 299 301 302 302 302 303 300 299 298 296 296 297 296 294 293 293 294 295 297
296 297 298 296 296 296 297 296 295 294 293 292 293 292 293 292 292 292 294 295 295 295 295 296 298 301 300 299 298 299 299 298 298 296 295 293 291 290 291 289 290 288 288 288
296 298 296 295 293 293 293 293 293 292 292 291 291 291 291 290 291 291 292 292 291 292 293 295 296 296 295 295 295 297 296 296 296 294 293 292 291 290 289 290 289 289 289 290
293 293 293 293 293 293 292 291 291 290 290 289 288 288 288 288 288 288 288 288 289 290 290 291 292 292 292 293 294 293 293 293 293 292 292 291 290 290 290 289 288 287 285 286
290 290 290 291 290 290 290 289 287 285 286 286 285 285 285 285 285 286 286 287 289 288 288 288 289 289 290 291 292 292 292 291 291 290 289 289 289 289 288 287 286 285 285 285
289 288 287 287 287 287 287 286 285 284 283 282 281 282 283 283 284 284 284 285 286 286 286 286 286 287 288 289 290 290 289 289 289 289 288 288 288 287 286 286 285 285 284 282
285 284 284 283 284 283 284 283 283 283 283 282 282 282 282 283 282 282 282 283 283 284 284 284 285 286 286 287 288 288 287 287 287 287 286 285 285 285 284 284 284 282 279 277
282 282 282 281 282 282 282 281 282 281 281 281 281 281 281 281 281 281 281 282 283 283 282 282 283 284 285 285 285 286 286 286 285 285 284 284 284 283 282 280 278 277 276 276
280 281 280 281 281 281 280 280 280 280 279 279 280 280 280 280 280 280 281 282 280 279 280 281 282 283 283 283 284 284 284 284 284 284 282 281 280 279 277 276 276 275 274 274
279 279 279 279 279 279 278 278 278 279 278 278 279 279 279 279 279 279 280 280 279 279 280 280 281 281 281 282 282 282 282 282 280 279 278 277 276 276 275 275 274 274 273 273
277 278 278 278 278 277 277 277 278 277 277 277 278 278 278 278 278 278 278 278 277 278 279 280 280 279 279 278 278 277 277 277 277 276 276 275 275 274 274 273 273 273 272 272
277 277 277 277 277 277 277 277 277 277 277 277 277 276 277 277 276 276 277 276 276 277 277 276 276 275 276 276 276 276 276 275 275 275 274 274 273 273 273 272 272 272 271 271
278 277 277 277 277 277 277 277 277 277 277 277 276 276 276 276 276 275 275 275 275 275 275 275 274 274 274 274 274 274 274 273 273 273 272 272 272 272 272 271 271 271 271 271
277 277 277 277 277 277 277 276 276 276 275 275 275 274 274 274 274 273 273 272 272 272 272 273 272 272 273 273 273 272 272 272 272 272 271 271 271 271 271 271 271 271 270 270
278 277 277 277 277 277 276 276 276 275 274 274 273 273 272 272 272 271 271 271 271 271 271 271 271 271 271 271 271 271 271 271 271 271 271 270 270 270 270 270 270 270 270 270
278 278 277 277 276 276 276 275 275 274 273 272 272 271 271 271 271 271 271 271 271 270 270 270 270 270 270 270 270 270 270 270 270 270 270 270 270 270 270 270 270 269 269 269

GFSNGP_850_thetae_102.txt.gz
Theta_e
310 311 310 311 311 311 311 310 311 311 312 316 316 316 317 318 318 318 317 316 313 316 318 323 324 325 323 325 325 325 325 323 321 318 318 320 320 319 319 319 317 318 318 316
310 311 309 310 311 311 311 312 311 310 312 315 315 317 317 317 317 316 314 312 310 310 316 319 320 323 325 326 326 324 325 323 324 321 319 319 319 319 319 318 317 317 317 317
309 310 308 310 309 311 314 314 315 314 315 314 315 317 314 313 313 311 310 309 307 306 311 314 318 322 322 324 325 325 324 323 323 323 321 319 319 319 319 318 318 318 318 317
310 307 305 312 313 313 314 313 314 313 313 313 313 310 309 308 308 306 305 305 305 305 307 309 314 320 322 323 324 325 325 324 324 324 323 322 320 319 318 317 318 318 318 318
308 308 306 313 313 314 315 314 311 311 313 310 312 313 310 306 304 303 303 303 304 304 306 309 313 316 316 322 322 323 323 322 323 322 322 323 322 321 319 319 318 318 318 318
307 309 306 309 312 310 312 315 309 309 312 310 309 312 310 304 301 300 302 303 303 303 304 307 306 308 317 319 319 320 321 321 321 322 322 322 321 322 321 320 320 320 320 319
307 308 307 308 309 310 311 308 307 308 309 310 310 307 304 301 299 300 300 301 302 302 301 303 305 306 311 312 314 314 315 317 319 320 321 322 321 321 321 323 322 321 320 320
307 308 307 305 308 308 305 305 305 303 303 303 303 302 300 298 298 298 300 299 301 303 301 303 305 306 306 308 307 309 311 312 313 315 316 318 320 321 321 321 321 320 320 320
307 306 305 302 303 304 304 302 300 300 299 300 299 298 296 295 295 296 298 298 300 301 300 300 301 303 304 304 307 308 309 310 311 311 312 314 315 316 316 318 319 319 316 315
309 306 304 302 301 300 300 298 298 298 297 297 297 296 294 294 294 294 296 297 298 299 301 300 300 301 301 300 302 304 306 307 306 307 307 307 307 307 307 306 307 308 306 303
305 303 301 299 299 299 299 297 296 296 296 295 295 295 294 292 292 292 293 293 296 299 299 299 300 301 302 302 301 300 301 301 302 301 301 302 302 300 300 299 300 300 299 298
302 297 299 297 296 297 298 296 295 294 293 293 293 292 293 292 292 292 291 292 293 294 296 298 299 299 300 299 299 299 298 298 298 298 296 294 294 292 290 292 293 293 294 295
295 296 296 295 294 295 295 294 294 293 292 291 291 290 291 291 290 290 291 292 291 291 292 295 296 297 296 297 297 297 298 297 296 296 294 293 290 291 289 287 288 288 289 290
295 296 295 294 292 292 292 292 291 291 291 290 289 289 288 289 289 289 289 288 289 290 291 291 293 295 294 294 295 295 296 296 295 294 293 292 290 289 289 290 290 288 287 288
292 292 292 291 290 290 290 289 289 288 287 288 288 288 287 287 287 286 286 287 287 288 289 289 290 289 290 291 293 293 293 294 293 292 290 290 289 289 289 289 287 286 286 287
290 290 290 290 288 288 287 287 287 284 284 285 285 285 284 284 285 285 286 286 288 287 286 287 288 288 288 289 290 291 291 290 290 290 289 289 288 288 287 286 286 285 285 285
289 287 286 287 286 285 285 284 284 282 283 284 284 283 283 283 284 284 284 284 284 285 285 285 285 285 287 288 289 289 288 288 288 288 287 287 287 287 286 286 286 286 285 283
284 283 283 283 283 282 281 281 282 282 282 282 282 282 282 283 283 282 282 282 283 283 284 283 284 285 285 286 287 287 287 287 286 286 286 285 285 285 285 285 284 282 279 277
282 282 282 282 281 281 281 281 281 280 280 280 280 281 281 281 281 281 281 282 282 283 282 282 283 284 284 284 285 285 285 285 285 285 285 284 284 283 281 279 278 277 276 276
280 280 280 280 280 280 280 279 279 279 279 279 279 279 279 279 279 280 280 281 280 279 280 281 282 283 283 283 283 284 284 284 284 284 283 282 281 279 277 277 276 276 275 275
279 278 279 279 279 279 278 278 278 278 278 278 279 279 278 278 278 278 279 279 278 278 279 280 280 281 281 281 282 282 282 281 280 279 278 277 277 276 276 275 275 274 274 274
278 278 278 277 278 277 277 277 277 277 277 277 277 277 277 277 277 277 277 277 277 277 278 279 279 278 278 277 277 277 277 277 277 276 276 275 275 274 274 273 273 273 273 273
277 277 277 277 277 277 277 277 277 277 277 277 276 276 276 276 276 276 277 276 276 275 275 276 275 275 275 275 276 275 275 275 275 275 274 274 273 273 273 272 272 272 272 272
277 277 277 277 276 277 277 276 276 276 276 276 276 275 275 275 275 275 275 275 275 274 274 274 273 273 274 274 274 274 274 273 273 273 273 272 272 272 272 272 271 271 271 271
277 277 277 277 277 277 276 276 276 275 275 275 275 274 274 274 274 273 272 272 272 272 273 273 272 273 273 273 273 272 272 272 272 272 272 272 271 271 271 271 271 271 271 270
278 277 277 277 277 276 276 276 275 274 273 273 273 273 273 272 272 272 272 272 272 272 272 272 272 272 272 271 271 271 271 271 271 271 271 271 271 271 271 270 270 270 270 270
278 277 277 277 276 276 276 275 275 274 273 272 272 271 271 271 271 271 271 270 270 270 270 270 270 271 271 271 271 270 270 270 270 270 270 270 270 270 270 270 270 269 269 269

GFSNGP_850_thetae_105.txt.gz
Theta_e
310 310 311 311 311 311 312 311 313 312 313 312 316 318 318 317 317 316 314 313 312 312 309 305 317 321 322 321 321 321 323 324 324 318 318 319 320 320 320 320 319 319 319 319
311 310 310 309 309 312 312 312 313 313 313 315 316 316 313 313 313 312 310 308 307 305 303 303 311 320 321 321 320 321 322 322 322 321 318 319 319 320 319 319 319 318 317 317
309 310 308 308 309 311 312 314 315 313 314 314 315 313 310 309 308 307 306 304 303 307 304 304 307 314 321 321 322 322 323 324 324 323 323 319 319 319 319 319 318 318 317 317
309 309 308 313 313 313 313 313 313 312 314 311 313 309 307 305 304 302 301 300 301 303 307 307 308 312 319 321 322 322 322 323 324 323 322 322 321 319 319 319 318 318 317 317
308 309 308 312 313 314 315 313 311 312 313 310 310 310 305 302 300 298 298 298 298 299 303 304 309 311 314 321 321 321 321 322 321 321 321 322 322 321 320 319 318 317 317 317
308 308 308 310 312 310 312 313 309 310 311 311 310 312 307 300 301 298 298 296 297 299 303 309 311 307 308 315 318 320 319 319 319 320 320 320 320 320 321 321 320 319 318 318
307 307 307 307 307 310 313 311 307 307 307 307 307 304 300 298 299 298 297 297 296 298 300 304 307 307 309 310 312 312 313 314 317 320 320 320 319 319 319 320 320 320 319 319
307 307 306 304 308 310 306 303 303 302 302 302 301 299 297 295 296 297 297 298 298 296 298 301 302 303 305 306 305 308 310 311 312 314 315 316 317 318 320 319 319 320 319 318
307 308 304 302 302 301 302 300 299 299 299 298 297 295 294 293 295 294 295 296 297 298 298 301 299 299 301 300 303 305 307 309 309 310 311 312 313 314 315 315 315 315 313 311
307 305 303 300 298 297 297 296 296 296 295 296 294 293 292 293 293 293 294 295 296 297 298 300 301 299 297 298 299 301 302 303 303 304 304 305 306 307 307 307 306 305 304 304
304 302 300 297 296 295 294 295 294 294 294 292 292 291 292 291 291 292 292 293 294 293 294 295 296 297 298 298 299 299 299 300 300 299 299 300 300 299 300 298 300 301 299 299
301 297 298 295 293 293 293 291 292 292 293 292 291 289 290 290 290 290 291 292 292 292 293 294 295 296 296 296 297 297 297 297 296 295 294 294 293 292 292 294 295 295 295 296
296 295 295 293 293 292 291 290 290 291 290 290 290 290 290 289 288 289 289 290 290 291 292 293 294 295 296 295 295 297 297 296 294 292 292 292 291 290 290 289 290 289 289 290
294 295 294 293 291 290 289 289 289 289 288 288 288 289 289 289 288 288 288 288 289 289 291 291 292 293 293 294 295 295 295 295 295 292 291 291 291 290 290 290 290 288 287 287
291 292 291 290 289 288 288 287 287 285 284 285 286 287 287 287 288 287 287 287 287 288 288 289 290 291 291 291 292 293 293 293 293 292 291 291 290 290 289 288 288 287 286 288
289 289 289 288 287 286 286 285 285 283 282 282 283 284 285 285 285 285 286 286 288 287 287 287 288 288 288 290 290 291 291 290 290 290 289 288 288 288 288 287 287 287 287 286
289 287 286 286 284 283 282 282 282 281 282 282 282 282 283 283 284 284 284 284 284 285 285 285 285 286 286 287 288 289 288 288 288 288 288 287 287 288 287 287 287 286 286 284
283 282 282 282 283 282 281 281 282 282 282 281 281 281 282 282 282 281 282 282 283 284 284 284 284 284 285 285 286 286 286 286 286 286 286 286 286 286 285 285 285 283 279 277
282 282 281 280 281 281 281 281 281 280 280 280 280 281 281 280 280 280 280 281 282 283 282 282 283 283 284 284 284 285 285 285 285 285 285 284 284 283 281 279 278 277 276 276
280 280 280 280 280 280 280 279 279 279 278 279 279 279 279 279 279 280 280 281 280 280 280 281 281 282 282 282 283 283 283 283 284 283 283 282 280 278 277 276 276 275 275 275
279 279 279 278 279 278 278 277 277 278 277 277 278 278 278 278 278 278 279 279 278 278 279 280 281 281 281 281 281 282 282 281 280 279 278 277 276 276 275 275 275 274 274 274
277 277 277 277 277 277 276 276 277 277 277 277 277 277 277 277 277 277 277 277 277 277 278 279 279 278 278 277 277 277 277 277 277 276 276 275 275 274 274 274 274 273 273 273
277 277 276 276 277 277 276 276 276 276 277 276 276 276 276 276 276 276 276 276 276 275 275 276 276 275 275 276 276 276 275 275 275 274 274 274 273 273 273 273 272 272 272 272
277 277 277 277 276 276 277 276 276 276 276 276 275 275 275 275 275 275 274 274 274 273 274 274 273 273 274 274 274 274 274 274 273 273 273 273 272 272 272 272 271 271 271 271
277 277 277 277 277 277 276 276 275 275 275 275 275 274 274 274 274 273 272 272 272 272 272 272 272 272 273 273 273 273 272 272 272 272 272 271 271 271 271 271 271 271 270 270
277 277 277 276 276 276 276 275 275 274 273 273 273 272 272 272 271 271 271 271 271 271 271 271 271 271 271 271 271 271 271 271 271 271 271 271 271 270 270 270 270 270 270 270
277 277 277 276 276 276 275 275 274 274 273 272 271 271 271 270 270 270 270 270 270 270 270 270 270 270 270 270 270 270 270 270 270 270 270 270 270 270 270 270 269 269 269 269

GFSNGP_850_thetae_108.txt.gz
Theta_e
312 312 313 313 313 313 313 314 314 313 314 315 317 318 317 314 313 313 311 310 308 306 306 307 311 311 318 321 321 322 321 321 323 323 320 320 320 320 320 320 320 319 319 319
311 311 312 312 312 312 313 313 314 314 314 316 316 314 312 311 310 309 307 306 305 303 305 304 309 307 314 320 320 320 320 321 323 323 319 319 319 320 320 320 320 319 318 319
310 310 310 311 311 312 313 314 315 315 316 314 314 311 308 308 307 304 303 302 302 299 302 303 307 304 308 320 320 320 321 322 321 320 318 319 319 320 320 320 319 319 319 319
310 309 310 314 314 313 312 314 314 313 314 313 312 307 304 303 302 301 299 298 298 298 300 303 305 303 303 320 320 320 320 320 321 322 322 320 318 319 319 319 320 320 318 319
309 309 308 309 314 314 314 314 313 313 313 313 310 307 303 300 298 297 297 297 297 296 299 301 304 305 302 314 319 320 320 320 320 320 321 321 322 321 319 318 318 318 318 317
308 309 309 314 311 311 314 315 311 311 310 311 311 314 305 299 297 298 297 298 298 298 298 298 302 304 300 308 314 315 316 317 318 319 321 320 320 321 320 321 320 319 318 317
309 308 307 309 308 309 315 313 307 307 307 306 306 302 299 297 296 296 296 298 299 298 298 299 299 304 302 306 308 307 313 314 316 317 319 319 319 320 320 320 320 319 319 318
309 309 308 305 310 312 307 305 304 303 303 303 301 298 296 293 294 295 296 298 299 299 298 299 302 302 299 304 305 307 300 308 312 314 314 316 317 318 319 319 319 319 318 316
310 311 304 302 301 302 304 303 302 301 300 299 298 295 293 291 292 293 294 296 297 297 299 300 301 302 301 301 304 304 304 307 309 309 311 312 313 314 315 313 313 313 311 310
307 304 302 298 298 299 299 299 298 298 298 297 295 293 292 290 291 292 293 294 295 296 296 297 298 299 298 298 299 300 300 301 303 305 305 305 306 306 307 306 306 306 305 305
304 301 298 296 295 295 296 296 295 294 294 294 294 292 291 290 290 291 291 292 293 294 295 296 297 298 298 298 294 295 295 294 296 297 298 299 298 298 299 298 300 300 300 300
304 297 298 295 293 293 293 292 292 292 291 291 291 291 290 289 288 288 291 291 292 292 293 293 296 297 297 296 295 293 293 294 293 292 293 293 293 293 292 293 294 294 294 295
297 294 294 292 292 292 292 292 290 289 289 289 288 288 288 287 287 288 287 288 289 289 290 291 292 293 293 294 295 295 293 292 292 291 289 288 288 289 289 287 289 290 290 291
294 294 293 292 290 289 289 288 288 287 286 287 286 286 286 286 285 285 287 288 288 287 288 289 290 290 291 292 293 293 293 292 292 291 290 289 288 287 287 287 288 288 289 290
292 292 291 290 289 288 288 289 288 287 286 285 284 284 284 284 283 283 285 286 287 288 288 289 289 289 289 290 291 291 292 291 291 291 290 289 288 286 285 285 285 285 286 287
290 290 289 288 287 287 287 288 287 286 285 284 283 282 282 281 281 282 284 285 286 286 286 286 287 287 288 288 289 290 290 289 288 288 288 287 285 285 285 286 286 286 286 285
290 290 288 288 287 285 284 284 284 283 282 282 281 281 281 281 281 282 284 284 284 284 284 285 284 285 286 287 288 288 288 288 288 288 287 287 287 286 286 286 286 286 285 285
284 284 284 284 285 284 282 281 280 280 279 280 282 282 282 282 282 282 282 282 282 283 284 284 284 284 285 286 286 286 286 287 287 287 286 286 286 286 286 285 283 281 279 278
281 280 280 280 281 281 280 278 277 279 280 280 280 281 281 281 280 281 281 282 282 282 282 282 283 284 284 285 285 285 285 285 285 285 285 285 285 284 282 280 278 277 277 277
279 278 279 280 280 280 279 279 279 279 278 278 279 279 279 279 279 279 279 281 281 281 281 281 282 282 283 283 283 284 284 284 284 284 283 283 280 278 277 277 277 276 276 276
279 279 279 278 278 278 278 278 278 278 278 278 278 278 278 278 278 277 276 276 278 279 280 280 281 281 281 282 282 282 282 282 282 281 280 278 277 276 276 275 275 275 275 274
278 278 278 278 278 277 277 277 277 277 278 277 277 277 276 276 276 277 277 276 277 277 278 279 279 278 278 278 278 278 278 278 277 277 276 276 275 275 274 274 274 274 273 273
277 277 277 277 277 277 277 276 276 276 276 276 276 276 275 274 273 274 274 275 275 275 276 276 277 276 276 277 277 277 276 276 275 275 275 274 274 273 273 273 273 272 272 272
277 277 277 277 276 275 276 276 276 276 275 275 275 275 273 273 273 273 273 273 273 273 274 274 274 274 274 274 274 274 274 274 274 274 273 273 273 273 272 272 272 272 271 271
277 277 277 276 275 275 275 275 274 273 273 272 273 273 273 273 272 272 272 272 272 272 272 272 272 272 273 273 273 273 273 273 272 272 272 272 272 271 271 271 271 271 271 271
276 277 276 276 276 275 274 274 274 273 272 272 271 271 271 271 271 271 271 271 271 271 271 271 271 272 272 271 271 271 271 271 271 271 271 271 271 271 271 271 270 270 270 270
277 277 276 276 275 275 274 274 274 273 272 272 271 270 270 270 270 270 270 270 270 270 270 270 270 271 271 271 271 271 271 270 270 270 270 270 270 270 270 270 270 269 269 269

GFSNGP_850_thetae_111.txt.gz
Theta_e
313 313 314 314 315 314 314 314 314 315 316 318 319 319 315 313 313 312 310 309 308 307 306 306 306 307 309 313 321 322 321 321 322 323 323 325 324 322 321 324 321 320 320 321
311 311 312 313 312 313 313 312 313 313 313 319 317 314 312 311 310 309 307 305 304 304 302 302 301 306 305 311 317 320 321 321 321 321 322 322 322 322 323 323 320 320 320 320
311 311 311 312 312 312 312 312 313 315 317 316 314 311 307 306 305 304 302 302 300 299 298 297 302 304 302 310 315 319 320 320 320 320 321 321 322 320 322 323 321 320 321 320
312 310 311 313 314 313 312 315 315 315 315 315 312 305 302 301 302 301 300 299 296 296 298 299 301 301 301 308 314 318 319 319 319 320 320 321 320 319 321 323 320 320 320 319
312 311 311 311 315 316 316 316 314 314 313 313 307 305 302 300 300 299 296 295 297 296 297 298 299 299 301 304 301 308 318 318 319 318 318 320 322 322 321 320 319 319 319 319
312 310 312 312 310 309 312 318 311 311 311 311 311 313 305 300 298 297 295 295 297 296 297 298 298 299 300 301 299 300 307 314 317 318 320 319 319 319 319 320 320 319 320 319
310 310 312 309 310 308 315 312 308 308 308 307 306 303 300 297 296 295 294 296 297 296 296 297 297 298 299 300 298 298 300 308 312 314 317 318 319 319 319 319 319 319 319 318
311 311 312 306 309 310 305 306 306 305 304 302 301 299 297 295 295 293 296 297 296 297 296 297 297 298 297 297 295 294 297 307 307 312 309 314 318 319 319 319 320 318 318 317
312 309 304 302 302 302 304 304 303 303 302 301 300 297 295 294 293 293 294 295 295 297 297 295 296 294 292 296 299 297 304 305 304 304 304 306 313 313 316 317 316 315 313 312
307 301 300 298 299 300 300 300 300 300 300 299 298 296 295 293 291 292 292 293 294 295 296 296 295 295 295 291 292 298 300 301 301 303 304 303 307 309 308 305 305 305 305 305
305 301 300 298 296 296 297 297 297 296 296 297 297 296 294 293 291 290 290 292 292 291 292 293 295 295 296 296 294 296 293 288 290 293 296 295 297 297 298 298 300 301 300 300
304 297 299 296 294 294 294 294 294 295 295 293 294 293 293 292 290 290 289 288 289 290 291 290 292 293 294 294 295 296 295 292 293 292 292 292 291 291 291 292 294 295 295 296
296 295 295 293 293 292 291 290 291 291 291 292 291 290 290 290 288 288 288 287 286 288 289 290 291 292 293 293 294 295 293 292 292 291 289 288 287 289 289 289 291 291 291 291
294 295 294 293 292 291 290 290 289 289 289 289 289 289 288 288 287 286 286 285 284 286 288 288 289 290 289 291 292 292 292 290 290 289 288 287 287 287 287 287 288 287 288 288
293 292 291 290 290 290 290 291 291 289 289 288 287 286 286 285 284 283 283 284 283 284 287 287 288 288 288 289 289 289 289 288 288 288 287 286 286 285 285 285 285 285 286 286
292 292 290 289 288 288 288 289 290 288 287 287 286 285 284 283 282 281 280 283 283 283 284 285 286 286 286 287 288 288 287 286 285 286 285 284 283 283 283 283 283 283 283 282
293 292 290 290 288 287 286 286 286 285 284 283 282 281 283 282 281 280 280 282 283 283 284 284 284 285 285 284 284 285 286 286 286 286 285 284 284 284 284 284 285 285 284 283
287 286 286 286 287 286 284 283 282 281 280 279 279 280 281 280 278 279 280 280 280 282 282 282 283 284 285 284 284 284 284 284 284 284 284 284 283 282 281 281 280 280 278 278
283 282 282 282 283 283 282 280 278 277 278 280 280 280 280 279 278 279 279 279 278 279 280 280 281 283 284 284 283 283 283 283 283 283 282 281 280 279 278 278 277 276 276 275
280 279 278 279 278 277 277 276 277 278 278 278 278 278 278 279 279 277 278 278 278 277 279 280 278 280 280 281 281 282 282 282 281 281 279 278 278 277 276 276 276 275 275 274
277 277 277 277 277 277 277 277 276 277 278 277 277 277 277 278 278 278 278 277 278 278 276 278 280 277 278 278 279 280 280 280 279 278 277 277 276 276 275 275 274 274 273 273
277 276 275 275 275 275 275 275 276 276 276 277 277 276 277 277 277 277 277 275 274 276 275 278 278 278 276 277 277 277 277 277 277 276 276 276 275 275 274 274 273 273 272 272
276 276 276 276 275 275 276 276 276 276 275 276 275 274 275 274 275 276 275 275 274 275 274 276 276 276 275 275 275 275 275 275 274 274 274 274 274 273 273 272 272 271 271 271
276 276 276 276 276 277 276 275 275 276 276 275 276 275 275 275 274 273 272 273 273 273 273 274 274 273 273 273 273 273 273 273 273 272 272 272 272 272 271 271 271 272 272 272
276 276 276 277 278 277 276 275 276 275 275 274 273 273 273 272 273 272 272 272 272 271 271 272 272 272 272 272 271 271 272 272 271 271 271 271 271 270 270 271 270 271 271 271
279 279 278 277 278 278 277 277 277 276 276 275 274 273 272 272 271 271 271 271 271 270 270 271 271 270 271 271 271 271 270 270 271 271 270 270 270 270 270 271 270 271 271 271
278 278 278 278 278 277 277 276 277 276 275 274 273 272 272 271 271 270 271 270 270 270 270 269 269 270 270 269 269 269 270 271 270 270 270 270 270 270 270 270 270 270 270 270

GFSNGP_850_thetae_114.txt.gz
Theta_e
312 312 311 317 316 314 310 312 313 317 318 320 318 315 314 312 311 310 308 307 306 305 303 302 301 301 304 306 307 313 318 322 322 322 322 324 327 326 325 322 322 323 322 321
312 310 313 315 315 315 315 315 315 314 316 316 315 313 311 309 307 306 305 304 302 301 299 298 300 301 300 302 306 311 317 321 322 322 322 324 325 324 324 322 321 323 321 319
312 311 311 311 312 313 312 313 313 316 317 316 312 309 306 305 304 303 302 301 299 297 295 297 299 300 299 299 303 308 316 321 321 321 322 323 324 323 322 321 321 321 321 320
313 312 311 315 314 315 315 316 316 316 315 312 307 304 302 302 302 300 298 297 295 295 295 296 298 299 299 299 301 305 316 318 320 321 322 323 322 320 320 320 320 320 320 321
312 313 311 312 311 313 314 315 313 313 313 308 305 305 302 301 300 297 296 295 295 295 294 295 296 298 297 299 300 303 305 313 318 319 320 321 320 319 320 320 320 319 319 320
311 311 312 310 310 310 312 314 303 310 310 311 309 312 303 300 297 296 295 294 295 295 295 295 296 297 296 298 299 301 302 303 310 318 319 320 319 319 319 320 319 319 319 319
310 310 312 307 308 309 314 310 304 306 305 304 304 301 299 298 296 294 293 294 295 295 295 295 294 295 295 296 295 296 300 300 302 311 316 318 319 319 319 318 319 318 318 318
310 311 312 303 307 308 305 304 304 303 303 301 300 299 298 296 294 292 293 294 295 295 296 296 294 294 295 294 294 296 299 300 300 304 303 313 318 318 318 318 318 318 318 318
309 307 301 301 302 301 302 302 302 302 301 301 299 298 296 295 293 292 292 292 293 293 295 295 296 294 292 291 292 295 298 300 301 300 301 303 304 311 314 315 316 315 314 314
306 301 300 299 298 298 298 300 299 300 300 299 298 297 296 294 292 291 291 291 292 292 292 293 294 294 292 290 291 292 296 299 300 299 301 303 302 305 302 302 306 306 307 306
303 301 300 297 295 296 296 296 297 297 296 296 297 296 295 293 292 291 290 289 290 290 290 290 291 292 291 291 291 292 293 294 295 293 295 296 297 299 299 298 299 299 300 300
301 296 298 295 294 294 293 293 294 294 295 293 293 293 293 291 290 289 288 287 288 288 288 289 290 291 290 290 291 291 291 291 292 291 292 292 291 291 291 293 295 296 295 296
296 295 295 294 293 293 292 291 291 292 292 292 291 291 291 289 288 287 286 286 285 286 287 287 288 289 289 288 289 290 288 288 288 288 287 287 287 288 287 287 290 290 289 289
295 295 295 293 292 292 292 292 291 291 290 289 289 289 288 287 285 284 285 284 285 286 287 287 287 288 287 288 288 288 288 287 287 287 286 286 286 287 288 288 287 285 285 286
293 292 292 291 291 290 291 292 292 290 289 288 287 286 285 285 283 282 282 283 283 285 286 286 287 286 286 286 287 287 286 286 286 286 286 285 285 286 285 285 284 284 284 285
294 293 291 290 289 288 288 288 289 288 287 285 285 284 284 283 282 281 281 283 283 283 284 285 285 285 285 285 286 285 285 285 285 285 286 286 286 286 285 285 284 284 283 283
293 293 290 290 289 286 285 285 285 284 283 282 281 282 283 281 280 280 280 280 282 282 282 283 284 284 284 284 284 284 285 285 285 285 285 285 285 285 285 286 285 284 283 282
288 287 286 286 287 286 284 282 281 280 279 279 279 280 281 281 279 280 280 280 281 281 282 281 282 283 284 283 283 284 284 284 284 284 283 284 283 283 283 283 282 282 280 279
283 282 281 281 282 282 281 279 278 278 278 278 278 278 279 278 278 279 280 281 281 281 280 281 280 281 282 282 282 282 283 283 283 282 282 281 281 281 281 280 279 278 277 277
280 279 278 279 280 278 277 277 277 278 277 277 277 277 277 279 278 278 279 279 278 277 279 279 280 280 279 280 281 281 281 281 281 281 281 281 280 279 278 277 277 276 276 276
278 277 277 277 277 276 276 276 276 277 277 277 277 277 277 278 278 279 278 276 276 275 277 279 280 279 278 278 279 279 279 279 279 278 278 277 277 276 276 275 275 275 274 274
277 277 276 276 276 275 276 275 276 276 276 276 276 277 278 277 277 277 276 275 275 274 277 278 277 277 277 277 278 278 278 277 277 277 277 276 276 275 275 274 274 273 273 273
277 277 276 276 276 276 276 277 276 276 276 276 276 276 275 275 276 276 275 274 274 274 275 275 275 275 275 275 275 275 276 276 275 275 275 275 274 274 273 273 272 272 272 272
278 277 277 277 278 278 277 276 276 276 275 275 275 275 276 276 274 274 273 272 273 274 273 273 273 274 274 274 274 274 274 273 273 273 273 273 273 272 272 272 272 272 272 272
278 278 279 279 279 278 278 277 278 277 277 276 275 274 274 273 274 273 272 272 272 272 272 272 272 272 272 272 272 272 272 273 272 272 272 271 271 271 271 271 271 271 270 270
280 280 279 279 279 279 278 278 278 277 277 276 275 274 273 273 272 272 272 271 271 271 271 271 271 271 271 271 271 271 271 271 271 271 270 270 270 270 270 270 270 270 271 271
279 279 280 280 279 278 278 277 278 277 276 275 274 273 273 272 272 272 272 271 271 271 271 270 270 270 270 270 270 269 270 270 270 270 270 269 270 270 270 270 270 270 270 270

GFSNGP_850_thetae_117.txt.gz
Theta_e
311 312 311 313 315 315 315 314 313 317 320 316 312 312 309 307 306 305 303 302 301 300 301 303 304 305 306 306 307 307 307 310 316 321 323 323 323 322 326 328 327 327 323 323
311 312 311 314 314 314 314 315 315 317 319 314 311 309 306 305 304 302 301 300 301 298 298 299 299 301 303 303 303 304 305 307 313 319 322 323 322 322 326 327 326 325 323 322
312 312 312 316 315 314 313 315 316 317 315 310 307 305 303 302 301 300 299 297 297 296 296 297 298 299 300 300 301 302 302 306 312 319 321 322 322 323 325 324 325 324 321 320
311 311 314 312 310 313 311 309 309 313 311 307 304 302 301 300 298 297 296 297 296 296 297 297 298 299 299 299 299 300 301 304 308 317 321 321 322 323 323 324 322 322 320 319
309 310 313 309 307 308 312 309 306 309 308 304 302 301 299 298 296 295 295 295 295 295 296 297 298 297 297 297 297 298 299 302 306 311 320 321 322 323 323 322 322 321 319 319
307 310 312 307 304 305 307 307 305 303 304 305 305 307 300 297 295 294 294 294 295 295 295 296 297 296 296 294 296 297 297 298 302 306 316 321 321 322 321 321 321 320 319 319
307 309 309 303 304 305 308 307 303 301 301 300 300 299 297 295 294 293 293 294 294 294 294 294 294 295 294 293 292 295 297 298 300 304 308 317 320 320 320 320 320 321 320 319
306 306 307 301 303 305 303 303 303 301 301 300 298 298 295 294 293 292 293 293 293 293 293 294 294 293 293 293 293 294 298 298 298 301 304 305 315 319 320 320 320 320 319 318
304 304 300 299 299 298 299 299 299 300 300 299 298 296 295 293 292 291 291 291 291 291 293 293 293 293 292 291 293 295 297 297 297 298 302 301 300 308 313 316 316 316 316 316
304 301 299 297 296 297 297 297 297 296 296 298 296 295 294 292 291 290 289 289 289 290 291 291 291 292 292 292 293 294 294 294 295 296 298 300 301 300 301 303 308 307 308 310
301 298 297 295 295 294 294 295 295 295 295 294 294 293 292 291 289 289 288 287 288 288 288 289 290 291 292 292 292 291 291 291 292 292 292 294 295 297 299 298 300 301 299 298
299 296 297 294 293 293 293 292 292 292 293 292 292 292 290 289 288 287 286 285 286 287 287 288 289 289 290 290 290 291 290 289 288 289 289 289 290 289 291 291 292 294 294 297
296 295 294 293 292 292 292 291 291 291 290 290 289 289 288 287 286 286 284 284 285 286 287 287 288 288 288 289 289 289 289 288 288 288 287 287 287 287 286 286 286 286 287 286
294 295 293 293 292 291 292 292 291 290 288 288 287 287 286 285 285 284 283 283 284 285 286 286 286 286 286 287 288 288 288 287 287 286 286 286 285 285 285 285 285 285 285 286
293 292 292 291 290 290 291 291 289 288 287 286 285 285 284 283 282 282 283 283 283 284 285 285 285 285 285 285 286 286 287 287 287 286 286 286 286 285 285 284 284 284 284 285
293 292 291 289 288 288 288 287 287 285 285 284 284 283 282 282 281 281 281 282 283 283 283 283 284 284 284 285 285 285 285 285 286 286 286 286 286 286 286 285 285 284 284 284
293 288 288 288 287 285 284 284 283 282 282 281 281 282 281 281 280 280 280 280 281 281 282 282 282 283 284 284 284 285 285 284 284 285 285 285 285 285 285 284 284 285 284 284
286 286 286 285 285 283 282 281 280 279 279 279 280 280 280 280 279 279 279 280 280 280 281 281 281 281 282 283 283 283 284 284 284 284 283 283 283 283 283 283 282 282 281 280
283 283 283 283 282 282 281 280 279 278 278 278 279 279 279 279 279 278 278 279 280 280 279 279 280 280 281 281 282 282 283 283 282 282 282 282 282 281 280 280 279 278 278 278
280 280 280 280 280 279 278 278 278 278 278 278 278 278 278 278 279 277 278 278 278 278 278 279 279 280 280 280 280 280 280 281 281 280 280 280 280 279 278 278 277 277 277 277
279 279 278 278 278 278 278 278 278 278 277 277 277 277 277 277 278 277 278 278 277 277 278 278 279 278 278 279 279 279 279 279 278 278 278 278 277 277 276 276 276 276 276 276
278 278 277 277 278 278 278 278 278 278 277 277 277 277 276 276 276 276 276 276 275 276 276 277 277 277 277 277 278 278 278 278 277 277 276 276 276 275 275 275 274 274 274 274
278 278 278 277 277 277 277 277 277 277 276 276 276 276 275 275 275 275 275 274 273 273 274 275 275 275 275 276 276 276 276 276 276 276 275 275 275 274 274 274 273 273 273 273
278 278 278 278 278 277 277 277 277 276 276 276 275 275 275 274 274 273 273 273 273 273 272 273 273 273 274 274 274 274 274 274 274 274 274 274 273 273 273 273 273 272 272 272
279 279 279 279 279 278 278 278 277 277 276 275 275 274 274 273 273 272 272 272 272 272 271 272 272 272 272 273 272 273 273 273 273 272 272 272 272 272 272 271 271 272 272 271
280 279 279 279 279 278 278 278 278 277 277 276 275 274 273 272 272 272 271 271 271 271 271 270 271 271 271 271 271 271 271 271 271 271 271 271 271 271 271 271 270 270 270 270
279 279 279 279 278 278 277 277 277 276 276 275 274 273 273 272 272 271 271 271 270 270 270 270 270 270 270 269 270 270 270 269 269 269 270 270 270 270 270 270 270 269 269 269

GFSNGP_850_thetae_120.txt.gz
Theta_e
309 311 312 313 313 313 315 316 314 317 318 312 308 307 304 301 302 301 300 299 297 297 300 302 303 303 303 303 303 304 305 305 306 309 314 317 320 323 323 323 323 324 325 329
310 311 311 313 314 312 312 312 317 315 315 309 307 304 303 300 300 299 298 296 295 297 299 300 300 301 301 301 302 302 302 303 304 307 312 317 320 322 323 323 322 325 328 326
310 310 313 310 308 309 308 307 314 315 312 305 303 302 299 299 298 297 296 295 294 295 297 298 299 299 299 299 299 300 301 302 304 306 311 316 320 322 322 322 323 324 327 324
309 309 314 310 305 307 307 306 305 307 305 303 300 299 298 296 295 294 294 295 294 295 298 297 298 299 299 299 299 300 300 301 302 305 308 313 318 321 322 322 323 325 324 323
309 309 312 307 304 306 307 306 305 305 305 301 300 300 297 295 294 294 294 294 294 294 295 296 297 298 298 299 300 299 299 299 301 302 306 310 315 321 321 322 322 324 323 322
307 310 309 305 302 303 304 306 303 301 302 302 303 303 298 294 293 293 293 293 294 294 295 296 297 297 297 297 297 297 297 296 298 300 302 307 312 320 322 322 321 322 321 321
306 308 307 301 301 302 305 305 302 301 300 299 299 297 295 293 292 292 292 293 294 295 295 295 295 296 296 295 294 294 296 296 298 299 301 303 308 314 320 322 322 321 321 320
303 304 304 299 300 302 301 298 300 300 299 298 297 295 293 292 291 291 291 292 292 292 292 293 295 296 295 294 292 294 295 296 297 298 299 301 303 306 314 317 321 319 319 319
303 302 299 297 297 297 298 297 297 296 297 298 296 294 293 291 290 290 289 289 290 290 292 293 293 293 293 292 291 293 293 295 296 296 297 298 300 303 300 305 313 315 317 316
302 299 297 295 295 295 295 295 295 296 295 296 295 293 291 290 289 289 289 288 289 291 292 292 292 291 290 291 291 291 292 293 293 294 294 293 293 298 298 299 301 304 307 310
299 298 296 294 294 293 294 294 293 293 293 293 292 291 290 289 288 287 287 287 288 289 289 289 290 290 290 290 290 290 290 290 291 291 291 289 288 288 294 294 297 296 297 303
293 295 296 294 292 292 292 292 292 292 291 291 290 289 289 288 286 286 286 286 287 287 288 288 288 289 289 289 289 290 290 289 289 290 289 289 287 287 287 287 291 293 295 298
296 294 294 292 292 292 292 291 291 290 290 289 288 288 287 286 285 285 285 285 285 285 285 286 286 287 288 287 288 289 288 288 288 288 288 288 288 287 286 287 288 288 288 288
294 294 293 292 291 291 292 292 290 289 288 287 286 286 285 285 284 284 284 283 283 284 284 284 285 286 286 286 287 288 288 287 287 287 287 287 287 287 287 287 287 287 287 289
293 293 292 291 290 290 290 289 288 287 286 285 284 284 284 283 282 282 282 283 283 283 284 284 284 284 285 285 286 286 287 287 287 287 287 287 287 287 286 286 287 287 287 288
293 291 290 289 287 287 287 286 286 284 284 283 283 282 282 281 281 281 281 282 282 282 282 283 283 283 284 284 285 285 285 286 287 287 287 287 287 287 287 286 286 286 286 285
291 287 287 287 285 285 284 283 283 282 281 281 281 281 281 281 280 280 280 280 280 280 281 282 282 282 283 283 284 284 284 285 285 286 286 286 286 286 286 286 287 286 285 284
287 286 285 285 284 283 282 281 280 280 280 279 280 280 280 280 279 279 279 279 279 280 280 280 281 281 282 282 283 283 283 284 284 285 285 285 284 284 284 284 284 283 282 282
284 284 283 283 282 282 281 280 279 279 279 278 279 279 278 278 278 278 277 278 279 279 279 279 280 280 281 281 282 282 282 282 282 282 282 282 282 281 280 279 279 278 278 278
281 281 281 281 280 280 280 279 278 278 278 277 278 278 278 278 277 277 277 277 277 277 277 278 279 279 279 279 280 281 281 281 280 280 280 280 279 279 278 277 277 277 276 276
280 279 279 279 279 279 278 278 278 278 277 278 278 277 277 276 276 276 277 277 276 276 276 277 278 278 278 278 279 279 279 279 279 278 278 277 277 276 276 276 275 275 275 275
279 279 279 278 278 278 278 277 277 277 277 277 277 276 276 276 275 275 275 275 274 275 276 277 277 276 276 277 277 277 277 277 277 277 276 276 276 275 275 275 274 274 274 273
279 278 278 278 278 278 277 277 277 277 276 276 276 276 275 275 275 275 275 274 274 273 274 274 274 275 275 275 275 276 276 276 276 275 275 275 274 274 274 274 273 273 273 273
279 278 278 278 278 277 277 277 277 276 276 276 275 275 274 274 274 273 273 273 272 272 272 272 273 273 273 274 274 274 274 274 273 273 273 273 273 273 272 272 272 272 272 272
279 279 279 278 278 277 278 277 277 276 276 275 275 274 274 273 273 272 272 272 271 271 271 271 271 271 272 272 272 272 272 272 272 272 272 271 271 271 271 271 271 271 271 271
279 279 279 279 278 278 278 278 277 277 276 275 275 274 273 273 272 271 271 271 270 270 270 270 270 270 271 271 271 271 271 271 271 271 270 270 270 270 270 270 270 270 270 270
279 279 278 278 278 278 277 277 277 276 276 275 274 273 273 272 271 271 271 270 270 270 270 269 269 269 269 269 270 269 269 269 269 269 269 269 269 269 269 269 269 269 269 269

GFSNGP_850_thetae_123.txt.gz
Theta_e
307 308 309 312 313 312 312 314 316 316 312 307 304 303 300 298 299 298 297 297 300 299 301 302 303 302 302 302 304 304 305 305 306 306 307 308 310 314 318 323 324 324 326 327
307 310 309 306 307 308 308 309 315 311 308 304 301 300 299 299 298 298 296 295 295 295 296 296 299 300 300 303 302 302 302 301 302 303 305 307 309 312 317 321 323 323 323 323
308 309 313 308 305 306 306 305 309 312 307 302 300 298 297 296 296 295 294 293 292 293 294 295 296 297 298 299 300 300 300 300 301 302 304 306 308 312 316 319 321 322 323 323
308 309 310 307 303 306 306 304 303 305 303 300 298 296 295 294 293 292 291 291 291 292 295 297 298 299 299 299 299 299 299 299 300 301 303 305 307 310 316 319 320 322 321 321
307 310 309 307 302 303 305 305 302 302 303 301 300 300 295 293 291 290 290 291 292 294 296 297 298 297 296 297 297 298 299 298 298 299 300 302 305 309 314 318 319 321 322 320
306 310 308 304 300 300 303 304 302 301 300 300 300 302 297 292 291 290 291 291 292 294 295 296 296 296 295 296 296 297 296 296 297 298 298 299 302 307 312 317 320 321 322 322
305 309 305 300 299 300 305 302 300 300 299 298 298 296 293 292 291 291 290 290 290 292 292 293 294 293 294 294 294 294 295 295 296 297 297 297 300 303 307 311 318 321 321 320
302 303 301 298 299 301 300 297 296 297 298 297 296 294 293 292 291 290 290 291 291 291 291 291 292 293 293 293 292 292 293 294 294 294 293 294 297 299 300 306 311 313 319 321
303 302 298 296 297 296 296 296 296 295 296 297 295 293 292 291 290 290 289 289 289 290 291 292 293 292 292 291 290 291 293 293 292 292 291 292 295 296 297 300 303 301 307 317
301 299 297 295 295 294 294 294 294 294 294 294 293 291 290 289 288 288 288 287 288 289 289 290 290 290 289 289 290 291 291 291 291 290 290 290 291 291 293 296 298 299 296 303
298 298 296 294 293 292 292 293 292 292 292 291 291 289 289 288 287 286 286 286 286 287 287 287 288 288 288 288 289 290 290 290 290 289 289 288 287 287 287 287 293 294 292 294
289 295 295 294 293 292 292 291 291 291 290 290 289 288 287 286 285 284 285 285 285 285 286 286 287 287 288 287 287 288 289 288 288 288 288 289 288 287 287 288 288 290 290 289
296 294 293 292 292 292 292 291 290 289 288 288 287 286 285 284 284 283 284 284 284 284 284 285 286 287 287 286 286 287 287 287 288 288 288 288 288 288 287 287 288 288 288 289
294 294 292 291 290 290 291 290 289 288 287 286 285 285 284 283 283 283 283 283 283 283 284 284 285 285 286 286 286 286 286 286 286 286 287 288 287 288 288 288 288 288 288 288
293 292 292 290 289 289 289 288 287 286 285 284 283 283 282 281 281 281 281 281 282 283 283 284 284 284 284 284 285 285 286 286 286 286 285 286 287 288 288 288 287 287 288 288
292 291 289 289 287 287 287 286 285 283 283 282 282 281 281 281 280 280 280 281 281 281 281 282 283 283 283 283 284 285 285 285 285 285 285 285 285 285 286 286 287 287 287 286
291 288 287 287 285 285 284 283 282 281 280 280 280 280 281 280 280 280 279 279 280 280 280 281 281 282 282 283 283 283 284 284 284 285 285 285 284 284 284 284 283 283 282 282
289 287 286 285 284 283 283 281 280 280 279 279 279 279 279 279 279 278 278 278 279 280 280 280 280 280 281 281 282 282 282 283 283 284 283 284 284 282 281 281 280 280 279 279
285 285 284 284 283 282 281 280 280 279 279 279 279 279 278 278 277 277 277 278 279 279 279 279 279 279 280 280 280 281 281 281 282 282 281 281 281 281 280 279 278 278 278 278
283 282 282 282 281 280 280 279 279 279 279 278 278 278 278 277 277 277 277 277 276 276 276 277 278 279 278 279 279 279 280 280 280 279 279 278 278 277 277 277 277 277 277 277
281 281 281 280 280 280 279 279 278 278 278 277 277 277 276 276 276 276 276 276 276 276 276 277 277 277 277 277 277 278 278 278 278 277 277 277 276 276 276 275 275 275 275 275
281 280 280 280 279 279 279 278 277 277 277 277 277 276 276 275 275 275 274 274 273 274 274 275 275 275 275 276 276 276 276 276 276 276 276 276 275 275 274 274 274 274 273 273
280 280 279 279 278 278 277 277 277 276 276 276 275 275 274 274 274 274 274 273 273 273 273 273 273 273 274 274 274 274 275 275 275 274 274 274 274 273 273 273 273 273 272 272
279 279 278 278 278 277 277 277 276 276 276 275 275 274 274 273 273 273 272 272 272 272 272 272 272 272 272 273 273 273 273 273 273 273 272 272 272 272 272 271 271 271 271 271
279 279 278 278 278 278 277 277 277 276 276 275 275 274 274 273 272 272 271 271 271 271 271 271 271 271 271 271 271 271 272 272 271 271 271 271 271 271 271 270 270 270 270 270
280 279 279 278 278 278 278 277 277 277 276 275 275 274 273 273 272 271 271 271 270 270 270 270 270 270 270 270 270 270 270 270 270 270 270 270 270 270 270 270 270 270 270 269
279 279 279 278 278 278 278 277 277 276 276 275 274 273 273 272 271 271 271 270 270 270 269 269 269 269 269 269 269 269 269 269 269 269 269 269 269 269 269 269 269 269 269 269